[[{"header":{"parameterUnit":"m.s-1","parameterCategory":1,"la1":30.6,"la2":29.2853,"lo1":-89.7004,"lo2":-87.6739,"dy":0.0162,"dx":0.0183,"nx":112,"ny":82,"refTime":"2024-03-20T12:00:00:Z","depth":0,"parameterNumber":2,"parameterNumberName":"U-component_of_WINDS"},"data":[0.0,0.0,0.0,0.0,0.0,0.0,0.0,0.0,0.0,0.0,0.0,0.0,0.0,0.0,0.0,0.0,0.0,0.0,0.0,0.0,0.0,0.0,0.0,0.0,0.0,0.0,0.0,0.0,0.0,0.0,0.0,0.0,0.0,0.0,0.0,0.0,0.0,0.0,0.0,0.0,0.0,0.0,0.0,0.0,0.0,0.0,0.0,0.0,0.0,0.0,0.0,0.0,0.0,0.0,0.0,0.0,0.0,0.0,0.0,0.0,0.0,0.0,0.0,0.0,0.0,0.0,0.0,0.0,0.0,0.0,0.0,0.0,0.0,0.0,0.0,0.0,0.0,0.0,0.0,0.0,0.0,0.0,0.0,0.0,0.0,0.0,0.0,0.0,0.0,0.0,-7.5743,-7.5879,-7.5879,-7.5912,-7.6048,-7.6048,-7.6352,-7.7029,0.0,0.0,0.0,0.0,0.0,0.0,0.0,0.0,0.0,0.0,0.0,0.0,0.0,0.0,0.0,0.0,0.0,0.0,0.0,0.0,0.0,0.0,0.0,0.0,0.0,0.0,0.0,0.0,0.0,0.0,0.0,0.0,0.0,0.0,0.0,0.0,0.0,0.0,0.0,0.0,0.0,0.0,0.0,0.0,0.0,0.0,0.0,0.0,0.0,0.0,0.0,0.0,0.0,0.0,0.0,0.0,0.0,0.0,0.0,0.0,0.0,0.0,0.0,0.0,0.0,0.0,0.0,0.0,0.0,0.0,0.0,0.0,0.0,0.0,0.0,0.0,0.0,0.0,0.0,0.0,0.0,0.0,0.0,0.0,0.0,0.0,0.0,0.0,0.0,0.0,0.0,0.0,0.0,0.0,0.0,0.0,0.0,0.0,0.0,0.0,0.0,0.0,0.0,0.0,-7.5946,-7.6657,-7.6724,-7.6961,-7.757,-7.7638,-7.7671,-7.7807,0.0,0.0,0.0,0.0,0.0,0.0,0.0,0.0,0.0,0.0,0.0,0.0,0.0,0.0,0.0,0.0,0.0,0.0,0.0,0.0,0.0,0.0,0.0,0.0,0.0,0.0,0.0,0.0,0.0,0.0,0.0,0.0,0.0,0.0,0.0,0.0,0.0,0.0,0.0,0.0,0.0,0.0,0.0,0.0,0.0,0.0,0.0,0.0,0.0,0.0,0.0,0.0,0.0,0.0,0.0,0.0,0.0,0.0,0.0,0.0,0.0,0.0,0.0,0.0,0.0,0.0,0.0,0.0,0.0,0.0,0.0,0.0,0.0,0.0,0.0,0.0,0.0,0.0,0.0,0.0,0.0,0.0,0.0,0.0,0.0,0.0,0.0,0.0,0.0,0.0,0.0,0.0,0.0,0.0,0.0,0.0,0.0,0.0,0.0,0.0,0.0,0.0,0.0,-7.6927,-7.7096,-7.7435,-7.7502,-7.7638,-7.7942,-7.7976,-7.8145,-7.8585,-7.757,0.0,0.0,0.0,0.0,0.0,0.0,0.0,0.0,0.0,0.0,0.0,0.0,0.0,0.0,0.0,0.0,0.0,0.0,0.0,0.0,0.0,0.0,0.0,0.0,0.0,0.0,0.0,0.0,0.0,0.0,0.0,0.0,0.0,0.0,0.0,0.0,0.0,0.0,0.0,0.0,0.0,0.0,0.0,0.0,0.0,0.0,0.0,0.0,0.0,0.0,0.0,0.0,0.0,0.0,0.0,0.0,0.0,0.0,0.0,0.0,0.0,0.0,0.0,0.0,0.0,0.0,0.0,0.0,0.0,0.0,0.0,0.0,0.0,0.0,0.0,0.0,0.0,0.0,0.0,0.0,0.0,0.0,0.0,0.0,0.0,0.0,0.0,0.0,0.0,0.0,0.0,0.0,0.0,0.0,0.0,0.0,0.0,0.0,0.0,0.0,0.0,0.0,-7.7976,-7.8044,-7.8247,-7.8247,-7.8314,-7.8483,-7.8517,-7.8754,-7.9329,-7.8822,0.0,0.0,0.0,0.0,0.0,0.0,0.0,0.0,0.0,0.0,0.0,0.0,0.0,0.0,0.0,0.0,0.0,0.0,0.0,0.0,0.0,0.0,0.0,0.0,0.0,0.0,0.0,0.0,0.0,0.0,0.0,0.0,0.0,0.0,0.0,0.0,0.0,0.0,0.0,0.0,0.0,0.0,0.0,0.0,0.0,0.0,0.0,0.0,0.0,0.0,0.0,0.0,0.0,0.0,0.0,0.0,0.0,0.0,0.0,0.0,0.0,0.0,0.0,0.0,0.0,0.0,0.0,0.0,0.0,0.0,0.0,0.0,0.0,0.0,0.0,0.0,0.0,0.0,0.0,0.0,0.0,0.0,0.0,0.0,0.0,0.0,0.0,0.0,0.0,0.0,0.0,0.0,0.0,0.0,0.0,0.0,0.0,0.0,0.0,0.0,0.0,0.0,-7.7976,-7.8247,-7.8957,-7.9025,-7.9295,-8.0006,-8.004,-8.0073,-8.0107,-8.0073,0.0,0.0,0.0,0.0,0.0,0.0,0.0,0.0,0.0,0.0,0.0,0.0,0.0,0.0,0.0,0.0,0.0,0.0,0.0,0.0,0.0,0.0,0.0,0.0,0.0,0.0,0.0,0.0,0.0,0.0,0.0,0.0,0.0,0.0,0.0,0.0,0.0,0.0,0.0,0.0,0.0,0.0,0.0,0.0,0.0,0.0,0.0,0.0,0.0,0.0,0.0,0.0,0.0,0.0,0.0,0.0,0.0,0.0,0.0,0.0,0.0,0.0,0.0,0.0,0.0,0.0,0.0,0.0,0.0,0.0,0.0,0.0,0.0,0.0,0.0,0.0,0.0,0.0,0.0,0.0,0.0,0.0,0.0,0.0,0.0,0.0,0.0,0.0,0.0,0.0,0.0,0.0,0.0,0.0,0.0,0.0,0.0,0.0,0.0,0.0,0.0,0.0,-7.9363,-7.9464,-7.9769,-7.9803,-7.9904,-8.0175,-8.0209,-8.0209,-8.0209,0.0,0.0,0.0,0.0,0.0,0.0,0.0,0.0,0.0,0.0,0.0,0.0,0.0,0.0,0.0,0.0,0.0,0.0,0.0,0.0,0.0,0.0,0.0,0.0,0.0,0.0,0.0,0.0,0.0,0.0,0.0,0.0,0.0,0.0,0.0,0.0,0.0,0.0,0.0,0.0,0.0,0.0,0.0,0.0,0.0,0.0,0.0,0.0,0.0,0.0,0.0,0.0,0.0,0.0,0.0,0.0,0.0,0.0,0.0,0.0,0.0,0.0,0.0,0.0,0.0,0.0,0.0,0.0,0.0,0.0,0.0,0.0,0.0,0.0,0.0,0.0,0.0,0.0,0.0,0.0,0.0,0.0,0.0,0.0,0.0,0.0,0.0,0.0,0.0,0.0,0.0,0.0,0.0,0.0,0.0,0.0,0.0,0.0,0.0,0.0,0.0,0.0,-8.0141,-8.0209,-8.0209,-8.0209,-8.0209,-8.0209,-8.0209,-8.0209,-8.0209,-8.0209,0.0,0.0,0.0,0.0,0.0,0.0,0.0,0.0,0.0,0.0,0.0,0.0,0.0,0.0,0.0,0.0,0.0,0.0,0.0,0.0,0.0,0.0,0.0,0.0,0.0,0.0,0.0,0.0,0.0,0.0,0.0,0.0,0.0,0.0,0.0,0.0,0.0,0.0,0.0,0.0,0.0,0.0,0.0,0.0,0.0,0.0,0.0,0.0,0.0,0.0,0.0,0.0,0.0,0.0,0.0,0.0,0.0,0.0,0.0,0.0,0.0,0.0,0.0,0.0,0.0,0.0,0.0,0.0,0.0,0.0,0.0,0.0,0.0,0.0,0.0,0.0,0.0,0.0,0.0,0.0,0.0,0.0,0.0,0.0,0.0,0.0,0.0,0.0,0.0,0.0,0.0,0.0,0.0,0.0,0.0,0.0,0.0,0.0,0.0,0.0,0.0,0.0,-8.0209,-8.0209,-8.0209,-8.0209,-8.0209,-8.0209,-8.0209,-8.0209,-8.0209,0.0,0.0,0.0,0.0,0.0,0.0,0.0,0.0,0.0,0.0,0.0,0.0,0.0,0.0,0.0,0.0,0.0,0.0,0.0,0.0,0.0,0.0,0.0,0.0,0.0,0.0,0.0,0.0,0.0,0.0,0.0,0.0,0.0,0.0,0.0,0.0,0.0,0.0,0.0,0.0,0.0,0.0,0.0,0.0,0.0,0.0,0.0,0.0,0.0,0.0,0.0,0.0,0.0,0.0,0.0,0.0,0.0,0.0,0.0,0.0,0.0,0.0,0.0,0.0,0.0,0.0,0.0,0.0,0.0,0.0,0.0,0.0,0.0,0.0,0.0,0.0,0.0,0.0,0.0,0.0,0.0,0.0,0.0,0.0,0.0,0.0,0.0,0.0,0.0,0.0,0.0,0.0,0.0,0.0,0.0,0.0,0.0,0.0,0.0,0.0,0.0,0.0,0.0,-8.0209,-8.0209,-8.0209,-8.0209,-8.0209,-8.0209,-8.0209,-8.0209,-8.0412,-8.0919,0.0,0.0,0.0,0.0,0.0,0.0,0.0,0.0,0.0,0.0,0.0,0.0,0.0,0.0,0.0,0.0,0.0,0.0,0.0,0.0,0.0,0.0,0.0,0.0,0.0,0.0,0.0,0.0,0.0,0.0,0.0,0.0,0.0,0.0,0.0,0.0,0.0,0.0,0.0,0.0,0.0,0.0,0.0,0.0,0.0,0.0,0.0,0.0,0.0,0.0,0.0,0.0,0.0,0.0,0.0,0.0,0.0,0.0,0.0,0.0,0.0,0.0,0.0,0.0,0.0,0.0,0.0,0.0,0.0,0.0,0.0,0.0,0.0,0.0,0.0,0.0,0.0,0.0,0.0,0.0,0.0,0.0,0.0,0.0,0.0,0.0,0.0,0.0,0.0,0.0,0.0,0.0,0.0,0.0,0.0,0.0,0.0,0.0,0.0,0.0,0.0,0.0,-8.0209,-8.0209,-8.0209,-8.0209,-8.0445,-8.0648,-8.0648,-8.0919,-8.1257,-8.1697,0.0,0.0,0.0,0.0,0.0,0.0,0.0,0.0,0.0,0.0,0.0,0.0,0.0,0.0,0.0,0.0,0.0,0.0,0.0,0.0,0.0,0.0,0.0,0.0,0.0,0.0,0.0,0.0,0.0,0.0,0.0,0.0,0.0,0.0,0.0,0.0,0.0,0.0,0.0,0.0,0.0,0.0,0.0,0.0,0.0,0.0,0.0,0.0,0.0,0.0,0.0,0.0,0.0,0.0,0.0,0.0,0.0,0.0,0.0,0.0,0.0,0.0,0.0,0.0,0.0,0.0,0.0,0.0,0.0,0.0,0.0,0.0,0.0,0.0,0.0,0.0,0.0,0.0,0.0,0.0,0.0,0.0,0.0,0.0,0.0,0.0,0.0,0.0,0.0,0.0,0.0,0.0,0.0,0.0,0.0,0.0,0.0,0.0,0.0,0.0,0.0,0.0,-8.0378,-8.0344,-8.031,-8.0412,-8.0987,-8.1393,-8.1393,-8.2035,-8.2441,-8.2509,0.0,0.0,0.0,0.0,0.0,0.0,0.0,0.0,0.0,0.0,0.0,0.0,0.0,0.0,0.0,0.0,0.0,0.0,0.0,0.0,0.0,0.0,0.0,0.0,0.0,0.0,0.0,0.0,0.0,0.0,0.0,0.0,0.0,0.0,0.0,0.0,0.0,0.0,0.0,0.0,0.0,0.0,0.0,0.0,0.0,0.0,0.0,0.0,0.0,0.0,0.0,0.0,0.0,0.0,0.0,0.0,0.0,0.0,0.0,0.0,-8.1337,-8.0404,0.0,0.0,0.0,0.0,0.0,0.0,0.0,0.0,0.0,0.0,0.0,0.0,0.0,0.0,0.0,0.0,0.0,0.0,0.0,0.0,0.0,0.0,0.0,0.0,0.0,0.0,0.0,0.0,0.0,0.0,0.0,0.0,0.0,0.0,0.0,0.0,0.0,0.0,0.0,0.0,-8.1799,-8.1426,-8.1291,-8.1866,-8.2069,-8.2171,-8.2171,-8.2306,-8.2644,-8.3219,-8.2746,0.0,0.0,0.0,0.0,0.0,0.0,0.0,0.0,0.0,0.0,0.0,0.0,0.0,0.0,0.0,0.0,0.0,0.0,0.0,0.0,0.0,0.0,0.0,0.0,0.0,0.0,0.0,0.0,0.0,0.0,0.0,0.0,0.0,0.0,0.0,0.0,0.0,0.0,0.0,0.0,0.0,0.0,0.0,0.0,0.0,0.0,0.0,0.0,0.0,0.0,0.0,0.0,0.0,0.0,0.0,0.0,0.0,0.0,0.0,-8.1952,-8.1542,0.0,0.0,0.0,0.0,0.0,0.0,0.0,0.0,0.0,0.0,0.0,0.0,0.0,0.0,0.0,0.0,0.0,0.0,0.0,0.0,0.0,0.0,0.0,0.0,0.0,0.0,0.0,0.0,0.0,0.0,0.0,0.0,0.0,0.0,0.0,0.0,0.0,0.0,0.0,0.0,-8.2306,-8.2069,-8.1968,-8.2374,-8.2712,-8.2949,-8.2949,-8.3253,-8.3625,-8.3998,-8.3693,0.0,0.0,0.0,0.0,0.0,0.0,0.0,0.0,0.0,0.0,0.0,0.0,0.0,0.0,0.0,0.0,0.0,0.0,0.0,0.0,0.0,0.0,0.0,0.0,0.0,0.0,0.0,0.0,0.0,0.0,0.0,0.0,0.0,0.0,0.0,0.0,0.0,0.0,0.0,0.0,0.0,0.0,0.0,0.0,0.0,0.0,0.0,0.0,0.0,0.0,0.0,0.0,0.0,-8.2186,-8.2186,-8.2186,-8.2186,-8.1788,-8.1128,-8.2001,-8.2231,-8.1952,-8.2121,0.0,0.0,0.0,0.0,0.0,0.0,0.0,0.0,0.0,0.0,0.0,0.0,0.0,0.0,0.0,0.0,0.0,0.0,0.0,0.0,0.0,0.0,-8.384,-8.4227,-8.3987,-8.378,-8.4217,0.0,0.0,0.0,0.0,0.0,0.0,0.0,0.0,0.0,0.0,0.0,-8.278,-8.2678,-8.2644,-8.278,-8.3321,-8.3693,-8.3693,-8.4268,-8.464,-8.464,-8.464,-8.464,0.0,0.0,0.0,0.0,0.0,0.0,0.0,0.0,0.0,0.0,0.0,0.0,0.0,0.0,0.0,0.0,0.0,0.0,0.0,0.0,0.0,0.0,0.0,0.0,0.0,0.0,0.0,0.0,0.0,0.0,0.0,0.0,-7.7304,-7.7304,0.0,0.0,0.0,0.0,0.0,0.0,0.0,0.0,0.0,0.0,0.0,0.0,0.0,-8.1232,-8.2039,-8.2039,-8.2113,-8.2186,-8.2186,-8.2186,-8.2186,-8.2186,-8.2488,-8.3014,-8.3184,0.0,-8.0911,-8.1818,0.0,0.0,0.0,0.0,0.0,0.0,0.0,0.0,0.0,0.0,0.0,0.0,0.0,0.0,0.0,0.0,0.0,0.0,0.0,0.0,0.0,0.0,-8.2664,-8.4708,-8.438,-8.3922,-8.4901,-8.4299,-8.3839,-8.4852,-8.4006,-8.305,0.0,0.0,0.0,0.0,0.0,0.0,-8.4167,-8.3761,-8.3592,-8.4268,-8.4437,-8.4471,-8.4471,-8.4573,-8.464,-8.464,-8.464,-8.464,-8.464,-8.4539,0.0,0.0,0.0,0.0,0.0,0.0,0.0,0.0,0.0,0.0,0.0,0.0,0.0,0.0,0.0,0.0,0.0,0.0,0.0,0.0,0.0,0.0,0.0,0.0,0.0,0.0,0.0,0.0,0.0,-7.7304,-7.7304,-7.7304,-7.7304,-7.7304,0.0,0.0,0.0,0.0,0.0,0.0,0.0,0.0,0.0,-8.0975,-8.1452,-8.1819,-8.2186,-8.2186,-8.2186,-8.2186,-8.2663,-8.2884,-8.2884,-8.3324,-8.3728,-8.4058,-8.4058,-8.3636,-8.2892,-8.3374,-8.3544,-8.3544,0.0,0.0,0.0,0.0,-8.4315,-8.4609,-8.4609,-8.4609,-8.4609,-8.4609,0.0,0.0,0.0,0.0,0.0,0.0,0.0,-8.5185,-8.6065,-8.5544,-8.4888,-8.5201,-8.4967,-8.464,-8.4906,-8.4598,-8.4258,-8.4086,-8.3403,-8.2852,-8.2642,-8.2952,0.0,0.0,0.0,-8.3896,-8.4539,-8.4336,-8.4268,-8.4606,-8.464,-8.464,-8.464,-8.464,-8.464,-8.464,-8.464,-8.464,-8.464,-8.464,-8.464,0.0,0.0,0.0,0.0,0.0,0.0,0.0,0.0,0.0,0.0,0.0,0.0,0.0,0.0,0.0,0.0,0.0,0.0,0.0,0.0,0.0,0.0,0.0,0.0,0.0,0.0,0.0,0.0,-7.7304,-7.7304,-7.7304,-7.7304,-7.7304,0.0,0.0,0.0,0.0,0.0,0.0,-7.9176,-8.0351,-8.1085,-8.1305,-8.1893,-8.2186,-8.2186,-8.2186,-8.2296,-8.2517,-8.3104,-8.3508,-8.3728,-8.4352,-8.4719,-8.4903,-8.4903,-8.5013,-8.5196,-8.4756,-8.4609,-8.4609,-8.4609,-8.4719,-8.4903,-8.4903,-8.5049,-8.5233,-8.5233,-8.5233,-8.5233,-8.5233,-8.5233,-8.5343,-8.593,0.0,0.0,0.0,0.0,-8.6642,-8.6925,-8.6932,-8.672,-8.6171,-8.6014,-8.588,-8.5857,-8.5642,-8.5023,-8.3983,-8.3237,-8.2922,-8.3092,-8.3327,0.0,-8.3761,-8.4268,-8.464,-8.464,-8.464,-8.464,-8.464,-8.464,-8.464,-8.464,-8.464,-8.464,-8.464,-8.464,-8.464,-8.464,-8.464,-8.464,-8.464,0.0,0.0,0.0,0.0,0.0,0.0,0.0,0.0,0.0,0.0,0.0,0.0,0.0,0.0,0.0,0.0,0.0,0.0,0.0,0.0,0.0,0.0,0.0,0.0,0.0,0.0,0.0,0.0,0.0,-7.7304,-7.7304,0.0,0.0,0.0,0.0,-7.8479,-7.8589,-7.9286,-8.0791,-8.0975,-8.1342,-8.2113,-8.2186,-8.2186,-8.2186,-8.2186,-8.259,-8.3361,-8.3398,-8.3801,-8.4535,-8.4572,-8.5013,-8.5747,-8.5747,-8.6151,-8.6775,-8.5233,-8.4609,-8.4609,-8.4609,-8.5086,-8.5747,-8.5747,-8.6224,-8.6885,-8.6885,-8.6885,-8.6885,-8.6885,-8.6885,-8.6885,-8.6921,-8.6995,0.0,0.0,-8.6247,-8.5619,-8.6749,-8.672,-8.6778,-8.7813,-8.7774,-8.7901,-8.8911,-8.8005,-8.6736,-8.5905,-8.4844,-8.4308,-8.5035,0.0,-8.3727,-8.4471,-8.4606,-8.464,-8.464,-8.464,-8.464,-8.464,-8.464,-8.464,-8.464,-8.464,-8.464,-8.464,-8.464,-8.464,-8.464,-8.464,-8.464,-8.464,-8.464,0.0,0.0,0.0,0.0,0.0,0.0,0.0,0.0,0.0,0.0,0.0,0.0,0.0,0.0,0.0,0.0,0.0,0.0,0.0,0.0,0.0,0.0,0.0,0.0,0.0,0.0,0.0,0.0,-7.7304,-7.7304,0.0,-7.7304,-7.7818,-7.8259,-7.8589,-7.9543,-8.0388,-8.0975,-8.1489,-8.1893,-8.2186,-8.2186,-8.2443,-8.2994,-8.2994,-8.3398,-8.4168,-8.4682,-8.5086,-8.538,-8.593,-8.6297,-8.6591,-8.6591,-8.6738,-8.6958,-8.6407,-8.6151,-8.6151,-8.6151,-8.6334,-8.6591,-8.6591,-8.6775,-8.6995,-8.6995,-8.6995,-8.6995,-8.6995,-8.6995,-8.6995,-8.6995,-8.7362,-8.7766,-8.7766,-8.7884,-8.8034,-8.8466,-8.8435,-8.8472,-8.8906,-8.8874,-8.8836,-8.9007,-8.9144,-8.9162,-8.8696,-8.7586,-8.6604,-8.6061,-8.5639,-8.5207,-8.4679,-8.464,-8.464,-8.464,-8.464,-8.464,-8.464,-8.464,-8.464,-8.464,-8.464,-8.464,-8.464,-8.464,-8.464,-8.464,-8.464,-8.464,-8.464,-8.464,-8.464,0.0,0.0,0.0,0.0,0.0,0.0,0.0,0.0,0.0,0.0,0.0,0.0,0.0,0.0,0.0,0.0,0.0,0.0,0.0,0.0,0.0,0.0,0.0,0.0,0.0,-7.7304,-7.7304,-7.7304,-7.7304,-7.7304,-7.7304,-7.8112,-7.8699,-7.8993,-8.0241,-8.1122,-8.1379,-8.1893,-8.2186,-8.2186,-8.2443,-8.2884,-8.3398,-8.3691,-8.4205,-8.5013,-8.5527,-8.593,-8.6224,-8.6775,-8.6995,-8.6995,-8.6995,-8.6995,-8.6995,-8.6995,-8.6995,-8.6995,-8.6995,-8.6995,-8.6995,-8.6995,-8.6995,-8.6995,-8.6995,-8.7178,-8.7399,-8.7399,-8.7582,-8.7839,-8.7839,-8.8206,-8.861,-8.861,-8.9014,-8.9417,-8.9417,-8.9601,-8.9821,-8.9821,-9.0005,-9.0118,-8.9884,-9.0445,-9.0924,-9.0643,-8.9641,-8.8579,-8.7769,-8.7305,-8.661,-8.5447,-8.524,-8.5066,-8.4606,-8.464,-8.464,-8.464,-8.464,-8.464,-8.464,-8.464,-8.464,-8.464,-8.464,-8.464,-8.464,-8.464,-8.464,-8.464,-8.464,-8.464,-8.464,0.0,0.0,0.0,0.0,0.0,0.0,0.0,0.0,0.0,0.0,0.0,0.0,0.0,0.0,0.0,0.0,0.0,0.0,0.0,0.0,0.0,0.0,0.0,-7.7304,-7.7304,-7.7304,-7.7304,-7.7304,-7.7341,-7.7378,-7.8148,-7.8956,-7.9764,-8.0571,-8.1379,-8.215,-8.2186,-8.2186,-8.2223,-8.2994,-8.3434,-8.3471,-8.4242,-8.5049,-8.582,-8.582,-8.6261,-8.6995,-8.6995,-8.6995,-8.6995,-8.6995,-8.6995,-8.6995,-8.6995,-8.7031,-8.7031,-8.7031,-8.6995,-8.6995,-8.7031,-8.7068,-8.7068,-8.7068,-8.7582,-8.8243,-8.8243,-8.8757,-8.9417,-8.9417,-8.9454,-8.9454,-8.9454,-8.9491,-8.9491,-8.9491,-9.0078,-9.0629,-9.0629,-9.1216,-9.1803,-9.1803,-9.1803,-9.1803,-9.1803,-9.083,-9.0006,-9.0006,-8.9014,-8.7769,-8.6575,-8.6414,0.0,-8.4713,-8.464,-8.464,-8.464,-8.464,-8.464,-8.464,-8.464,-8.464,-8.4674,-8.4674,-8.4674,-8.4708,-8.4708,-8.4708,-8.4708,-8.4708,-8.4708,-8.4708,0.0,0.0,0.0,0.0,0.0,0.0,0.0,0.0,0.0,0.0,0.0,0.0,0.0,0.0,0.0,0.0,0.0,0.0,0.0,0.0,0.0,-7.8108,-7.7304,-7.7304,-7.7304,-7.7304,-7.7304,-7.7304,-7.7561,-7.8185,-7.8993,-7.98,-8.0608,-8.1415,-8.1966,-8.2186,-8.2186,-8.248,-8.3067,-8.3287,-8.3985,-8.5123,-8.5343,-8.5857,-8.6664,-8.6664,-8.6811,-8.6995,-8.6995,-8.6995,-8.6995,-8.6995,-8.6995,-8.6995,-8.6995,-8.7362,-8.7802,-8.7252,-8.6995,-8.7068,-8.7655,-8.8243,-8.8757,-8.8757,-8.8904,-8.9087,-8.9087,-8.9234,-8.9417,-8.9417,-8.9821,-9.0298,-9.0298,-9.0702,-9.1143,-9.1143,-9.1289,-9.1473,-9.1473,-9.1657,-9.1803,-9.1803,-9.1803,-9.1803,-9.1803,-9.1509,-9.0984,-9.0168,-8.9014,-8.7769,-8.6575,-8.5719,-8.4995,-8.4606,-8.464,-8.464,-8.464,-8.464,-8.464,-8.464,-8.464,-8.4877,-8.5418,-8.5452,-8.5723,-8.6264,-8.6298,-8.6298,-8.6298,-8.6298,-8.6298,0.0,0.0,0.0,0.0,0.0,0.0,0.0,0.0,0.0,0.0,0.0,0.0,0.0,0.0,0.0,0.0,0.0,0.0,0.0,0.0,0.0,0.0,-7.8288,-7.7426,-7.7651,-7.745,-7.7304,-7.7304,-7.7635,-7.8038,-7.8552,-7.9617,-8.0498,-8.0975,-8.1746,-8.2186,-8.2186,-8.2517,-8.292,-8.3398,-8.4058,-8.4866,-8.5783,-8.6114,-8.6554,-8.6995,-8.6995,-8.6995,-8.6995,-8.6995,-8.6995,-8.7031,-8.7362,-8.7509,-8.7545,-8.7876,-8.828,-8.861,0.0,0.0,0.0,0.0,-8.9014,-8.9417,-8.9417,-8.9638,-8.9931,-8.9931,-9.0152,-9.0408,-9.0408,-9.0739,-9.1106,-9.1106,-9.1436,-9.1803,-9.1803,-9.1803,-9.1803,-9.1803,-9.1803,-9.1803,-9.1803,-9.1803,-9.1803,-9.1803,-9.1803,0.0,-9.0907,-9.0168,-8.9306,-8.8133,-8.7305,-8.6512,-8.5515,-8.5344,-8.5307,-8.5187,-8.5114,-8.5249,-8.5554,-8.5587,0.0,0.0,0.0,-8.6467,-8.6907,-8.6907,0.0,0.0,0.0,-8.6907,-8.6907,-8.6907,0.0,0.0,-8.5587,-8.5587,0.0,0.0,0.0,0.0,0.0,0.0,0.0,0.0,0.0,0.0,0.0,0.0,0.0,0.0,0.0,0.0,-7.8565,-7.7629,-7.82,-7.771,-7.7304,-7.7304,-7.8075,-7.8626,-7.8736,-8.0094,-8.1048,-8.1122,-8.1782,-8.2186,-8.2186,-8.2957,0.0,0.0,0.0,-8.582,-8.593,-8.6628,-8.6995,-8.6995,-8.6995,-8.6995,-8.6995,-8.6995,-8.7068,-8.7178,-8.7876,-8.8243,-8.839,-8.9124,-8.9454,-8.9491,-8.8647,-8.883,-8.9564,-8.9564,-8.9601,-8.9674,-8.9674,0.0,0.0,-9.0739,-9.1216,-9.1803,-9.1803,-9.1803,-9.1803,-9.1803,-9.1803,-9.1803,-9.1803,-9.1803,-9.1803,-9.1803,-9.1803,-9.1803,-9.1803,-9.1803,-9.1803,-9.1803,-9.1803,-9.184,-9.1913,-9.1767,-9.1249,-9.0168,-8.9996,-8.9157,-8.7004,-8.6755,-8.6639,-8.6397,-8.6107,0.0,-8.7023,-8.7016,-8.6941,-8.7042,-8.711,-8.7144,-8.7144,-8.7144,-8.7144,-8.7144,-8.7144,-8.7144,-8.7144,-8.7144,-8.7144,-8.7144,-8.6974,-8.6907,0.0,0.0,0.0,0.0,0.0,0.0,0.0,0.0,0.0,0.0,0.0,0.0,0.0,0.0,0.0,-8.0048,-7.8962,-7.8146,-7.8309,-7.771,-7.7304,-7.7304,-7.8075,-7.8846,-7.9507,-8.0424,-8.1269,-8.1929,-8.2113,-8.2186,-8.2186,-8.2957,-8.3728,-8.4352,-8.5306,-8.6114,-8.6775,-8.6921,-8.6995,-8.6995,-8.6995,0.0,-8.6995,-8.6995,-8.7362,-8.7986,-8.8133,-8.8573,-8.9197,-8.9344,-8.9784,-9.0298,-8.9491,-8.9674,-9.0372,-9.0372,-9.0776,-9.1326,-9.1326,-9.1436,-9.1583,-9.1583,-9.1657,-9.1803,-9.1803,-9.1803,0.0,-9.1803,-9.1803,-9.1803,-9.1803,-9.1803,-9.1803,-9.1803,-9.1803,-9.1803,-9.1803,-9.1803,-9.1803,-9.1803,-9.1803,-9.2024,-9.2721,-9.1458,-9.0284,-9.0006,-8.9758,-8.9395,-8.894,-8.8558,-8.8718,-8.9598,-8.7882,-8.7103,-8.8364,-8.7454,-8.7144,-8.7753,-8.8328,-8.8666,-8.8666,-8.8666,-8.8666,-8.8666,-8.8666,-8.8666,-8.8666,-8.8666,-8.8666,-8.8632,-8.7448,-8.6907,0.0,0.0,0.0,0.0,0.0,0.0,0.0,0.0,0.0,0.0,0.0,-8.1093,-8.1093,0.0,-8.0201,-8.0573,-7.9551,-7.8754,-7.8754,-7.8535,-7.8278,-7.8027,-7.8699,-7.9507,-8.0314,-8.1122,-8.1782,-8.215,-8.2186,-8.237,-8.2774,-8.3581,-8.4389,-8.5159,-8.5967,-8.6591,-8.6995,-8.6995,-8.6995,-8.6995,-8.6995,-8.7215,-8.7619,-8.7619,-8.8059,-8.883,-8.9234,-8.9638,-9.0041,-9.0445,-9.0849,-9.1179,-9.0776,-9.0849,-9.1216,-9.1216,-9.1436,-9.1803,-9.1803,-9.1803,-9.1803,-9.1803,-9.1803,-9.1803,-9.1803,-9.1803,-9.1803,-9.1803,-9.1803,-9.1803,-9.1803,-9.1803,-9.1803,-9.1803,-9.1803,-9.1803,-9.1803,-9.2134,-9.2464,-9.2464,-9.2794,-9.3198,-9.3639,-9.2859,-9.2145,-9.2145,-9.2038,-9.168,-9.1046,-9.0837,-9.0829,-9.1219,-8.9492,-8.881,-8.9844,-8.876,-8.8158,-8.8531,-8.8869,-8.9072,-8.9072,-8.9072,-8.9072,-8.9072,-8.9072,-8.9072,-8.9072,-8.9072,-8.9072,-8.9072,-8.8328,-8.7989,0.0,0.0,0.0,0.0,0.0,0.0,0.0,-8.1093,-8.1093,-8.1093,-8.1093,-8.1093,-8.1093,-8.0643,-8.0463,-8.0991,-8.0125,-7.9335,-7.9198,-7.9365,-7.9334,-7.8897,-7.9543,-8.0277,-8.0938,-8.1746,-8.2186,-8.2186,-8.2186,-8.2553,-8.3361,-8.4168,-8.4976,-8.5747,-8.6591,-8.6995,-8.6995,-8.6995,-8.6995,-8.6995,-8.7178,-8.7582,-8.8206,-8.8353,-8.8867,-8.9711,-9.0482,-9.0849,-9.0886,-9.1546,-9.1803,-9.1803,-9.1803,-9.1803,-9.1803,-9.1803,-9.1803,-9.1803,-9.1803,-9.1803,-9.1803,-9.1803,-9.1803,-9.1803,-9.1803,-9.1803,-9.1803,-9.1803,-9.1803,-9.1803,-9.1803,-9.1803,-9.184,-9.2024,-9.206,-9.2097,-9.2244,-9.2831,-9.3345,-9.3345,-9.3859,-9.4336,-9.452,-9.452,-9.4483,-9.4299,-9.441,-9.4179,-9.3244,-9.2988,-9.2891,-9.2764,-9.1407,-9.06,-9.0953,-8.9853,-8.9072,-8.9072,-8.9072,-8.9072,-8.9072,-8.9072,-8.9072,-8.9072,-8.9072,-8.9072,-8.9072,-8.9072,-8.9072,-8.9072,-8.9072,-8.9072,-8.1176,-8.1093,-8.1093,-8.1093,-8.1093,-8.1093,0.0,-8.1093,-8.1093,-8.1093,-8.1093,-8.1093,-8.1093,-8.1061,-8.0991,-8.1093,-8.0463,-7.9806,-7.929,-7.9365,-7.9557,-7.9669,-8.0388,-8.0901,-8.1012,-8.1746,-8.2186,-8.2186,-8.2186,-8.2553,-8.3361,-8.4168,-8.4976,-8.5747,-8.6591,-8.6995,-8.6995,-8.6995,-8.6995,-8.7031,-8.7729,-8.8096,-8.8206,-8.894,-8.9711,-9.0519,-9.1326,-9.1657,-9.1657,-9.1767,-9.1803,-9.1803,-9.1803,-9.1803,-9.1803,-9.1803,-9.1803,-9.1803,-9.1803,-9.1803,-9.1803,-9.1803,-9.1803,-9.1803,-9.1803,-9.1803,-9.1803,-9.1803,-9.1803,-9.1803,-9.1803,-9.1803,-9.1987,-9.2758,-9.2941,-9.3161,-9.3859,-9.4079,-9.4153,-9.4153,-9.4226,-9.452,-9.5254,-9.5364,-9.5144,-9.441,-9.4923,-9.5288,-9.5175,-9.4777,-9.4964,-9.6076,-9.398,-9.2154,-9.1091,-8.9853,-8.9072,-8.9072,-8.9072,-8.9072,-8.9072,-8.9072,-8.9072,-8.9072,-8.9072,-8.9072,-8.9072,-8.9072,-8.9072,-8.9072,-8.9072,-8.9072,-8.1196,-8.1093,-8.1093,-8.1093,-8.1093,-8.1093,-8.1093,-8.1093,-8.1093,-8.1093,-8.1093,-8.1093,-8.1093,-8.1093,-8.1093,-8.1093,-8.0855,-8.0616,-8.0494,-8.0953,-8.1257,-8.1058,-8.1793,-8.2166,-8.1737,-8.2003,-8.2186,-8.2186,-8.2627,-8.3251,-8.4058,-8.4866,-8.5673,-8.6481,-8.6811,-8.6995,-8.6995,-8.6995,-8.6995,-8.7031,-8.7839,-8.8463,-8.894,-8.9748,-9.0555,-9.1326,-9.1657,-9.1803,-9.1803,-9.1803,-9.1803,-9.1803,-9.1803,-9.1803,-9.1803,-9.1803,-9.1803,-9.1803,-9.1803,-9.1803,-9.1803,-9.1803,-9.1803,-9.1803,-9.1803,-9.1803,-9.1803,-9.1803,-9.217,-9.2574,-9.2574,-9.2905,-9.3345,-9.3712,-9.3786,-9.3896,-9.4226,-9.4666,-9.4997,-9.4997,-9.5364,-9.5804,-9.6135,-9.6208,-9.6098,-9.5731,-9.5988,-9.6208,-9.6208,-9.604,-9.5866,-9.5668,-9.3945,-9.2418,-9.1091,-8.9853,-8.9072,-8.9072,-8.9072,-8.9072,-8.9072,-8.9072,-8.9072,-8.9072,-8.9072,-8.9072,-8.9072,-8.9072,-8.9072,-8.9072,-8.9072,-8.9072,-8.1196,-8.1093,-8.1093,-8.1093,-8.1093,-8.1093,-8.1093,-8.1093,-8.1093,-8.1093,-8.1093,-8.1093,-8.1093,-8.1093,-8.1093,-8.1093,-8.1093,-8.1162,-8.1385,-8.2108,-8.245,-8.2015,-8.2705,-8.2935,-8.2251,-8.2186,-8.2186,-8.2186,-8.2957,-8.3765,-8.4572,-8.5343,-8.6151,-8.6995,-8.6995,-8.6995,-8.6995,-8.6995,-8.7105,-8.7362,-8.8169,-8.894,-8.9784,-9.0555,-9.1253,-9.1803,-9.1803,-9.1803,-9.1803,-9.1803,-9.1803,-9.1803,-9.1803,-9.1803,-9.1803,-9.1803,-9.1803,-9.1803,-9.1803,-9.1803,-9.1803,-9.1803,-9.1803,-9.184,-9.2097,-9.217,-9.2207,-9.2427,-9.2941,-9.3418,-9.3418,-9.3859,-9.4336,-9.4593,-9.463,-9.4703,-9.4923,-9.5437,-9.5841,-9.5804,-9.6282,-9.6685,-9.6685,-9.6685,-9.6685,-9.6685,-9.6685,-9.6685,-9.6685,-9.6685,-9.6338,-9.5384,-9.4123,-9.3084,-9.2161,-9.0919,-9.0143,-9.0143,-9.0143,-8.9928,-8.9669,-8.9669,-8.9483,-8.9072,-8.9072,-8.9072,-8.9072,-8.9072,-8.9072,-8.9072,-8.9072,-8.9072,-8.1176,-8.1093,-8.1093,-8.1093,-8.1093,-8.1093,-8.1093,-8.1093,-8.1093,-8.1093,-8.1093,-8.1093,-8.1093,-8.1093,-8.1093,-8.1093,-8.1093,-8.1162,-8.1385,-8.2108,-8.245,-8.2015,-8.2705,-8.2935,-8.2251,-8.2186,-8.2186,-8.2186,-8.2957,-8.3765,-8.4572,-8.5343,-8.6151,-8.6995,-8.6995,-8.6995,-8.6995,-8.6995,-8.7399,-8.8169,-8.8977,-8.9784,-9.0592,-9.14,-9.1767,-9.1803,-9.1803,-9.1803,-9.1803,-9.1803,-9.1803,-9.1803,-9.1803,-9.1803,-9.1803,-9.1803,-9.1803,-9.1803,-9.1803,-9.1803,-9.1803,-9.1803,-9.1803,-9.195,-9.2794,-9.3051,-9.3235,-9.4006,-9.4226,-9.4263,-9.4263,-9.4263,-9.4483,-9.529,-9.5474,-9.5694,-9.6465,-9.6649,-9.6649,-9.6649,-9.6685,-9.6685,-9.6685,-9.6685,-9.6685,-9.6685,-9.6685,-9.6685,-9.6685,-9.6685,-9.6685,-9.6608,-9.5467,-9.472,-9.472,-9.3547,-9.2802,-9.2802,-9.2802,-9.2224,-9.1022,-9.0919,-9.0323,-8.9072,-8.9072,-8.9072,-8.9072,-8.9072,-8.9072,-8.9072,-8.9072,-8.9072,-8.1335,-8.1224,-8.1093,-8.1093,-8.1093,-8.1093,-8.1093,-8.1093,-8.1093,-8.1093,-8.1093,-8.1093,-8.1093,-8.1093,-8.1093,-8.1093,-8.1554,-8.2106,-8.2779,-8.3588,-8.4098,-8.4074,-8.3941,-8.3597,-8.2935,-8.2434,-8.2406,-8.2957,-8.3765,-8.4535,-8.5343,-8.6151,-8.6738,-8.6995,-8.6995,-8.6995,-8.6995,-8.7545,-8.7949,-8.8206,-8.9564,-9.0629,-9.14,-9.1693,-9.1803,-9.1803,-9.1803,-9.1803,-9.1803,-9.1803,-9.1803,-9.1803,-9.1803,-9.1803,-9.1803,-9.1803,-9.1803,-9.1803,-9.1803,-9.1803,-9.1913,-9.2464,-9.2648,-9.2831,-9.3639,-9.3896,-9.3932,-9.4226,-9.4666,-9.5107,-9.5107,-9.5474,-9.5951,-9.6245,-9.6318,-9.6392,-9.6649,-9.6685,-9.6685,-9.6685,-9.6685,-9.6685,-9.6685,-9.6685,-9.6685,-9.6685,-9.6685,-9.6685,-9.6685,-9.6685,-9.6685,-9.6685,-9.5549,-9.4806,-9.4806,-9.3674,-9.2896,-9.2896,-9.2896,-9.2706,-9.2224,-9.1499,-9.0815,-9.0323,-8.9559,-8.9072,-8.9072,-8.9072,-8.9072,-8.9072,-8.9072,-8.9072,-8.148,-8.1335,-8.1311,-8.1214,-8.1186,-8.1196,-8.1124,-8.1093,-8.1093,-8.1093,-8.1093,-8.1093,-8.1093,-8.1093,-8.1093,-8.1093,-8.1785,-8.2593,-8.3478,-8.4362,-8.4963,-8.5047,-8.456,-8.3928,-8.3246,-8.2585,-8.2517,-8.3361,-8.4168,-8.4939,-8.5747,-8.6554,-8.6995,-8.6995,-8.6995,-8.6995,-8.6995,-8.7802,-8.85,-8.9087,-9.0408,-9.1289,-9.1803,-9.1803,-9.1803,-9.1803,-9.1803,-9.1803,-9.1803,-9.1803,-9.1803,-9.1803,-9.1803,-9.1803,-9.1803,-9.1803,-9.1987,-9.2244,-9.2244,-9.2244,-9.2391,-9.3235,-9.3529,-9.3675,-9.4483,-9.474,-9.4777,-9.507,-9.5547,-9.5951,-9.5951,-9.6318,-9.6685,-9.6685,-9.6685,-9.6685,-9.6685,-9.6685,-9.6685,-9.6685,-9.6685,-9.6685,-9.6685,-9.6685,-9.6685,-9.6685,-9.6685,-9.6685,-9.6685,-9.6685,-9.6685,-9.6685,-9.5947,-9.5467,-9.5467,-9.472,-9.4212,-9.4212,-9.4212,-9.4034,-9.3583,-9.2802,-9.1964,-9.1022,-9.0605,-9.0216,-8.9744,-8.9744,-8.9744,-8.9744,-8.9261,-8.9072,-8.1524,-8.1563,-8.1631,-8.1458,-8.143,-8.1374,-8.1176,-8.1124,-8.1093,-8.1093,-8.1093,-8.1093,-8.1093,-8.1093,-8.1093,-8.1131,-8.1823,-8.267,-8.3516,-8.4401,-8.5001,-8.5126,-8.4605,-8.4016,-8.3303,-8.2647,-8.2619,-8.3398,-8.4168,-8.4976,-8.582,-8.6591,-8.6995,-8.6995,-8.6995,-8.6995,-8.6995,-8.7839,-8.9087,-9.0665,-9.1436,-9.1803,-9.1803,-9.1803,-9.1803,-9.1803,-9.1803,-9.1803,-9.1803,-9.1803,-9.1803,-9.1803,-9.1803,-9.1803,-9.1803,-9.184,-9.2391,-9.3125,-9.3198,-9.3198,-9.3308,-9.4079,-9.4373,-9.452,-9.5327,-9.5584,-9.5731,-9.6502,-9.6685,-9.6685,-9.6685,-9.6685,-9.6685,-9.6685,-9.6685,-9.6685,-9.6685,-9.6685,-9.6685,-9.6685,-9.6685,-9.6685,-9.6685,-9.6685,-9.6685,-9.6685,-9.6685,-9.6685,-9.6685,-9.6685,-9.6685,-9.6685,-9.6685,-9.6685,-9.6685,-9.6685,-9.6685,-9.6685,-9.6685,-9.6143,-9.4927,-9.4806,-9.3674,-9.1194,-9.2321,-9.2321,-9.1091,-9.1091,-9.1091,-9.1022,-8.9744,-8.9184,-8.1878,-8.1792,-8.1664,-8.1653,-8.1504,-8.1383,-8.1349,-8.1186,-8.1093,-8.1093,-8.1093,-8.1093,-8.1093,-8.1093,-8.1285,-8.19,-8.2708,-8.3555,-8.4439,-8.5286,-8.5829,-8.5846,-8.528,-8.4651,-8.3979,-8.3359,-8.3325,-8.4235,-8.4499,-8.5233,-8.6628,-8.6885,-8.6995,-8.6995,-8.6995,-8.6995,-8.6995,-8.839,-8.9895,-9.151,-9.1693,-9.1803,-9.1803,-9.1803,-9.1803,-9.1803,-9.1803,-9.1803,-9.1803,-9.1803,-9.1803,-9.1803,-9.1803,-9.1803,-9.1877,-9.2537,-9.2905,-9.3272,-9.4483,-9.452,-9.4116,-9.4923,-9.518,-9.5364,-9.6171,-9.6392,-9.6428,-9.6649,-9.6685,-9.6685,-9.6685,-9.6685,-9.6685,-9.6685,-9.6685,-9.6685,-9.6685,-9.6685,-9.6685,-9.6685,-9.6685,-9.6685,-9.6685,-9.6685,-9.6685,-9.6685,-9.6685,-9.6685,-9.6685,-9.6685,-9.6685,-9.6685,-9.6685,-9.6685,-9.6685,-9.6685,-9.6685,-9.6685,-9.6685,-9.6531,-9.6223,-9.5265,-9.4511,-9.3855,-9.3178,-9.2706,-9.2418,-9.2418,-9.1964,-9.1022,-9.064,-9.0535,-8.2007,-8.1984,-8.1919,-8.1855,-8.1664,-8.1483,-8.1391,-8.1231,-8.1093,-8.1093,-8.1093,-8.1093,-8.1093,-8.1093,-8.1362,-8.217,-8.3016,-8.3901,-8.4786,-8.5593,-8.6094,-8.6094,-8.5514,-8.4872,-8.4276,-8.3934,-8.3952,-8.4566,-8.4609,-8.5306,-8.6921,-8.6995,-8.6995,-8.6995,-8.6995,-8.7362,-8.8059,-8.8977,-9.0225,-9.1803,-9.1803,-9.1803,-9.1803,-9.1803,-9.1803,-9.1803,-9.1803,-9.1803,-9.1803,-9.1803,-9.1803,-9.1803,-9.1803,-9.2024,-9.2427,-9.2941,-9.3565,-9.4299,-9.5217,-9.5437,-9.5437,-9.5878,-9.6025,-9.6098,-9.6575,-9.6685,-9.6685,-9.6685,-9.6685,-9.6685,-9.6685,-9.6685,-9.6685,-9.6685,-9.6685,-9.6685,-9.6685,-9.6685,-9.6685,-9.6685,-9.6685,-9.6685,-9.6685,-9.6685,-9.6685,-9.6685,-9.6685,-9.6685,-9.6685,-9.6685,-9.6685,-9.6685,-9.6685,-9.6685,-9.6685,-9.6685,-9.6685,-9.6685,-9.6685,-9.6685,-9.6685,-9.6027,-9.5384,-9.4806,-9.4597,-9.43,-9.3765,-9.3765,-9.3399,-9.2611,-9.2028,-9.1865,-8.211,-8.2171,-8.2264,-8.2065,-8.1889,-8.1703,-8.1501,-8.1285,-8.1116,-8.1093,-8.1093,-8.1093,-8.1093,-8.1208,-8.1516,-8.2324,-8.3208,-8.4055,-8.4939,-8.567,-8.6094,-8.6094,-8.5589,-8.4957,-8.4372,-8.4417,-8.4614,-8.4764,-8.4749,-8.5416,-8.6921,-8.6995,-8.6995,-8.6995,-8.7105,-8.7876,-8.9417,-8.9528,-9.0335,-9.1803,-9.1803,-9.1803,-9.1803,-9.1803,-9.1803,-9.1803,-9.1803,-9.1803,-9.1803,-9.1803,-9.1803,-9.1803,-9.1803,-9.2317,-9.3125,-9.3235,-9.4226,-9.5547,-9.5621,-9.6135,-9.6685,-9.6685,-9.6685,-9.6685,-9.6685,-9.6685,-9.6685,-9.6685,-9.6685,-9.6685,-9.6685,-9.6685,-9.6685,-9.6685,-9.6685,-9.6685,-9.6685,-9.6685,-9.6685,-9.6685,-9.6685,-9.6685,-9.6685,-9.6685,-9.6685,-9.6685,-9.6685,-9.6685,-9.6685,-9.6685,-9.6685,-9.6685,-9.6685,-9.6685,-9.6685,-9.6685,-9.6685,-9.6685,-9.6685,-9.6685,-9.6685,-9.6685,-9.6143,-9.5097,-9.6143,-9.6143,-9.5097,-9.5097,-9.5012,-9.4806,-9.3674,-9.3178,-8.2264,-8.2265,-8.2304,-8.2264,-8.211,-8.1889,-8.168,-8.1501,-8.1272,-8.1116,-8.1093,-8.1093,-8.1093,-8.1631,-8.2362,-8.3208,-8.4093,-8.4978,-8.5786,-8.6017,-8.6094,-8.6094,-8.5988,-8.5664,-8.5037,-8.5129,-8.5242,-8.5432,-8.5521,-8.6004,-8.6958,-8.6995,-8.6995,-8.6995,-8.7655,-8.8463,-8.9417,-9.0078,-9.0886,-9.1803,-9.1803,-9.1803,-9.1803,-9.1803,-9.1803,-9.1803,-9.1803,-9.1803,-9.1803,-9.1803,-9.1803,-9.1803,-9.1803,-9.2317,-9.3198,-9.3859,-9.4703,-9.5621,-9.6282,-9.6575,-9.6685,-9.6685,-9.6685,-9.6685,-9.6685,-9.6685,-9.6685,-9.6685,-9.6685,-9.6685,-9.6685,-9.6685,-9.6685,-9.6685,-9.6685,-9.6685,-9.6685,-9.6685,-9.6685,-9.6685,-9.6685,-9.6685,-9.6685,-9.6685,-9.6685,-9.6685,-9.6685,-9.6685,-9.6685,-9.6685,-9.6685,-9.6685,-9.6685,-9.6685,-9.6685,-9.6685,-9.6685,-9.6685,-9.6685,-9.6685,-9.6685,-9.6685,-9.6608,-9.6416,-9.6608,-9.6608,-9.6416,-9.6416,-9.583,-9.4806,-9.4511,-9.4423,-8.2304,-8.2304,-8.2304,-8.2304,-8.2168,-8.1976,-8.1878,-8.1636,-8.1359,-8.1285,-8.1167,-8.1246,-8.1631,-8.2054,-8.2747,-8.4055,-8.4632,-8.517,-8.5978,-8.6094,-8.6094,-8.6094,-8.6094,-8.5846,-8.5162,-8.5969,-8.6266,-8.5632,-8.6474,-8.6988,-8.6995,-8.6995,-8.6995,-8.6995,-8.7766,-8.861,-8.9417,-9.0225,-9.0996,-9.1803,-9.1803,-9.1803,-9.1803,-9.1803,-9.1803,-9.1803,-9.1803,-9.1803,-9.1803,-9.1803,-9.1803,-9.184,-9.2281,-9.2978,-9.3822,-9.463,-9.5437,-9.6171,-9.6575,-9.6685,-9.6685,-9.6685,-9.6685,-9.6685,-9.6685,-9.6685,-9.6685,-9.6685,-9.6685,-9.6685,-9.6685,-9.6685,-9.6685,-9.6685,-9.6685,-9.6685,-9.6685,-9.6685,-9.6685,-9.6685,-9.6685,-9.6685,-9.6685,-9.6685,-9.6685,-9.6685,-9.6685,-9.6685,-9.6685,-9.6685,-9.6685,-9.6685,-9.6685,-9.6685,-9.6685,-9.6685,-9.6685,-9.6685,-9.6685,-9.6685,-9.6685,-9.6685,-9.6685,-9.6685,-9.6685,-9.6685,-9.6685,-9.6685,-9.6416,-9.5749,-9.5749,-9.5749,-8.2304,-8.2304,-8.2304,-8.2304,-8.2175,-8.2053,-8.2,-8.1778,-8.1483,-8.143,-8.1285,-8.1377,-8.2163,-8.2439,-8.3093,-8.467,-8.5055,-8.5401,-8.6017,-8.6094,-8.6094,-8.6094,-8.6094,-8.5881,-8.536,-8.6688,-8.7117,-8.5863,-8.7115,-8.7618,-8.6995,-8.6995,-8.6995,-8.6995,-8.7949,-8.8757,-8.9417,-9.0372,-9.1179,-9.1803,-9.1803,-9.1803,-9.1803,-9.1803,-9.1803,-9.1803,-9.1803,-9.1803,-9.1803,-9.1803,-9.1803,-9.1877,-9.2758,-9.3602,-9.441,-9.5217,-9.6025,-9.6685,-9.6685,-9.6685,-9.6685,-9.6685,-9.6685,-9.6685,-9.6685,-9.6685,-9.6685,-9.6685,-9.6685,-9.6685,-9.6685,-9.6685,-9.6685,-9.6685,-9.6685,-9.6685,-9.6685,-9.6685,-9.6685,-9.6685,-9.6685,-9.6685,-9.6685,-9.6685,-9.6685,-9.6685,-9.6685,-9.6685,-9.6685,-9.6685,-9.6685,-9.6685,-9.6685,-9.6685,-9.6685,-9.6685,-9.6685,-9.6685,-9.6685,-9.6685,-9.6685,-9.6685,-9.6685,-9.6685,-9.6685,-9.6685,-9.6685,-9.6685,-9.6685,-9.6685,-9.6685,-9.6685,-8.2304,-8.2304,-8.2304,-8.2304,-8.2304,-8.2221,-8.2053,-8.1976,-8.1844,-8.148,-8.1383,-8.153,-8.2194,-8.2939,-8.3785,-8.4747,-8.5517,-8.6017,-8.6094,-8.6094,-8.6094,-8.6094,-8.6094,-8.606,-8.5988,-8.6968,-8.7293,-8.6529,-8.687,-8.7064,-8.6995,-8.6995,-8.6995,-8.6995,-8.85,-8.9344,-8.9417,-9.0922,-9.173,-9.1803,-9.1803,-9.1803,-9.1803,-9.1803,-9.1803,-9.1803,-9.1803,-9.1803,-9.1803,-9.1803,-9.1803,-9.1877,-9.2758,-9.3602,-9.441,-9.5217,-9.6025,-9.6685,-9.6685,-9.6685,-9.6685,-9.6685,-9.6685,-9.6685,-9.6685,-9.6685,-9.6685,-9.6685,-9.6685,-9.6685,-9.6685,-9.6685,-9.6685,-9.6685,-9.6685,-9.6685,-9.6685,-9.6685,-9.6685,-9.6685,-9.6685,-9.6685,-9.6685,-9.6685,-9.6685,-9.6685,-9.6685,-9.6685,-9.6685,-9.6685,-9.6685,-9.6685,-9.6685,-9.6685,-9.6685,-9.6685,-9.6685,-9.6685,-9.6685,-9.6685,-9.6685,-9.6685,-9.6685,-9.6685,-9.6685,-9.6685,-9.6685,-9.6685,-9.6685,-9.6685,-9.6685,-9.6685,-8.2304,-8.2304,-8.2304,-8.2304,-8.2304,-8.2265,-8.2217,-8.211,-8.1909,-8.1653,-8.1889,-8.2316,-8.2956,-8.3785,-8.4632,-8.5478,-8.5901,-8.6094,-8.6094,-8.6094,-8.6094,-8.6094,-8.6094,-8.6094,-8.6094,-8.742,-8.8221,-8.8116,-8.7427,-8.6995,-8.6995,-8.6995,-8.6995,-8.6995,-8.8573,-8.9417,-8.9417,-9.0996,-9.1803,-9.1803,-9.1803,-9.1803,-9.1803,-9.1803,-9.1803,-9.1803,-9.1803,-9.1803,-9.1803,-9.1803,-9.2097,-9.2684,-9.3492,-9.4299,-9.5144,-9.5951,-9.6428,-9.6685,-9.6685,-9.6685,-9.6685,-9.6685,-9.6685,-9.6685,-9.6685,-9.6685,-9.6685,-9.6685,-9.6685,-9.6685,-9.6685,-9.6685,-9.6685,-9.6685,-9.6685,-9.6685,-9.6685,-9.6685,-9.6685,-9.6685,-9.6685,-9.6685,-9.6685,-9.6685,-9.6685,-9.6685,-9.6685,-9.6685,-9.6685,-9.6685,-9.6685,-9.6685,-9.6685,-9.6685,-9.6685,-9.6685,-9.6685,-9.6685,-9.6685,-9.6685,-9.6685,-9.6685,-9.6685,-9.6685,-9.6685,-9.6685,-9.6685,-9.6685,-9.6685,-9.6685,-9.6685,-9.6685,-8.2304,-8.2304,-8.2304,-8.2304,-8.2304,-8.2304,-8.2304,-8.2178,-8.2,-8.1739,-8.2242,-8.2878,-8.3495,-8.4324,-8.517,-8.5978,-8.6094,-8.6094,-8.6094,-8.6094,-8.6094,-8.6094,-8.6094,-8.6094,-8.6094,-8.7309,-8.8362,-8.9022,-8.7799,-8.6995,-8.6995,-8.6995,-8.6995,-8.6995,-8.8573,-8.9417,-8.9417,-9.0996,-9.1803,-9.1803,-9.1803,-9.1803,-9.1803,-9.1803,-9.1803,-9.1803,-9.1803,-9.1803,-9.1803,-9.1803,-9.2317,-9.3198,-9.3969,-9.4777,-9.5621,-9.6392,-9.6685,-9.6685,-9.6685,-9.6685,-9.6685,-9.6685,-9.6685,-9.6685,-9.6685,-9.6685,-9.6685,-9.6685,-9.6685,-9.6685,-9.6685,-9.6685,-9.6685,-9.6685,-9.6685,-9.6685,-9.6685,-9.6685,-9.6685,-9.6685,-9.6685,-9.6685,-9.6685,-9.6685,-9.6685,-9.6685,-9.6685,-9.6685,-9.6685,-9.6685,-9.6685,-9.6685,-9.6685,-9.6685,-9.6685,-9.6685,-9.6685,-9.6685,-9.6685,-9.6685,-9.6685,-9.6685,-9.6685,-9.6685,-9.6685,-9.6685,-9.6685,-9.6685,-9.6685,-9.6685,-9.6685,-9.6685,-8.2304,-8.2304,-8.2304,-8.2304,-8.2304,-8.2304,-8.2304,-8.2304,-8.2175,-8.1767,-8.238,-8.3116,-8.3518,-8.4324,-8.517,-8.5978,-8.6094,-8.6094,-8.6094,-8.6094,-8.6094,-8.6094,-8.6094,-8.6094,-8.6094,-8.6431,-8.7348,-8.8971,-8.7799,-8.6995,-8.6995,-8.6995,-8.6995,-8.6995,-8.8573,-8.9417,-8.9417,-9.0996,-9.1803,-9.1803,-9.1803,-9.1803,-9.1803,-9.1803,-9.1803,-9.1803,-9.1803,-9.1803,-9.1803,-9.1803,-9.2317,-9.3198,-9.3969,-9.4777,-9.5621,-9.6392,-9.6685,-9.6685,-9.6685,-9.6685,-9.6685,-9.6685,-9.6685,-9.6685,-9.6685,-9.6685,-9.6685,-9.6685,-9.6685,-9.6685,-9.6685,-9.6685,-9.6685,-9.6685,-9.6685,-9.6685,-9.6685,-9.6685,-9.6685,-9.6685,-9.6685,-9.6685,-9.6685,-9.6685,-9.6685,-9.6685,-9.6685,-9.6685,-9.6685,-9.6685,-9.6685,-9.6685,-9.6685,-9.6685,-9.6685,-9.6685,-9.6685,-9.6685,-9.6685,-9.6685,-9.6685,-9.6685,-9.6685,-9.6685,-9.6685,-9.6685,-9.6685,-9.6685,-9.6685,-9.6685,-9.6685,-9.6685,-8.2304,-8.2304,-8.2304,-8.2304,-8.2304,-8.2304,-8.2304,-8.2304,-8.2221,-8.1967,-8.2935,-8.3834,-8.3786,-8.4858,-8.5786,-8.6055,-8.6094,-8.6094,-8.6094,-8.6094,-8.6094,-8.6094,-8.6094,-8.6555,-8.7748,-8.7536,-8.7977,-8.9695,-8.8523,-8.7773,-8.7773,-8.7298,-8.6995,-8.6995,-8.8573,-8.9417,-8.9417,-9.0996,-9.1803,-9.1803,-9.1803,-9.1803,-9.1803,-9.1803,-9.1803,-9.1803,-9.1803,-9.1803,-9.1803,-9.1803,-9.2648,-9.3932,-9.4189,-9.5144,-9.6355,-9.6612,-9.6685,-9.6685,-9.6685,-9.6685,-9.6685,-9.6685,-9.6685,-9.6685,-9.6685,-9.6685,-9.6685,-9.6685,-9.6685,-9.6685,-9.6685,-9.6685,-9.6685,-9.6685,-9.6685,-9.6685,-9.6685,-9.6685,-9.6685,-9.6685,-9.6685,-9.6685,-9.6685,-9.6685,-9.6685,-9.6685,-9.6685,-9.6685,-9.6685,-9.6685,-9.6685,-9.6685,-9.6685,-9.6685,-9.6685,-9.6685,-9.6685,-9.6685,-9.6685,-9.6685,-9.6685,-9.6685,-9.6685,-9.6685,-9.6685,-9.6685,-9.6685,-9.6685,-9.6685,-9.6685,-9.6685,-9.6685,-8.2304,-8.2304,-8.2304,-8.2304,-8.2304,-8.2304,-8.2304,-8.2304,-8.2223,-8.2053,-8.3156,-8.4163,-8.3933,-8.5111,-8.6094,-8.6094,-8.6094,-8.6094,-8.6094,-8.6094,-8.6094,-8.6094,-8.6094,-8.6786,-8.8517,-8.804,-8.8324,-8.9964,-8.8856,-8.8107,-8.8107,-8.7394,-8.6995,-8.6995,-8.8573,-8.9417,-8.9417,-9.0996,-9.1803,-9.1803,-9.1803,-9.1803,-9.1803,-9.1803,-9.1803,-9.1803,-9.1803,-9.1803,0.0,-9.1803,-9.2794,-9.4299,-9.4299,-9.529,-9.6685,-9.6685,-9.6685,-9.6685,-9.6685,-9.6685,-9.6685,-9.6685,-9.6685,-9.6685,-9.6685,-9.6685,-9.6685,-9.6685,-9.6685,-9.6685,-9.6685,-9.6685,-9.6685,-9.6685,-9.6685,-9.6685,-9.6685,-9.6685,-9.6685,-9.6685,-9.6685,-9.6685,-9.6685,-9.6685,-9.6685,-9.6685,-9.6685,-9.6685,-9.6685,-9.6685,-9.6685,-9.6685,-9.6685,-9.6685,-9.6685,-9.6685,-9.6685,-9.6685,-9.6685,-9.6685,-9.6685,-9.6685,-9.6685,-9.6685,-9.6685,-9.6685,-9.6685,-9.6685,-9.6685,-9.6685,-9.6685,-9.6685,0.0,-8.2304,-8.2304,-8.2304,-8.2304,-8.2304,-8.2304,-8.2304,0.0,-8.2059,-8.3169,-8.4124,-8.3956,-8.5101,-8.6094,-8.6094,-8.6094,-8.6094,-8.6094,-8.6094,-8.6094,-8.6094,-8.6094,-8.6786,-8.8517,-8.8079,-8.8367,-9.0045,-8.891,-8.8167,-8.8167,-8.746,-8.6995,-8.6995,-8.8573,-8.9417,-8.9417,-9.0996,-9.1803,-9.1803,-9.1803,-9.1803,-9.1803,-9.1803,-9.1803,-9.1803,-9.1803,-9.1803,-9.1803,-9.1877,-9.2831,-9.4299,-9.4373,-9.5327,-9.6685,-9.6685,-9.6685,-9.6685,-9.6685,-9.6685,-9.6685,-9.6685,-9.6685,-9.6685,-9.6685,-9.6685,-9.6685,-9.6685,-9.6685,-9.6685,-9.6685,-9.6685,-9.6685,-9.6685,-9.6685,-9.6685,-9.6685,-9.6685,-9.6685,-9.6685,-9.6685,-9.6685,-9.6685,-9.6685,-9.6685,-9.6685,-9.6685,-9.6685,-9.6685,-9.6685,-9.6685,-9.6685,-9.6685,-9.6685,-9.6685,-9.6685,-9.6685,-9.6685,-9.6685,-9.6685,-9.6685,-9.6685,-9.6685,-9.6685,-9.6685,-9.6685,-9.6685,-9.6685,-9.6685,-9.6685,-9.6685,-9.6685,-8.2304,0.0,-8.2304,-8.2304,-8.2304,-8.2304,0.0,-8.2304,-8.2304,-8.2223,-8.3284,-8.4176,-8.4163,-8.5191,-8.6094,-8.6094,-8.6094,-8.6094,-8.6094,-8.6094,-8.6094,-8.6094,-8.6094,-8.6786,-8.8517,-8.8528,-8.9109,-9.0799,-8.9621,-8.8856,-8.8856,-8.7709,-8.6995,-8.6995,-8.8573,-8.9417,-8.9417,-9.0996,-9.1803,-9.1803,-9.1803,-9.1803,-9.1803,-9.1803,-9.1803,-9.1803,-9.1803,-9.1803,-9.184,-9.2537,-9.3382,-9.4373,-9.4997,-9.5841,-9.6685,-9.6685,-9.6685,-9.6685,-9.6685,-9.6685,-9.6685,-9.6685,-9.6685,-9.6685,-9.6685,-9.6685,-9.6685,-9.6685,-9.6685,-9.6685,-9.6685,-9.6685,-9.6685,-9.6685,-9.6685,-9.6685,-9.6685,-9.6685,-9.6685,-9.6685,-9.6685,-9.6685,-9.6685,-9.6685,-9.6685,-9.6685,-9.6685,-9.6685,-9.6685,-9.6685,-9.6685,-9.6685,-9.6685,-9.6685,-9.6685,-9.6685,-9.6685,-9.6685,-9.6685,-9.6685,-9.6685,-9.6685,-9.6685,-9.6685,-9.6685,-9.6685,-9.6685,-9.6685,-9.6685,-9.6685,-9.6685,-9.6685,-8.2304,-8.2304,-8.2304,-8.2304,-8.2304,-8.2304,-8.2304,-8.2304,-8.2304,-8.2304,-8.3302,-8.4193,-8.4193,-8.5243,-8.6094,-8.6094,-8.6094,-8.6094,-8.6094,-8.6094,-8.6094,-8.6094,-8.6094,-8.6786,-8.8517,-8.8709,-8.9402,-9.1056,-9.0198,-8.9389,-8.9122,-8.8388,-8.7709,-8.6995,-8.8914,-8.9762,-8.9417,-9.0996,-9.1803,-9.1803,-9.1803,-9.1803,-9.1803,-9.1803,-9.1803,-9.1803,-9.1803,-9.1803,-9.1877,-9.2758,-9.3565,-9.4373,-9.518,-9.5988,-9.6685,-9.6685,-9.6685,-9.6685,-9.6685,-9.6685,-9.6685,-9.6685,-9.6685,-9.6685,-9.6685,-9.6685,-9.6685,-9.6685,-9.6685,-9.6685,-9.6685,-9.6685,-9.6685,-9.6685,-9.6685,-9.6685,-9.6685,-9.6685,-9.6685,-9.6685,-9.6685,-9.6685,-9.6685,-9.6685,-9.6685,-9.6685,-9.6685,-9.6685,-9.6685,-9.6685,-9.6685,-9.6685,-9.6685,-9.6685,-9.6685,-9.6685,-9.6685,-9.6685,-9.6685,-9.6685,-9.6685,-9.6685,-9.6685,-9.6685,-9.6685,-9.6685,-9.6685,-9.6685,-9.6685,-9.6685,-9.6685,-9.6906,-8.2304,-8.2304,-8.2304,-8.2304,-8.2304,-8.2304,-8.2304,-8.2304,-8.2304,-8.2304,-8.3224,-8.4037,-8.4193,-8.5127,-8.5978,-8.6094,-8.6094,-8.6094,-8.6094,-8.6094,-8.6094,-8.6094,-8.6094,-8.6786,-8.8517,-8.8709,-8.9402,-9.1056,-9.0488,-8.9809,-8.9173,-8.9122,-8.8466,-8.7064,-8.9303,-9.0156,-8.9417,-9.0996,-9.1803,-9.1803,-9.1803,-9.1803,-9.1803,-9.1803,-9.1803,-9.1803,-9.1803,-9.1803,-9.1877,-9.2868,-9.3675,-9.4373,-9.5327,-9.6098,-9.6685,-9.6685,-9.6685,-9.6685,-9.6685,-9.6685,-9.6685,-9.6685,-9.6685,-9.6685,-9.6685,-9.6685,-9.6685,-9.6685,-9.6685,-9.6685,-9.6685,-9.6685,-9.6685,-9.6685,-9.6685,-9.6685,-9.6685,-9.6685,-9.6685,-9.6685,-9.6685,-9.6685,-9.6685,-9.6685,-9.6685,-9.6685,-9.6685,-9.6685,-9.6685,-9.6685,-9.6685,-9.6685,-9.6685,-9.6685,-9.6685,-9.6685,-9.6685,-9.6685,-9.6685,-9.6685,-9.6685,-9.6685,-9.6685,-9.6685,-9.6685,-9.6685,-9.6685,-9.6832,-9.6869,-9.6906,-9.7016,-9.7419,-8.2304,-8.2304,-8.2304,-8.2304,-8.2304,-8.2304,-8.2304,-8.2304,-8.2304,-8.2304,-8.2756,-8.3376,-8.4076,-8.4663,-8.5324,-8.5978,-8.6094,-8.6094,-8.6094,-8.6094,-8.6094,-8.6094,-8.6094,-8.6786,-8.8517,-8.8709,-8.9402,-9.1056,-9.0488,-8.9809,-8.9173,-8.9122,-8.8466,-8.7064,-8.9303,-9.0156,-8.9417,-9.0996,-9.1803,-9.1803,-9.1803,-9.1803,-9.1803,-9.1803,-9.1803,-9.1803,-9.1803,-9.1803,-9.1913,-9.3492,-9.4189,-9.4446,-9.5951,-9.6575,-9.6685,-9.6685,-9.6685,-9.6685,-9.6685,-9.6685,-9.6685,-9.6685,-9.6685,-9.6685,-9.6685,-9.6685,-9.6685,-9.6685,-9.6685,-9.6685,-9.6685,-9.6685,-9.6685,-9.6685,-9.6685,-9.6685,-9.6685,-9.6685,-9.6685,-9.6685,-9.6685,-9.6685,-9.6685,-9.6685,-9.6685,-9.6685,-9.6685,-9.6685,-9.6685,-9.6685,-9.6685,-9.6685,-9.6685,-9.6685,-9.6685,-9.6685,-9.6685,-9.6685,-9.6685,-9.6685,-9.6685,-9.6685,-9.6685,-9.6685,-9.6685,-9.6685,-9.6685,-9.7383,-9.7713,-9.7713,-9.8411,-9.8814,-8.2304,-8.2304,-8.2304,-8.2304,-8.2304,-8.2304,-8.2304,-8.2219,-8.2171,-8.2265,-8.2552,-8.3078,-8.4021,-8.4585,-8.517,-8.5978,-8.6094,-8.6094,-8.6094,-8.6094,-8.6094,-8.6094,-8.6094,-8.6786,-8.8517,-8.8709,-8.9402,-9.1056,-9.0876,-9.0241,-8.9173,-8.9847,-8.9276,-8.7064,-8.961,-9.0737,-8.9988,-9.1208,-9.1803,-9.1803,-9.1803,-9.1803,-9.1803,-9.1803,-9.1803,-9.1803,-9.1803,-9.1803,-9.1913,-9.3602,-9.4299,-9.4446,-9.6061,-9.6685,-9.6685,-9.6685,-9.6685,-9.6685,-9.6685,-9.6685,-9.6685,-9.6685,-9.6685,-9.6685,-9.6685,-9.6685,-9.6685,-9.6685,-9.6685,-9.6685,-9.6685,-9.6685,-9.6685,-9.6685,-9.6685,-9.6685,-9.6685,-9.6685,-9.6685,-9.6685,-9.6685,-9.6685,-9.6685,-9.6685,-9.6685,-9.6685,-9.6685,-9.6685,-9.6685,-9.6685,-9.6685,-9.6685,-9.6685,-9.6685,-9.6685,-9.6685,-9.6685,-9.6685,-9.6685,-9.6685,-9.6685,-9.6685,-9.6685,-9.6685,-9.7126,-9.7346,-9.7346,-9.8154,-9.8557,-9.8557,-9.8924,-9.9328,-8.2304,-8.2304,-8.2304,-8.2304,-8.2304,-8.2304,-8.2304,-8.2129,-8.2053,-8.2217,-8.2273,-8.2638,-8.366,-8.4417,-8.517,-8.5978,-8.6094,-8.6094,-8.6094,-8.6094,-8.6094,-8.6094,-8.6094,-8.6709,-8.8248,-8.8556,-8.9325,-9.0787,-9.1095,-9.0684,-8.9426,-9.0526,-9.0067,-8.7581,-9.0134,-9.1245,-9.076,-9.1412,-9.1912,-9.2089,-9.1912,-9.1803,-9.1803,-9.1803,-9.1803,-9.1803,-9.1803,-9.1803,-9.1913,-9.3602,-9.4299,-9.4446,-9.6061,-9.6685,-9.6685,-9.6685,-9.6685,-9.6685,-9.6685,-9.6685,-9.6685,-9.6685,-9.6685,-9.6685,-9.6685,-9.6685,-9.6685,-9.6685,-9.6685,-9.6685,-9.6685,-9.6685,-9.6685,-9.6685,-9.6685,-9.6685,-9.6685,-9.6685,-9.6685,-9.6685,-9.6685,-9.6685,-9.6685,-9.6685,-9.6685,-9.6685,-9.6685,-9.6685,-9.6685,-9.6685,-9.6685,-9.6685,-9.6685,-9.6685,-9.6685,-9.6685,-9.6795,-9.6979,-9.6795,-9.6795,-9.6979,-9.6979,-9.7052,-9.7273,-9.786,-9.819,-9.819,-9.8998,-9.9402,-9.9402,-9.9585,-9.9989,-8.2304,-8.2304,-8.2304,-8.2304,-8.2304,-8.2304,-8.2304,-8.2129,-8.1992,-8.2,-8.1742,-8.1717,-8.2553,-8.3905,-8.517,-8.5978,-8.6094,-8.6094,-8.6094,-8.6094,-8.6094,-8.6094,-8.6094,-8.6478,-8.7401,-8.8209,-8.9056,-8.994,-9.0748,-9.0876,-9.0073,-9.0762,-9.0526,-8.9016,-9.0599,-9.152,-9.152,-9.1713,-9.2159,-9.2858,-9.2159,-9.1803,-9.1803,-9.1803,-9.1803,-9.1803,-9.1803,-9.1803,-9.1913,-9.3602,-9.4299,-9.4446,-9.6061,-9.6685,-9.6685,-9.6685,-9.6685,-9.6685,-9.6685,-9.6685,-9.6685,-9.6685,-9.6685,-9.6685,-9.6685,-9.6685,-9.6685,-9.6685,-9.6685,-9.6685,-9.6685,-9.6685,-9.6685,-9.6685,-9.6685,-9.6685,-9.6685,-9.6685,-9.6685,-9.6685,-9.6685,-9.6685,-9.6685,-9.6685,-9.6685,-9.6685,-9.6685,-9.6685,-9.6685,-9.6685,-9.6685,-9.6685,-9.6685,-9.6685,-9.6685,-9.6685,-9.7016,-9.775,-9.7126,-9.7016,-9.7787,-9.7787,-9.8154,-9.8924,-9.8998,-9.9035,-9.9035,-9.9805,-10.0209,-10.0209,-10.098,-10.1384,-8.2304,-8.2304,-8.2304,-8.2304,-8.2304,-8.2304,-8.2304,-8.2053,-8.1855,-8.1976,-8.1582,-8.1484,-8.2294,-8.3765,-8.5016,-8.5286,-8.5786,-8.6094,-8.6094,-8.6094,-8.6094,-8.6094,-8.6094,-8.644,-8.7325,-8.8171,-8.9017,-8.9863,-9.071,-9.0876,-9.016,-9.08,-9.0566,-8.9136,-9.0653,-9.1733,-9.2271,-9.2465,-9.2923,-9.3648,-9.2362,-9.1803,-9.1803,-9.1803,-9.1803,-9.1803,-9.1803,-9.1803,-9.1913,-9.3602,-9.4299,-9.4446,-9.6061,-9.6685,-9.6685,-9.6685,-9.6685,-9.6685,-9.6685,-9.6685,-9.6685,-9.6685,-9.6685,-9.6685,-9.6685,-9.6685,-9.6685,-9.6685,-9.6685,-9.6685,-9.6685,-9.6685,-9.6685,-9.6685,-9.6685,-9.6685,-9.6685,-9.6685,-9.6685,-9.6685,-9.6685,-9.6685,-9.6685,-9.6685,-9.6685,-9.6685,-9.6685,-9.6685,-9.6685,-9.6685,-9.6685,-9.6685,-9.7163,-9.7456,-9.7456,-9.7897,-9.8337,-9.8631,-9.7897,-9.7823,-9.8631,-9.8668,-9.8778,-9.9108,-9.9585,-9.9842,-9.9842,-10.0686,-10.098,-10.109,-10.1384,-10.1494,-8.2304,-8.2304,-8.2304,-8.2304,-8.2304,-8.2265,-8.2221,-8.1919,-8.1725,-8.1878,-8.148,-8.1439,-8.2516,-8.367,-8.467,-8.5209,-8.5747,-8.6094,-8.6094,-8.6094,-8.6094,-8.6094,-8.6094,-8.6324,-8.694,-8.8017,-8.894,-8.9479,-9.0556,-9.0989,-9.0488,-9.0914,-9.0762,-8.9801,-9.0863,-9.1988,-9.3013,-9.2994,-9.3387,-9.4102,-9.2793,-9.2055,-9.1803,-9.1803,-9.1803,-9.1803,-9.1803,-9.1803,-9.1913,-9.3602,-9.4593,-9.518,-9.6282,-9.6685,-9.6685,-9.6685,-9.6685,-9.6685,-9.6685,-9.6685,-9.6685,-9.6685,-9.6685,-9.6685,-9.6685,-9.6685,-9.6685,-9.6685,-9.6685,-9.6685,-9.6685,-9.6685,-9.6685,-9.6685,-9.6685,-9.6685,-9.6685,-9.6685,-9.6685,-9.6685,-9.6685,-9.6685,-9.6685,-9.6685,-9.6685,-9.6685,-9.6685,-9.6685,-9.6685,-9.6685,-9.6795,-9.7052,-9.7787,-9.8264,-9.8264,-9.8778,-9.9218,-9.9475,-9.8961,-9.8888,-9.9475,-9.9475,-9.9622,-9.9842,-10.0393,-10.0686,-10.0686,-10.12,-10.1494,-10.1494,-10.1494,-10.1494,-8.2304,-8.2304,-8.2304,-8.2304,-8.2304,-8.2262,-8.2053,-8.1855,-8.168,-8.168,-8.1383,-8.1593,-8.3285,-8.3593,-8.4132,-8.5824,-8.6094,-8.6094,-8.6094,-8.6094,-8.6094,-8.6094,-8.6094,-8.6094,-8.6094,-8.7671,-8.8709,-8.8709,-9.0248,-9.121,-9.121,-9.121,-9.121,-9.121,-9.1397,-9.2185,-9.371,-9.3234,-9.3387,-9.4102,-9.3387,-9.2566,-9.1803,-9.1803,-9.1803,-9.1803,-9.1803,-9.1803,-9.1913,-9.3602,-9.5254,-9.6685,-9.6685,-9.6685,-9.6685,-9.6685,-9.6685,-9.6685,-9.6685,-9.6685,-9.6685,-9.6685,-9.6685,-9.6685,-9.6685,-9.6685,-9.6685,-9.6685,-9.6685,-9.6685,-9.6685,-9.6685,-9.6685,-9.6685,-9.6685,-9.6685,-9.6685,-9.6685,-9.6685,-9.6685,-9.6685,-9.6685,-9.6685,-9.6685,-9.6685,-9.6685,-9.6685,-9.6685,-9.6722,-9.6722,-9.7016,-9.7823,-9.8631,-9.9108,-9.9108,-9.9145,-9.9475,-10.0283,-10.0283,-10.0283,-10.0283,-10.0283,-10.0686,-10.1494,-10.1494,-10.1494,-10.1494,-10.1494,-10.1494,-10.1494,-10.1494,-10.1494,-8.2304,-8.2304,-8.2304,-8.2304,-8.2304,-8.2262,-8.2053,-8.1967,-8.1844,-8.1543,-8.1285,-8.14,-8.2477,-8.317,-8.3939,-8.5093,-8.5747,-8.6094,-8.6094,-8.6094,-8.6094,-8.6094,-8.6094,-8.6094,-8.6094,-8.7671,-8.8709,-8.8709,-9.0248,-9.121,-9.121,-9.121,-9.121,-9.121,-9.1348,-9.215,-9.371,-9.3694,-9.4061,-9.4866,-9.4157,-9.3077,-9.1803,-9.1803,-9.1803,-9.1803,-9.1803,-9.1803,-9.1913,-9.3602,-9.5254,-9.6685,-9.6685,-9.6685,-9.6685,-9.6685,-9.6685,-9.6685,-9.6685,-9.6685,-9.6685,-9.6685,-9.6685,-9.6685,-9.6685,-9.6685,-9.6685,-9.6685,-9.6685,-9.6685,-9.6685,-9.6685,-9.6685,-9.6685,-9.6685,-9.6685,-9.6685,-9.6685,-9.6685,-9.6685,-9.6685,-9.6685,-9.6685,-9.6685,-9.6685,-9.6685,-9.6685,-9.6906,-9.7456,-9.753,-9.786,-9.8668,-9.9475,-9.9952,-9.9952,-10.0503,-10.0907,-10.109,-10.109,-10.109,-10.109,-10.109,-10.1274,-10.1494,-10.1494,-10.1494,-10.1494,-10.1494,-10.1494,-10.1494,-10.1494,-10.1494,-8.2304,-8.2304,-8.2304,-8.2304,-8.2304,-8.2262,-8.2053,-8.1878,-8.1687,-8.1374,-8.1196,-8.1439,-8.2593,-8.3247,-8.3978,-8.517,-8.5786,-8.6094,-8.6094,-8.6094,-8.6094,-8.6094,-8.6094,-8.6094,-8.6094,-8.7671,-8.8709,-8.8709,-9.0248,-9.121,-9.121,-9.121,-9.121,-9.121,-9.1326,-9.2129,-9.3672,-9.3812,-9.435,-9.5189,-9.4768,-9.3726,-9.2299,-9.1983,-9.1803,-9.1803,-9.1803,-9.217,-9.2868,-9.3859,-9.5254,-9.6685,-9.6685,-9.6685,-9.6685,-9.6685,-9.6685,-9.6685,-9.6685,-9.6685,-9.6685,-9.6685,-9.6685,-9.6685,-9.6685,-9.6685,-9.6685,-9.6685,-9.6685,-9.6685,-9.6685,-9.6685,-9.6685,-9.6685,-9.6685,-9.6685,-9.6685,-9.6685,-9.6685,-9.6685,-9.6685,-9.6685,-9.6685,-9.6685,-9.6685,-9.6685,-9.6979,-9.7456,-9.8264,-9.8668,-9.9035,-9.9512,-10.0283,-10.0796,-10.0796,-10.12,-10.1494,-10.1494,-10.1494,-10.1494,-10.1494,-10.1494,-10.1494,-10.1494,-10.1494,-10.1494,-10.1494,-10.1494,-10.1494,-10.1494,-10.1494,-10.1494,-8.2304,-8.2304,-8.2304,-8.2304,-8.2265,-8.2217,-8.2,-8.167,-8.1324,-8.1176,-8.1124,-8.1593,-8.3285,-8.3593,-8.4132,-8.5824,-8.6094,-8.6094,-8.6094,-8.6094,-8.6094,-8.6094,-8.6094,-8.6094,-8.6094,-8.7671,-8.8709,-8.8709,-9.0248,-9.121,-9.121,-9.121,-9.121,-9.121,-9.1332,-9.2133,-9.3672,-9.382,-9.4364,-9.5318,-9.5234,-9.4476,-9.3051,-9.2262,-9.1839,-9.1803,-9.1803,-9.2758,-9.4299,-9.4299,-9.5254,-9.6685,-9.6685,-9.6685,-9.6685,-9.6685,-9.6685,-9.6685,-9.6685,-9.6685,-9.6685,-9.6685,-9.6685,-9.6685,-9.6685,-9.6685,-9.6685,-9.6685,-9.6685,-9.6685,-9.6685,-9.6685,-9.6685,-9.6685,-9.6685,-9.6685,-9.6685,-9.6685,-9.6685,-9.6685,-9.6685,-9.6685,-9.6685,-9.6685,-9.6722,-9.6795,-9.7493,-9.83,-9.9108,-9.9842,-10.0319,-10.0393,-10.109,-10.1494,-10.1494,-10.1494,-10.1494,-10.1494,-10.1494,-10.1494,-10.1494,-10.1494,-10.1494,-10.1494,-10.1494,-10.1494,-10.1494,-10.1494,-10.1494,-10.1494,-10.1494,-10.1494,-8.2304,-8.2304,-8.2304,-8.2304,-8.2059,-8.1831,-8.1753,-8.1458,-8.1196,-8.1298,-8.1186,-8.1593,-8.3285,-8.3593,-8.4132,-8.5824,-8.6094,-8.6094,-8.6094,-8.6094,-8.6094,-8.6094,-8.6094,-8.6094,-8.6094,-8.7671,-8.8709,-8.8709,-9.0248,-9.121,-9.121,-9.121,-9.121,-9.121,-9.1218,-9.2025,-9.3672,-9.3716,-9.4523,-9.6098,-9.549,-9.4768,-9.3821,-9.3077,-9.2399,-9.1803,-9.1803,-9.2758,-9.4299,-9.4299,-9.5254,-9.6685,-9.6685,-9.6685,-9.6685,-9.6685,-9.6685,-9.6685,-9.6685,-9.6685,-9.6685,-9.6685,-9.6685,-9.6685,-9.6685,-9.6685,-9.6685,-9.6685,-9.6685,-9.6685,-9.6685,-9.6685,-9.6685,-9.6685,-9.6685,-9.6685,-9.6685,-9.6685,-9.6685,-9.6685,-9.6685,-9.6685,-9.6685,-9.6685,-9.6906,-9.753,-9.8337,-9.9145,-9.9952,-10.0209,-10.0503,-10.12,-10.1384,-10.1494,-10.1494,-10.1494,-10.1494,-10.1494,-10.1494,-10.1494,-10.1494,-10.1494,-10.1494,-10.1494,-10.1494,-10.1494,-10.1494,-10.1494,-10.1494,-10.1494,-10.1494,-10.1494,-8.2304,-8.2304,-8.2304,-8.2304,-8.1992,-8.168,-8.168,-8.1383,-8.1116,-8.1242,-8.1167,-8.1593,-8.3285,-8.3593,-8.4132,-8.5824,-8.6094,-8.6094,-8.6094,-8.6094,-8.6094,-8.6094,-8.6094,-8.6094,-8.6094,-8.7671,-8.8709,-8.8709,-9.0248,-9.121,-9.121,-9.121,-9.121,-9.121,-9.121,-9.2018,-9.3672,-9.371,-9.4557,-9.6288,-9.5902,-9.5142,-9.4047,-9.2987,-9.2399,-9.2368,-9.2425,-9.338,-9.4844,-9.489,-9.5584,-9.6685,-9.6685,-9.6685,-9.6685,-9.6685,-9.6685,-9.6685,-9.6685,-9.6685,-9.6685,-9.6685,-9.6685,-9.6685,-9.6685,-9.6685,-9.6685,-9.6685,-9.6685,-9.6685,-9.6685,-9.6685,-9.6685,-9.6685,-9.6685,-9.6685,-9.6685,-9.6685,-9.6685,-9.6685,-9.6685,-9.6685,-9.6685,-9.7016,-9.7676,-9.8851,-9.9402,-9.9989,-10.0796,-10.0907,-10.098,-10.1494,-10.1494,-10.1494,-10.1494,-10.1494,-10.1494,-10.1494,-10.1494,-10.1494,-10.1494,-10.1494,-10.1494,-10.1494,-10.1494,-10.1494,-10.1494,-10.1494,-10.1494,-10.1494,-10.1494,-10.1494,-8.2304,-8.2304,-8.2304,-8.2304,-8.1992,-8.168,-8.168,-8.1383,-8.1093,-8.1093,-8.1208,-8.1785,-8.3324,-8.3708,-8.4324,-8.5863,-8.6094,-8.6094,-8.6094,-8.6094,-8.6094,-8.6094,-8.6094,-8.6094,-8.6094,-8.7671,-8.8709,-8.8709,-9.0248,-9.121,-9.121,-9.121,-9.121,-9.121,-9.121,-9.2018,-9.3672,-9.371,-9.4557,-9.6288,-9.6174,-9.5407,-9.4047,-9.2793,-9.2498,-9.296,-9.3081,-9.3927,-9.5388,-9.5442,-9.5988,-9.6685,-9.6685,-9.6685,-9.6685,-9.6685,-9.6685,-9.6685,-9.6685,-9.6685,-9.6685,-9.6685,-9.6685,-9.6685,-9.6685,-9.6685,-9.6685,-9.6685,-9.6685,-9.6685,-9.6685,-9.6685,-9.6685,-9.6685,-9.6685,-9.6685,-9.6685,-9.6685,-9.6685,-9.6685,-9.6795,-9.6906,-9.6906,-9.7676,-9.8778,-10.0099,-10.0393,-10.0686,-10.1384,-10.1494,-10.1494,-10.1494,-10.1494,-10.1494,-10.1494,-10.1494,-10.1494,-10.1494,-10.1494,-10.1494,-10.1494,-10.1494,-10.1494,-10.1494,-10.1494,-10.1494,-10.1494,-10.1494,-10.1494,-10.1494,-10.1494,-10.1494,-8.2304,-8.2304,-8.2304,-8.2304,-8.1992,-8.168,-8.168,-8.1383,-8.1093,-8.1093,-8.1631,-8.2439,-8.3401,-8.4209,-8.5016,-8.594,-8.6094,-8.6094,-8.6094,-8.6094,-8.6094,-8.6094,-8.6094,-8.6094,-8.6094,-8.7671,-8.8709,-8.8709,-9.0248,-9.121,-9.121,-9.121,-9.121,-9.121,-9.121,-9.2018,-9.3672,-9.371,-9.4557,-9.6288,-9.5657,-9.4915,-9.4102,-9.3878,-9.347,-9.296,-9.3081,-9.3927,-9.5388,-9.5442,-9.5988,-9.6685,-9.6685,-9.6685,-9.6685,-9.6685,-9.6685,-9.6685,-9.6685,-9.6685,-9.6685,-9.6685,-9.6685,-9.6685,-9.6685,-9.6685,-9.6685,-9.6685,-9.6685,-9.6685,-9.6685,-9.6685,-9.6685,-9.6685,-9.6685,-9.6685,-9.6685,-9.6685,-9.6685,-9.6685,-9.7273,-9.775,-9.775,-9.8998,-10.0099,-10.0283,-10.0907,-10.1384,-10.1494,-10.1494,-10.1494,-10.1494,-10.1494,-10.1494,-10.1494,-10.1494,-10.1494,-10.1494,-10.1494,-10.1494,-10.1494,-10.1494,-10.1494,-10.1494,-10.1494,-10.1494,-10.1494,-10.1494,-10.1494,-10.1494,-10.1494,-10.1494,-8.2304,-8.2304,-8.2304,-8.2304,-8.1992,-8.168,-8.168,-8.1732,-8.1785,-8.1785,-8.2824,-8.3708,-8.3632,-8.4324,-8.517,-8.5978,-8.6094,-8.6094,-8.6094,-8.6094,-8.6094,-8.6094,-8.6094,-8.6094,-8.6094,-8.7671,-8.8709,-8.8709,-9.0248,-9.121,-9.121,-9.121,-9.121,-9.121,-9.121,-9.2018,-9.3672,-9.371,-9.4557,-9.6288,-9.5981,-9.5407,-9.4718,-9.4718,-9.4319,-9.3664,-9.461,-9.5357,-9.6056,-9.6554,-9.6769,-9.6685,-9.6685,-9.6685,-9.6685,-9.6685,-9.6685,-9.6685,-9.6685,-9.6685,-9.6685,-9.6685,-9.6685,-9.6685,-9.6685,-9.6685,-9.6685,-9.6685,-9.6685,-9.6685,-9.6685,-9.6685,-9.6685,-9.6685,-9.6685,-9.6685,-9.6685,-9.6685,-9.6832,-9.7273,-9.764,-9.819,-9.9071,-9.9842,-10.0503,-10.0907,-10.1274,-10.1494,-10.1494,-10.1494,-10.1494,-10.1494,-10.1494,-10.1494,-10.1494,-10.1494,-10.1494,-10.1494,-10.1494,-10.1494,-10.1494,-10.1494,-10.1494,-10.1494,-10.1494,-10.1494,-10.1494,-10.1494,-10.1494,-10.1494,-10.1494,-10.1494,-8.2304,-8.2304,-8.2304,-8.2304,-8.2148,-8.203,-8.203,-8.2351,-8.2631,-8.2631,-8.3824,-8.4709,-8.4055,-8.4632,-8.5401,-8.6017,-8.6094,-8.6094,-8.6094,-8.6094,-8.6094,-8.6094,-8.6094,-8.6094,-8.6094,-8.7671,-8.8709,-8.8709,-9.0248,-9.121,-9.121,-9.121,-9.121,-9.121,-9.1402,-9.221,-9.3672,-9.4134,-9.5018,-9.6288,-9.6288,-9.5902,-9.5189,-9.5407,-9.5096,-9.4447,-9.5856,-9.646,-9.6592,-9.7451,-9.7388,-9.6685,-9.6685,-9.6685,-9.6685,-9.6685,-9.6685,-9.6685,-9.6685,-9.6685,-9.6685,-9.6685,-9.6685,-9.6685,-9.6685,-9.6685,-9.6685,-9.6685,-9.6685,-9.6685,-9.6685,-9.6685,-9.6685,-9.6685,-9.6685,-9.6685,-9.6685,-9.6869,-9.7163,-9.7787,-9.8227,-9.8888,-10.0099,-10.0503,-10.0796,-10.1384,-10.1494,-10.1494,-10.1494,-10.1494,-10.1494,-10.1494,-10.1494,-10.1494,-10.1494,-10.1494,-10.1494,-10.1494,-10.1494,-10.1494,-10.1494,-10.1494,-10.1494,-10.1494,-10.1494,-10.1494,-10.1494,-10.1494,-10.1494,-10.1494,-10.1494,-10.1604,-8.2304,-8.2304,-8.2304,-8.2304,-8.2608,-8.2909,-8.2909,-8.3242,-8.3516,-8.3516,-8.4247,-8.4901,-8.4863,-8.5478,-8.6055,-8.6094,-8.6094,-8.6094,-8.6094,-8.6094,-8.6094,-8.6094,-8.6094,-8.6094,-8.6094,-8.7671,-8.8709,-8.8709,-9.0248,-9.121,-9.121,-9.121,-9.121,-9.121,-9.2018,-9.2826,-9.3672,-9.5326,-9.6211,-9.6288,-9.6288,-9.5902,-9.5189,-9.5902,-9.5862,-9.5172,-9.6074,-9.646,-9.6592,-9.7451,-9.7388,-9.6685,-9.6685,-9.6685,-9.6685,-9.6685,-9.6685,-9.6685,-9.6685,-9.6685,-9.6685,-9.6685,-9.6685,-9.6685,-9.6685,-9.6685,-9.6685,-9.6685,-9.6685,-9.6685,-9.6685,-9.6685,-9.6685,-9.6685,-9.6685,-9.6685,-9.6685,-9.7309,-9.7823,-9.7897,-9.9108,-10.0209,-10.0283,-10.0907,-10.1494,-10.1494,-10.1494,-10.1494,-10.1494,-10.1494,-10.1494,-10.1494,-10.1494,-10.1494,-10.1494,-10.1494,-10.1494,-10.1494,-10.1494,-10.1494,-10.1494,-10.1494,-10.1494,-10.1494,-10.1494,-10.1494,-10.1494,-10.1494,-10.1494,-10.1494,-10.1494,-10.1898,-8.3125,-8.3554,-8.3984,-8.3984,-8.3865,-8.3781,-8.3781,-8.4132,-8.4439,-8.4439,-8.5093,-8.567,-8.567,-8.5901,-8.6094,-8.6094,-8.6094,-8.6094,-8.6094,-8.6094,-8.6094,-8.6094,-8.6094,-8.6094,-8.6094,-8.7671,-8.8709,-8.8709,-9.0248,-9.121,-9.121,-9.121,-9.121,-9.121,-9.2056,-9.3133,-9.4518,-9.5711,-9.6288,-9.6288,-9.6288,-9.6136,-9.5902,-9.6174,-9.6136,-9.6017,-9.738,-9.7668,-9.7299,-9.8174,-9.8124,-9.7388,-9.6877,-9.6685,-9.6685,-9.6685,-9.6685,-9.6685,-9.6685,-9.6685,-9.6685,-9.6685,-9.6685,-9.6685,-9.6685,-9.6685,-9.6685,-9.6685,-9.6685,-9.6685,-9.6685,-9.6685,-9.6685,-9.6685,-9.6685,-9.6832,-9.7346,-9.7676,-9.8043,-9.8557,-9.9548,-10.0503,-10.098,-10.1274,-10.1494,-10.1494,-10.1494,-10.1494,-10.1494,-10.1494,-10.1494,-10.1494,-10.1494,-10.1494,-10.1494,-10.1494,-10.1494,-10.1494,-10.1494,-10.1494,-10.1494,-10.1494,-10.1494,-10.1494,-10.1494,-10.1494,-10.1494,-10.1494,-10.1494,-10.1494,-10.1494,-10.1898,-8.3945,-8.4453,-8.4883,-8.4883,-8.4824,-8.4713,-8.4653,-8.5056,-8.5406,-8.5318,-8.5747,-8.6094,-8.6094,-8.6094,-8.6094,-8.6094,-8.6094,-8.6094,-8.6094,-8.6094,-8.6094,-8.6094,-8.6094,-8.6209,-8.6517,-8.7863,-8.8786,-8.9094,-9.0402,-9.121,-9.121,-9.121,-9.1479,-9.2018,-9.2595,-9.371,-9.5403,-9.6019,-9.6288,-9.6288,-9.6288,-9.6288,-9.6288,-9.6288,-9.6288,-9.6403,-9.8057,-9.8316,-9.7648,-9.861,-9.8529,-9.7695,-9.699,-9.6685,-9.6685,-9.6685,-9.6685,-9.6685,-9.6685,-9.6685,-9.6685,-9.6685,-9.6685,-9.6685,-9.6685,-9.6685,-9.6685,-9.6685,-9.6685,-9.6685,-9.6685,-9.6685,-9.6685,-9.6685,-9.6685,-9.6906,-9.7713,-9.8117,-9.8521,-9.9365,-10.0209,-10.0907,-10.1384,-10.1494,-10.1494,-10.1494,-10.1494,-10.1494,-10.1494,-10.1494,-10.1494,-10.1494,-10.1494,-10.1494,-10.1494,-10.1494,-10.1494,-10.1494,-10.1494,-10.1494,-10.1494,-10.1494,-10.1494,-10.1494,-10.1494,-10.1494,-10.1494,-10.1494,-10.1494,-10.1494,-10.1788,-10.2485,0.0,0.0,0.0,-8.4961,-8.5409,-8.5781,-8.558,-8.6048,-8.6442,-8.6153,-8.6094,-8.6094,-8.6094,-8.6094,-8.6094,-8.6094,-8.6094,-8.6094,-8.6094,-8.6094,-8.6094,-8.6094,-8.6094,-8.644,-8.7325,-8.8171,-8.9017,-8.9863,-9.071,-9.121,-9.121,-9.121,-9.1979,-9.3633,-9.371,-9.4557,-9.6288,-9.6288,-9.6288,-9.6288,-9.6288,-9.6288,-9.6288,-9.6288,-9.6288,-9.6403,-9.8057,-9.8354,-9.7734,-9.8664,-9.8529,-9.7763,-9.699,-9.6685,-9.6685,-9.6685,-9.6685,-9.6685,-9.6685,-9.6685,-9.6685,-9.6685,-9.6685,-9.6685,-9.6685,-9.6685,-9.6685,-9.6685,-9.6685,-9.6685,-9.6685,-9.6685,-9.6685,-9.6685,-9.6722,-9.6942,-9.775,-9.8557,-9.9365,-10.0099,-10.0907,-10.1494,-10.1494,-10.1494,-10.1494,-10.1494,-10.1494,-10.1494,-10.1494,-10.1494,-10.1494,-10.1494,-10.1494,-10.1494,-10.1494,-10.1494,-10.1494,-10.1494,-10.1494,-10.1494,-10.1494,-10.1494,-10.1494,-10.1494,-10.1494,-10.1494,-10.1494,-10.1494,-10.1494,-10.1494,-10.2301,-10.3623,-8.5781,0.0,0.0,0.0,0.0,0.0,-8.6668,-8.6685,-8.6651,-8.6442,-8.6362,-8.6317,-8.6159,-8.6094,-8.6094,-8.6094,-8.6094,-8.6094,-8.6094,-8.6094,-8.6094,-8.6094,-8.6094,-8.644,-8.7325,-8.8171,-8.9017,-8.9863,-9.071,-9.121,-9.121,-9.121,-9.1979,-9.3633,-9.371,-9.4557,-9.6288,-9.6288,-9.6288,-9.6288,-9.6288,-9.6288,-9.6288,-9.6288,-9.6288,-9.6403,-9.8057,-9.8673,-9.8511,-9.8826,-9.889,-9.8529,-9.721,-9.6685,-9.6685,-9.6685,-9.6685,-9.6685,-9.6685,-9.6685,-9.6685,-9.6685,-9.6685,-9.6685,-9.6685,-9.6685,-9.6685,-9.6685,-9.6685,-9.6685,-9.6685,-9.6685,-9.6685,-9.6685,-9.7126,-9.7787,-9.8594,-9.9402,-9.9989,-10.0283,-10.0907,-10.1494,-10.1494,-10.1494,-10.1494,-10.1494,-10.1494,-10.1494,-10.1494,-10.1494,-10.1494,-10.1494,-10.1494,-10.1494,-10.1494,-10.1494,-10.1494,-10.1494,-10.1494,-10.1494,-10.1494,-10.1494,-10.1494,-10.1494,-10.1494,-10.1494,-10.1494,-10.1494,-10.1494,-10.1494,-10.2889,-10.41,-8.664,-8.7109,-8.75,-8.75,0.0,0.0,-8.7008,-8.687,-8.6729,-8.6389,-8.6346,-8.6298,-8.6126,-8.6094,-8.6094,-8.6094,-8.6094,-8.6094,-8.6094,-8.6094,-8.6094,-8.6094,-8.644,-8.6978,-8.7863,-8.8709,-8.9556,-9.0402,-9.0902,-9.121,-9.121,-9.121,-9.1979,-9.3633,-9.371,-9.4557,-9.6288,-9.6288,-9.6288,-9.6288,-9.6288,-9.6288,-9.6288,-9.6288,-9.648,-9.6865,-9.8211,-9.9019,-9.9326,-9.9084,-9.9007,-9.8831,-9.7282,-9.6685,-9.6685,-9.6685,-9.6685,-9.6685,-9.6685,-9.6685,-9.6685,-9.6685,-9.6685,-9.6685,-9.6685,-9.6685,-9.6685,-9.6685,-9.6685,-9.6685,-9.6685,-9.6685,-9.6685,-9.6685,-9.7309,-9.8117,-9.8924,-9.9732,-10.0393,-10.0686,-10.12,-10.1494,-10.1494,-10.1494,-10.1494,-10.1494,-10.1494,-10.1494,-10.1494,-10.1494,-10.1494,-10.1494,-10.1494,-10.1494,-10.1494,-10.1494,-10.1494,-10.1494,-10.1494,-10.1494,-10.1494,-10.1494,-10.1494,-10.1494,-10.1494,-10.1677,-10.2008,-10.1677,-10.1788,-10.2485,-10.3806,-10.4798,-8.7304,-8.75,-8.75,-8.75,-8.75,0.0,-8.6962,-8.688,-8.6765,-8.6307,-8.6238,-8.6208,-8.6153,-8.612,-8.6159,-8.6094,-8.6094,-8.6094,-8.6094,-8.6094,-8.6132,-8.6247,-8.694,-8.7786,-8.8748,-8.9479,-9.0287,-9.1133,-9.121,-9.121,-9.121,-9.121,-9.1979,-9.3633,-9.371,-9.4557,-9.6288,-9.6288,-9.6288,-9.6288,-9.6288,-9.6288,-9.6288,-9.6288,-9.6749,-9.7557,-9.8404,-9.9288,-9.998,-9.9312,-9.9007,-9.8831,-9.7282,-9.6685,-9.6685,-9.6685,-9.6685,-9.6685,-9.6685,-9.6685,-9.6685,-9.6685,-9.6685,-9.6685,-9.6685,-9.6685,-9.6685,-9.6685,-9.6685,-9.6685,-9.6685,-9.6685,-9.6722,-9.6795,-9.7456,-9.8264,-9.9071,-9.9879,-10.0613,-10.1384,-10.1494,-10.1494,-10.1494,-10.1494,-10.1494,-10.1494,-10.1494,-10.1494,-10.1494,-10.1494,-10.1494,-10.1494,-10.1494,-10.1494,-10.1494,-10.1494,-10.1494,-10.1494,-10.1494,-10.1494,-10.1494,-10.1494,-10.1494,-10.1494,-10.1604,-10.2008,-10.2815,-10.2081,-10.2485,-10.41,-10.4798,-10.5605,-8.7461,-8.75,-8.75,-8.75,-8.75,0.0,-8.7372,-8.7369,-8.7275,-8.6986,-8.6897,-8.681,-8.648,-8.6416,-8.6346,-8.6159,-8.6094,-8.6094,-8.6094,-8.6094,-8.6363,-8.7055,-8.7286,-8.8017,-8.9517,-8.9825,-9.0287,-9.1133,-9.121,-9.121,-9.121,-9.121,-9.1979,-9.3633,-9.371,-9.4557,-9.6288,-9.6288,-9.6288,-9.6288,-9.6288,-9.6288,-9.6288,-9.6288,-9.6749,-9.7557,-9.8404,-9.9288,-9.998,-9.9312,-9.9007,-9.8831,-9.7282,-9.6685,-9.6685,-9.6685,-9.6685,-9.6685,-9.6685,-9.6685,-9.6685,-9.6685,-9.6685,-9.6685,-9.6685,-9.6685,-9.6685,-9.6685,-9.6685,-9.6685,-9.6685,-9.6685,-9.6869,-9.7493,-9.8264,-9.9108,-9.9879,-10.0686,-10.1274,-10.1494,-10.1494,-10.1494,-10.1494,-10.1494,-10.1494,-10.1494,-10.1494,-10.1494,-10.1494,-10.1494,-10.1494,-10.1494,-10.1494,-10.1494,-10.1494,-10.1494,-10.1494,-10.1494,-10.1494,-10.1494,-10.1494,-10.1494,-10.1494,-10.1494,-10.2081,-10.2889,-10.3696,-10.3513,-10.3917,-10.4908,-10.5018,-10.5605,-8.75,-8.75,-8.75,-8.75,-8.75,0.0,0.0,-8.7284,-8.7225,-8.6997,-8.6962,-8.6909,-8.6671,-8.6576,-8.6468,-8.6317,-8.6184,-8.6094,-8.6094,-8.6478,-8.6901,-8.7363,-8.8132,-8.8979,-8.9825,-9.0287,-9.0748,-9.1171,-9.121,-9.121,-9.121,-9.1595,-9.2402,-9.3672,-9.4095,-9.498,-9.6288,-9.6288,-9.6288,-9.6288,-9.6288,-9.6288,-9.6288,-9.6288,-9.698,-9.8173,-9.8596,-9.9519,-10.0595,-9.9463,-9.9007,-9.8831,-9.7282,-9.6685,-9.6685,-9.6685,-9.6685,-9.6685,-9.6685,-9.6685,-9.6685,-9.6685,-9.6685,-9.6685,-9.6685,-9.6685,-9.6685,-9.6685,-9.6685,-9.6685,-9.6685,-9.6685,-9.6906,-9.7713,-9.8521,-9.9328,-10.0099,-10.0907,-10.1494,-10.1494,-10.1494,-10.1494,-10.1494,-10.1494,-10.1494,-10.1494,-10.1494,-10.1494,-10.1494,-10.1494,-10.1494,-10.1494,-10.1494,-10.1494,-10.1494,-10.1494,-10.1494,-10.1494,-10.1494,-10.1494,-10.1494,-10.1898,-10.2301,-10.2705,-10.3513,-10.41,-10.4504,-10.4908,-10.5091,-10.5128,-10.5495,-10.6009,-8.75,-8.75,-8.75,-8.75,-8.75,-8.7459,0.0,0.0,0.0,-8.6962,-8.6936,-8.6922,-8.688,-8.669,-8.6475,-8.6286,-8.6336,-8.6286,-8.6132,-8.7132,-8.7825,-8.7671,-8.8979,-8.9979,-9.0133,-9.0787,-9.121,-9.121,-9.121,-9.121,-9.121,-9.2018,-9.2864,-9.3672,-9.4557,-9.5403,-9.6288,-9.6288,-9.6288,-9.6288,-9.6288,-9.6288,-9.6288,-9.6288,-9.7211,-9.8788,-9.8788,-9.975,-10.121,-9.9615,-9.9007,-9.8831,-9.7282,-9.6685,-9.6685,-9.6685,-9.6685,-9.6685,-9.6685,-9.6685,-9.6685,-9.6685,-9.6685,-9.6685,-9.6685,-9.6685,-9.6685,-9.6685,-9.6685,-9.6685,-9.6685,-9.6795,-9.7126,-9.7933,-9.8741,-9.9548,-10.0393,-10.098,-10.1494,-10.1494,-10.1494,-10.1494,-10.1494,-10.1494,-10.1494,-10.1494,-10.1494,-10.1494,-10.1494,-10.1494,-10.1494,-10.1494,-10.1494,-10.1494,-10.1494,-10.1494,-10.1494,-10.1494,-10.1494,-10.1567,-10.1677,-10.2485,-10.3293,-10.41,-10.4798,-10.5201,-10.5422,-10.6082,-10.6009,-10.5422,-10.6082,-10.6376,-8.75,-8.75,-8.75,-8.75,-8.75,-8.75,-8.746,0.0,-8.7459,-8.7418,0.0,-8.7369,-8.7104,0.0,0.0,-8.5483,-8.6414,-8.6978,-8.6209,-8.8132,-8.9363,-8.8632,-8.9363,-9.021,-9.0979,-9.1133,-9.121,-9.121,-9.121,-9.121,-9.121,-9.2018,-9.2864,-9.3672,-9.4557,-9.5403,-9.6288,-9.6288,-9.6288,-9.6288,-9.6288,-9.6288,-9.6288,-9.6288,-9.7211,-9.8788,-9.8788,-9.975,-10.121,-9.9615,-9.9007,-9.8831,-9.7282,-9.6685,-9.6685,-9.6685,-9.6685,-9.6685,-9.6685,-9.6685,-9.6685,-9.6685,-9.6685,-9.6685,-9.6685,-9.6685,-9.6685,-9.6685,-9.6685,-9.6685,-9.6685,-9.7236,-9.797,-9.8778,-9.9585,-10.0393,-10.12,-10.1384,-10.1494,-10.1494,-10.1494,-10.1494,-10.1494,-10.1494,-10.1494,-10.1494,-10.1494,-10.1494,-10.1494,-10.1494,-10.1494,-10.1494,-10.1494,-10.1494,-10.1494,-10.1494,-10.1494,-10.1494,-10.1494,-10.1788,-10.2522,-10.3293,-10.41,-10.4908,-10.5091,-10.5495,-10.6302,-10.6376,-10.6302,-10.6302,-10.6376,-10.6376,-8.75,-8.75,-8.75,-8.75,-8.75,-8.75,-8.75,-8.75,-8.75,-8.75,0.0,0.0,0.0,0.0,0.0,0.0,-8.7599,-8.8017,-8.7671,-8.894,-8.9787,-8.944,-9.0133,-9.0787,-9.1171,-9.121,-9.121,-9.121,-9.121,-9.1441,-9.1941,-9.2749,-9.3595,-9.4441,-9.5288,-9.5942,-9.6288,-9.6288,-9.6288,-9.6288,-9.6288,-9.6288,-9.6288,-9.6288,-9.7211,-9.8788,-9.8788,-9.9516,-10.0589,-9.9455,-9.8712,-9.8188,-9.7101,-9.6685,-9.6685,-9.6685,-9.6685,-9.6685,-9.6685,-9.6685,-9.6685,-9.6685,-9.6685,-9.6685,-9.6685,-9.6685,-9.6685,-9.6685,-9.6685,-9.6685,-9.6685,-9.7309,-9.808,-9.8924,-9.9695,-10.0503,-10.1274,-10.1494,-10.1494,-10.1494,-10.1494,-10.1494,-10.1494,-10.1494,-10.1494,-10.1494,-10.1494,-10.1494,-10.1494,-10.1494,-10.1494,-10.1494,-10.1494,-10.1494,-10.1494,-10.1494,-10.1494,-10.1494,-10.1898,-10.2815,-10.4027,-10.4394,-10.5018,-10.5789,-10.5899,-10.6009,-10.6376,-10.6376,-10.6376,-10.6376,-10.6376,-10.6376,-8.75,-8.75,-8.75,-8.75,-8.75,-8.75,-8.75,-8.75,-8.75,-8.75,-8.75,0.0,0.0,0.0,-8.8101,-8.8101,0.0,-8.894,-8.8709,-8.9594,-9.0171,-8.994,-9.0671,-9.121,-9.121,-9.121,-9.121,-9.121,-9.121,-9.1595,-9.2441,-9.3249,-9.4095,-9.498,-9.5865,-9.6288,-9.6288,-9.6288,-9.6288,-9.6288,-9.6288,-9.6288,-9.6288,-9.6288,-9.7211,-9.8788,-9.8788,-9.9313,-10.0098,-9.9346,-9.8529,-9.7695,-9.699,-9.6685,-9.6685,-9.6685,-9.6685,-9.6685,-9.6685,-9.6685,-9.6685,-9.6685,-9.6685,-9.6685,-9.6685,-9.6685,-9.6685,-9.6685,-9.6685,-9.6685,-9.6685,-9.7456,-9.8374,-9.8961,-9.9879,-10.0796,-10.1384,-10.1494,-10.1494,-10.1494,-10.1494,-10.1494,-10.1494,-10.1494,-10.1494,-10.1494,-10.1494,-10.1494,-10.1494,-10.1494,-10.1494,-10.1494,-10.1494,-10.1494,-10.1494,-10.1494,-10.1604,-10.1788,-10.2815,-10.3917,-10.5091,-10.5311,-10.5789,-10.6376,-10.6376,-10.6376,-10.6376,-10.6376,-10.6376,-10.6376,-10.6376,-10.6376,-8.75,-8.75,-8.75,-8.75,-8.75,-8.75,-8.75,-8.75,-8.75,-8.75,-8.75,-8.7734,-8.8515,-8.8335,-8.8101,-8.8101,-8.9074,0.0,0.0,-9.0133,-9.0864,-9.0017,-9.0671,-9.121,-9.121,-9.121,-9.121,-9.121,-9.121,-9.1595,-9.2441,-9.3249,-9.4095,-9.498,-9.5865,-9.6288,-9.6288,-9.6288,-9.6288,-9.6288,-9.6288,-9.6288,-9.6288,-9.6288,-9.7211,-9.8788,-9.8788,-9.9313,-10.0098,-9.9346,-9.8529,-9.7695,-9.699,-9.6685,-9.6685,-9.6685,-9.6685,-9.6685,-9.6685,-9.6685,-9.6685,-9.6685,-9.6685,-9.6685,-9.6685,-9.6685,-9.6685,-9.6685,-9.6685,-9.6685,-9.6685,-9.786,-9.9071,-9.9108,-10.0283,-10.1494,-10.1494,-10.1494,-10.1494,-10.1494,-10.1494,-10.1494,-10.1494,-10.1494,-10.1494,-10.1494,-10.1494,-10.1494,-10.1494,-10.1494,-10.1494,-10.1494,-10.1494,-10.1494,-10.1494,-10.1494,-10.1788,-10.2595,-10.41,-10.5018,-10.5128,-10.5899,-10.6376,-10.6376,-10.6376,-10.6376,-10.6376,-10.6376,-10.6376,-10.6376,-10.6376,-10.6376,-8.75,-8.75,-8.75,-8.75,-8.75,-8.75,-8.75,-8.75,-8.75,-8.75,-8.75,-8.7693,-8.8368,-8.8728,-8.9041,-8.9499,-9.0218,-9.0671,0.0,-9.0825,-9.1095,-9.0787,-9.1018,-9.121,-9.121,-9.121,-9.121,-9.121,-9.1748,-9.2402,-9.3249,-9.4095,-9.4941,-9.5826,-9.6134,-9.6288,-9.6288,-9.6288,-9.6288,-9.6288,-9.6288,-9.6288,-9.6326,-9.6865,-9.7711,-9.8827,-9.9404,-9.9555,-9.9401,-9.9122,-9.8252,-9.7027,-9.6838,-9.6685,-9.6685,-9.6685,-9.6685,-9.6685,-9.6685,-9.6685,-9.6685,-9.6685,-9.6685,-9.6685,-9.6685,-9.6685,-9.6685,-9.6685,-9.6685,-9.6832,-9.7346,-9.83,-9.9255,-9.9769,-10.0686,-10.1494,-10.1494,-10.1494,-10.1494,-10.1494,-10.1494,-10.1494,-10.1494,-10.1494,-10.1494,-10.1494,-10.1494,-10.1494,-10.1494,-10.1494,-10.1494,-10.1494,-10.1494,-10.1494,-10.1494,-10.2008,-10.2889,-10.421,-10.4798,-10.5422,-10.5899,-10.6192,-10.6376,-10.6376,-10.6376,-10.6376,-10.6376,-10.6376,-10.6376,-10.6376,-10.6376,-10.5874,-8.75,-8.75,-8.7461,-8.7375,-8.7372,-8.7372,-8.7372,-8.7372,-8.7372,-8.7372,-8.7607,-8.8017,-8.8618,-8.9246,-8.987,-9.0611,-9.0975,-9.121,0.0,-9.121,-9.121,-9.121,-9.121,-9.121,-9.121,-9.121,-9.121,-9.121,-9.2018,-9.2864,-9.3672,-9.4518,-9.5403,-9.6288,-9.6288,-9.6288,-9.6288,-9.6288,-9.6288,-9.6288,-9.6288,-9.6288,-9.6326,-9.7134,-9.798,-9.8865,-9.9712,-9.9695,-9.9007,-9.9007,-9.8058,-9.6685,-9.6685,-9.6685,-9.6685,-9.6685,-9.6685,-9.6685,-9.6685,-9.6685,-9.6685,-9.6685,-9.6685,-9.6685,-9.6685,-9.6685,-9.6685,-9.6685,-9.6685,-9.6906,-9.7676,-9.8484,-9.9292,-10.0099,-10.0907,-10.1494,-10.1494,-10.1494,-10.1494,-10.1494,-10.1494,-10.1494,-10.1494,-10.1494,-10.1494,-10.1494,-10.1494,-10.1494,-10.1494,-10.1494,-10.1494,-10.1494,-10.1494,-10.1604,-10.1898,-10.2889,-10.4027,-10.5018,-10.5422,-10.5789,-10.6376,-10.6376,-10.6486,-10.678,-10.6486,-10.6486,-10.678,-10.6486,-10.6376,-10.6376,-10.6376,-10.5626]},{"header":{"parameterUnit":"m.s-1","parameterCategory":1,"la1":30.6,"la2":29.2853,"lo1":-89.7004,"lo2":-87.6739,"dy":0.0162,"dx":0.0183,"nx":112,"ny":82,"refTime":"2024-03-20T12:00:00:Z","depth":0,"parameterNumber":3,"parameterNumberName":"V-component_of_WINDS"},"data":[0.0,0.0,0.0,0.0,0.0,0.0,0.0,0.0,0.0,0.0,0.0,0.0,0.0,0.0,0.0,0.0,0.0,0.0,0.0,0.0,0.0,0.0,0.0,0.0,0.0,0.0,0.0,0.0,0.0,0.0,0.0,0.0,0.0,0.0,0.0,0.0,0.0,0.0,0.0,0.0,0.0,0.0,0.0,0.0,0.0,0.0,0.0,0.0,0.0,0.0,0.0,0.0,0.0,0.0,0.0,0.0,0.0,0.0,0.0,0.0,0.0,0.0,0.0,0.0,0.0,0.0,0.0,0.0,0.0,0.0,0.0,0.0,0.0,0.0,0.0,0.0,0.0,0.0,0.0,0.0,0.0,0.0,0.0,0.0,0.0,0.0,0.0,0.0,0.0,0.0,4.373,4.3808,4.3808,4.3828,4.3906,4.3906,4.4082,4.4473,0.0,0.0,0.0,0.0,0.0,0.0,0.0,0.0,0.0,0.0,0.0,0.0,0.0,0.0,0.0,0.0,0.0,0.0,0.0,0.0,0.0,0.0,0.0,0.0,0.0,0.0,0.0,0.0,0.0,0.0,0.0,0.0,0.0,0.0,0.0,0.0,0.0,0.0,0.0,0.0,0.0,0.0,0.0,0.0,0.0,0.0,0.0,0.0,0.0,0.0,0.0,0.0,0.0,0.0,0.0,0.0,0.0,0.0,0.0,0.0,0.0,0.0,0.0,0.0,0.0,0.0,0.0,0.0,0.0,0.0,0.0,0.0,0.0,0.0,0.0,0.0,0.0,0.0,0.0,0.0,0.0,0.0,0.0,0.0,0.0,0.0,0.0,0.0,0.0,0.0,0.0,0.0,0.0,0.0,0.0,0.0,0.0,0.0,0.0,0.0,0.0,0.0,0.0,0.0,4.3848,4.4258,4.4297,4.4433,4.4785,4.4824,4.4844,4.4922,0.0,0.0,0.0,0.0,0.0,0.0,0.0,0.0,0.0,0.0,0.0,0.0,0.0,0.0,0.0,0.0,0.0,0.0,0.0,0.0,0.0,0.0,0.0,0.0,0.0,0.0,0.0,0.0,0.0,0.0,0.0,0.0,0.0,0.0,0.0,0.0,0.0,0.0,0.0,0.0,0.0,0.0,0.0,0.0,0.0,0.0,0.0,0.0,0.0,0.0,0.0,0.0,0.0,0.0,0.0,0.0,0.0,0.0,0.0,0.0,0.0,0.0,0.0,0.0,0.0,0.0,0.0,0.0,0.0,0.0,0.0,0.0,0.0,0.0,0.0,0.0,0.0,0.0,0.0,0.0,0.0,0.0,0.0,0.0,0.0,0.0,0.0,0.0,0.0,0.0,0.0,0.0,0.0,0.0,0.0,0.0,0.0,0.0,0.0,0.0,0.0,0.0,0.0,4.4414,4.4512,4.4707,4.4746,4.4824,4.5,4.5019,4.5117,4.5371,4.4785,0.0,0.0,0.0,0.0,0.0,0.0,0.0,0.0,0.0,0.0,0.0,0.0,0.0,0.0,0.0,0.0,0.0,0.0,0.0,0.0,0.0,0.0,0.0,0.0,0.0,0.0,0.0,0.0,0.0,0.0,0.0,0.0,0.0,0.0,0.0,0.0,0.0,0.0,0.0,0.0,0.0,0.0,0.0,0.0,0.0,0.0,0.0,0.0,0.0,0.0,0.0,0.0,0.0,0.0,0.0,0.0,0.0,0.0,0.0,0.0,0.0,0.0,0.0,0.0,0.0,0.0,0.0,0.0,0.0,0.0,0.0,0.0,0.0,0.0,0.0,0.0,0.0,0.0,0.0,0.0,0.0,0.0,0.0,0.0,0.0,0.0,0.0,0.0,0.0,0.0,0.0,0.0,0.0,0.0,0.0,0.0,0.0,0.0,0.0,0.0,0.0,0.0,4.5019,4.5058,4.5176,4.5176,4.5215,4.5312,4.5332,4.5469,4.5801,4.5508,0.0,0.0,0.0,0.0,0.0,0.0,0.0,0.0,0.0,0.0,0.0,0.0,0.0,0.0,0.0,0.0,0.0,0.0,0.0,0.0,0.0,0.0,0.0,0.0,0.0,0.0,0.0,0.0,0.0,0.0,0.0,0.0,0.0,0.0,0.0,0.0,0.0,0.0,0.0,0.0,0.0,0.0,0.0,0.0,0.0,0.0,0.0,0.0,0.0,0.0,0.0,0.0,0.0,0.0,0.0,0.0,0.0,0.0,0.0,0.0,0.0,0.0,0.0,0.0,0.0,0.0,0.0,0.0,0.0,0.0,0.0,0.0,0.0,0.0,0.0,0.0,0.0,0.0,0.0,0.0,0.0,0.0,0.0,0.0,0.0,0.0,0.0,0.0,0.0,0.0,0.0,0.0,0.0,0.0,0.0,0.0,0.0,0.0,0.0,0.0,0.0,0.0,4.5019,4.5176,4.5586,4.5625,4.5781,4.6191,4.6211,4.623,4.625,4.623,0.0,0.0,0.0,0.0,0.0,0.0,0.0,0.0,0.0,0.0,0.0,0.0,0.0,0.0,0.0,0.0,0.0,0.0,0.0,0.0,0.0,0.0,0.0,0.0,0.0,0.0,0.0,0.0,0.0,0.0,0.0,0.0,0.0,0.0,0.0,0.0,0.0,0.0,0.0,0.0,0.0,0.0,0.0,0.0,0.0,0.0,0.0,0.0,0.0,0.0,0.0,0.0,0.0,0.0,0.0,0.0,0.0,0.0,0.0,0.0,0.0,0.0,0.0,0.0,0.0,0.0,0.0,0.0,0.0,0.0,0.0,0.0,0.0,0.0,0.0,0.0,0.0,0.0,0.0,0.0,0.0,0.0,0.0,0.0,0.0,0.0,0.0,0.0,0.0,0.0,0.0,0.0,0.0,0.0,0.0,0.0,0.0,0.0,0.0,0.0,0.0,0.0,4.582,4.5879,4.6055,4.6074,4.6133,4.6289,4.6308,4.6308,4.6308,0.0,0.0,0.0,0.0,0.0,0.0,0.0,0.0,0.0,0.0,0.0,0.0,0.0,0.0,0.0,0.0,0.0,0.0,0.0,0.0,0.0,0.0,0.0,0.0,0.0,0.0,0.0,0.0,0.0,0.0,0.0,0.0,0.0,0.0,0.0,0.0,0.0,0.0,0.0,0.0,0.0,0.0,0.0,0.0,0.0,0.0,0.0,0.0,0.0,0.0,0.0,0.0,0.0,0.0,0.0,0.0,0.0,0.0,0.0,0.0,0.0,0.0,0.0,0.0,0.0,0.0,0.0,0.0,0.0,0.0,0.0,0.0,0.0,0.0,0.0,0.0,0.0,0.0,0.0,0.0,0.0,0.0,0.0,0.0,0.0,0.0,0.0,0.0,0.0,0.0,0.0,0.0,0.0,0.0,0.0,0.0,0.0,0.0,0.0,0.0,0.0,0.0,4.6269,4.6308,4.6308,4.6308,4.6308,4.6308,4.6308,4.6308,4.6308,4.6308,0.0,0.0,0.0,0.0,0.0,0.0,0.0,0.0,0.0,0.0,0.0,0.0,0.0,0.0,0.0,0.0,0.0,0.0,0.0,0.0,0.0,0.0,0.0,0.0,0.0,0.0,0.0,0.0,0.0,0.0,0.0,0.0,0.0,0.0,0.0,0.0,0.0,0.0,0.0,0.0,0.0,0.0,0.0,0.0,0.0,0.0,0.0,0.0,0.0,0.0,0.0,0.0,0.0,0.0,0.0,0.0,0.0,0.0,0.0,0.0,0.0,0.0,0.0,0.0,0.0,0.0,0.0,0.0,0.0,0.0,0.0,0.0,0.0,0.0,0.0,0.0,0.0,0.0,0.0,0.0,0.0,0.0,0.0,0.0,0.0,0.0,0.0,0.0,0.0,0.0,0.0,0.0,0.0,0.0,0.0,0.0,0.0,0.0,0.0,0.0,0.0,0.0,4.6308,4.6308,4.6308,4.6308,4.6308,4.6308,4.6308,4.6308,4.6308,0.0,0.0,0.0,0.0,0.0,0.0,0.0,0.0,0.0,0.0,0.0,0.0,0.0,0.0,0.0,0.0,0.0,0.0,0.0,0.0,0.0,0.0,0.0,0.0,0.0,0.0,0.0,0.0,0.0,0.0,0.0,0.0,0.0,0.0,0.0,0.0,0.0,0.0,0.0,0.0,0.0,0.0,0.0,0.0,0.0,0.0,0.0,0.0,0.0,0.0,0.0,0.0,0.0,0.0,0.0,0.0,0.0,0.0,0.0,0.0,0.0,0.0,0.0,0.0,0.0,0.0,0.0,0.0,0.0,0.0,0.0,0.0,0.0,0.0,0.0,0.0,0.0,0.0,0.0,0.0,0.0,0.0,0.0,0.0,0.0,0.0,0.0,0.0,0.0,0.0,0.0,0.0,0.0,0.0,0.0,0.0,0.0,0.0,0.0,0.0,0.0,0.0,0.0,4.6308,4.6308,4.6308,4.6308,4.6308,4.6308,4.6308,4.6308,4.6426,4.6719,0.0,0.0,0.0,0.0,0.0,0.0,0.0,0.0,0.0,0.0,0.0,0.0,0.0,0.0,0.0,0.0,0.0,0.0,0.0,0.0,0.0,0.0,0.0,0.0,0.0,0.0,0.0,0.0,0.0,0.0,0.0,0.0,0.0,0.0,0.0,0.0,0.0,0.0,0.0,0.0,0.0,0.0,0.0,0.0,0.0,0.0,0.0,0.0,0.0,0.0,0.0,0.0,0.0,0.0,0.0,0.0,0.0,0.0,0.0,0.0,0.0,0.0,0.0,0.0,0.0,0.0,0.0,0.0,0.0,0.0,0.0,0.0,0.0,0.0,0.0,0.0,0.0,0.0,0.0,0.0,0.0,0.0,0.0,0.0,0.0,0.0,0.0,0.0,0.0,0.0,0.0,0.0,0.0,0.0,0.0,0.0,0.0,0.0,0.0,0.0,0.0,0.0,4.6308,4.6308,4.6308,4.6308,4.6445,4.6562,4.6562,4.6719,4.6914,4.7168,0.0,0.0,0.0,0.0,0.0,0.0,0.0,0.0,0.0,0.0,0.0,0.0,0.0,0.0,0.0,0.0,0.0,0.0,0.0,0.0,0.0,0.0,0.0,0.0,0.0,0.0,0.0,0.0,0.0,0.0,0.0,0.0,0.0,0.0,0.0,0.0,0.0,0.0,0.0,0.0,0.0,0.0,0.0,0.0,0.0,0.0,0.0,0.0,0.0,0.0,0.0,0.0,0.0,0.0,0.0,0.0,0.0,0.0,0.0,0.0,0.0,0.0,0.0,0.0,0.0,0.0,0.0,0.0,0.0,0.0,0.0,0.0,0.0,0.0,0.0,0.0,0.0,0.0,0.0,0.0,0.0,0.0,0.0,0.0,0.0,0.0,0.0,0.0,0.0,0.0,0.0,0.0,0.0,0.0,0.0,0.0,0.0,0.0,0.0,0.0,0.0,0.0,4.6406,4.6387,4.6367,4.6426,4.6758,4.6992,4.6992,4.7363,4.7598,4.7637,0.0,0.0,0.0,0.0,0.0,0.0,0.0,0.0,0.0,0.0,0.0,0.0,0.0,0.0,0.0,0.0,0.0,0.0,0.0,0.0,0.0,0.0,0.0,0.0,0.0,0.0,0.0,0.0,0.0,0.0,0.0,0.0,0.0,0.0,0.0,0.0,0.0,0.0,0.0,0.0,0.0,0.0,0.0,0.0,0.0,0.0,0.0,0.0,0.0,0.0,0.0,0.0,0.0,0.0,0.0,0.0,0.0,0.0,0.0,0.0,3.0411,3.2485,0.0,0.0,0.0,0.0,0.0,0.0,0.0,0.0,0.0,0.0,0.0,0.0,0.0,0.0,0.0,0.0,0.0,0.0,0.0,0.0,0.0,0.0,0.0,0.0,0.0,0.0,0.0,0.0,0.0,0.0,0.0,0.0,0.0,0.0,0.0,0.0,0.0,0.0,0.0,0.0,4.7226,4.7012,4.6933,4.7266,4.7383,4.7441,4.7441,4.7519,4.7715,4.8047,4.7773,0.0,0.0,0.0,0.0,0.0,0.0,0.0,0.0,0.0,0.0,0.0,0.0,0.0,0.0,0.0,0.0,0.0,0.0,0.0,0.0,0.0,0.0,0.0,0.0,0.0,0.0,0.0,0.0,0.0,0.0,0.0,0.0,0.0,0.0,0.0,0.0,0.0,0.0,0.0,0.0,0.0,0.0,0.0,0.0,0.0,0.0,0.0,0.0,0.0,0.0,0.0,0.0,0.0,0.0,0.0,0.0,0.0,0.0,0.0,3.0437,3.1301,0.0,0.0,0.0,0.0,0.0,0.0,0.0,0.0,0.0,0.0,0.0,0.0,0.0,0.0,0.0,0.0,0.0,0.0,0.0,0.0,0.0,0.0,0.0,0.0,0.0,0.0,0.0,0.0,0.0,0.0,0.0,0.0,0.0,0.0,0.0,0.0,0.0,0.0,0.0,0.0,4.7519,4.7383,4.7324,4.7558,4.7754,4.7891,4.7891,4.8066,4.8281,4.8496,4.832,0.0,0.0,0.0,0.0,0.0,0.0,0.0,0.0,0.0,0.0,0.0,0.0,0.0,0.0,0.0,0.0,0.0,0.0,0.0,0.0,0.0,0.0,0.0,0.0,0.0,0.0,0.0,0.0,0.0,0.0,0.0,0.0,0.0,0.0,0.0,0.0,0.0,0.0,0.0,0.0,0.0,0.0,0.0,0.0,0.0,0.0,0.0,0.0,0.0,0.0,0.0,0.0,0.0,2.9913,2.9913,2.9913,2.9913,3.0987,3.2778,3.0863,3.0133,3.0437,3.0093,0.0,0.0,0.0,0.0,0.0,0.0,0.0,0.0,0.0,0.0,0.0,0.0,0.0,0.0,0.0,0.0,0.0,0.0,0.0,0.0,0.0,0.0,3.602,3.5104,3.6955,3.8181,3.5532,0.0,0.0,0.0,0.0,0.0,0.0,0.0,0.0,0.0,0.0,0.0,4.7793,4.7734,4.7715,4.7793,4.8105,4.832,4.832,4.8652,4.8867,4.8867,4.8867,4.8867,0.0,0.0,0.0,0.0,0.0,0.0,0.0,0.0,0.0,0.0,0.0,0.0,0.0,0.0,0.0,0.0,0.0,0.0,0.0,0.0,0.0,0.0,0.0,0.0,0.0,0.0,0.0,0.0,0.0,0.0,0.0,0.0,2.8136,2.8136,0.0,0.0,0.0,0.0,0.0,0.0,0.0,0.0,0.0,0.0,0.0,0.0,0.0,2.9566,2.986,2.986,2.9887,2.9913,2.9913,2.9913,2.9913,2.9913,3.0227,3.0831,3.0482,0.0,3.269,3.0794,0.0,0.0,0.0,0.0,0.0,0.0,0.0,0.0,0.0,0.0,0.0,0.0,0.0,0.0,0.0,0.0,0.0,0.0,0.0,0.0,0.0,0.0,4.0541,3.6175,3.7128,3.8246,3.582,3.7312,3.8429,3.6236,3.8062,4.0731,0.0,0.0,0.0,0.0,0.0,0.0,4.8594,4.8359,4.8262,4.8652,4.875,4.8769,4.8769,4.8828,4.8867,4.8867,4.8867,4.8867,4.8867,4.8808,0.0,0.0,0.0,0.0,0.0,0.0,0.0,0.0,0.0,0.0,0.0,0.0,0.0,0.0,0.0,0.0,0.0,0.0,0.0,0.0,0.0,0.0,0.0,0.0,0.0,0.0,0.0,0.0,0.0,2.8136,2.8136,2.8136,2.8136,2.8136,0.0,0.0,0.0,0.0,0.0,0.0,0.0,0.0,0.0,2.9472,2.9646,2.978,2.9913,2.9913,2.9913,2.9913,3.0087,3.0167,3.0167,3.0327,3.0474,3.0595,3.0595,3.1063,3.1819,3.0758,3.0408,3.0408,0.0,0.0,0.0,0.0,3.0688,3.0795,3.0795,3.0795,3.0795,3.0795,0.0,0.0,0.0,0.0,0.0,0.0,0.0,3.4417,3.3469,3.4779,3.6252,3.5509,3.6066,3.7022,3.7581,3.8553,3.929,3.9657,4.2038,4.4285,4.5574,4.5981,0.0,0.0,0.0,4.8437,4.8808,4.8691,4.8652,4.8848,4.8867,4.8867,4.8867,4.8867,4.8867,4.8867,4.8867,4.8867,4.8867,4.8867,4.8867,0.0,0.0,0.0,0.0,0.0,0.0,0.0,0.0,0.0,0.0,0.0,0.0,0.0,0.0,0.0,0.0,0.0,0.0,0.0,0.0,0.0,0.0,0.0,0.0,0.0,0.0,0.0,0.0,2.8136,2.8136,2.8136,2.8136,2.8136,0.0,0.0,0.0,0.0,0.0,0.0,2.8818,2.9245,2.9513,2.9593,2.9806,2.9913,2.9913,2.9913,2.9953,3.0034,3.0247,3.0394,3.0474,3.0702,3.0835,3.0902,3.0902,3.0942,3.1009,3.0849,3.0795,3.0795,3.0795,3.0835,3.0902,3.0902,3.0955,3.1022,3.1022,3.1022,3.1022,3.1022,3.1022,3.1062,3.1276,0.0,0.0,0.0,0.0,3.2394,3.1853,3.2287,3.3072,3.4161,3.497,3.6012,3.7554,3.8804,4.0326,4.2101,4.4725,4.6676,4.6772,4.7625,0.0,4.8359,4.8652,4.8867,4.8867,4.8867,4.8867,4.8867,4.8867,4.8867,4.8867,4.8867,4.8867,4.8867,4.8867,4.8867,4.8867,4.8867,4.8867,4.8867,0.0,0.0,0.0,0.0,0.0,0.0,0.0,0.0,0.0,0.0,0.0,0.0,0.0,0.0,0.0,0.0,0.0,0.0,0.0,0.0,0.0,0.0,0.0,0.0,0.0,0.0,0.0,0.0,0.0,2.8136,2.8136,0.0,0.0,0.0,0.0,2.8564,2.8604,2.8858,2.9406,2.9472,2.9606,2.9887,2.9913,2.9913,2.9913,2.9913,3.006,3.0341,3.0354,3.0501,3.0768,3.0782,3.0942,3.1209,3.1209,3.1356,3.1583,3.1022,3.0795,3.0795,3.0795,3.0969,3.1209,3.1209,3.1383,3.1623,3.1623,3.1623,3.1623,3.1623,3.1623,3.1623,3.1637,3.1664,0.0,0.0,3.3323,3.4592,3.2219,3.3724,3.5061,3.2832,3.4354,3.5514,3.3464,3.6904,4.0446,4.0287,4.2302,4.4122,4.4503,0.0,4.834,4.8769,4.8848,4.8867,4.8867,4.8867,4.8867,4.8867,4.8867,4.8867,4.8867,4.8867,4.8867,4.8867,4.8867,4.8867,4.8867,4.8867,4.8867,4.8867,4.8867,0.0,0.0,0.0,0.0,0.0,0.0,0.0,0.0,0.0,0.0,0.0,0.0,0.0,0.0,0.0,0.0,0.0,0.0,0.0,0.0,0.0,0.0,0.0,0.0,0.0,0.0,0.0,0.0,2.8136,2.8136,0.0,2.8136,2.8323,2.8484,2.8604,2.8951,2.9259,2.9472,2.9659,2.9806,2.9913,2.9913,3.0007,3.0207,3.0207,3.0354,3.0635,3.0822,3.0969,3.1076,3.1276,3.141,3.1517,3.1517,3.157,3.165,3.145,3.1356,3.1356,3.1356,3.1423,3.1517,3.1517,3.1583,3.1664,3.1664,3.1664,3.1664,3.1664,3.1664,3.1664,3.1664,3.1797,3.1944,3.1944,3.264,3.3353,3.2418,3.3064,3.3519,3.2579,3.3229,3.4101,3.5061,3.5565,3.625,3.7878,4.0378,4.2708,4.4562,4.5535,4.6746,4.8643,4.8867,4.8867,4.8867,4.8867,4.8867,4.8867,4.8867,4.8867,4.8867,4.8867,4.8867,4.8867,4.8867,4.8867,4.8867,4.8867,4.8867,4.8867,4.8867,4.8867,0.0,0.0,0.0,0.0,0.0,0.0,0.0,0.0,0.0,0.0,0.0,0.0,0.0,0.0,0.0,0.0,0.0,0.0,0.0,0.0,0.0,0.0,0.0,0.0,0.0,2.8136,2.8136,2.8136,2.8136,2.8136,2.8136,2.843,2.8644,2.8751,2.9205,2.9526,2.9619,2.9806,2.9913,2.9913,3.0007,3.0167,3.0354,3.0461,3.0648,3.0942,3.1129,3.1276,3.1383,3.1583,3.1664,3.1664,3.1664,3.1664,3.1664,3.1664,3.1664,3.1664,3.1664,3.1664,3.1664,3.1664,3.1664,3.1664,3.1664,3.173,3.181,3.181,3.1877,3.1971,3.1971,3.2104,3.2251,3.2251,3.2398,3.2545,3.2545,3.2612,3.2692,3.2692,3.2759,3.347,3.518,3.4267,3.3769,3.5705,3.805,4.0368,4.2099,4.3054,4.4607,4.712,4.7493,4.7883,4.8848,4.8867,4.8867,4.8867,4.8867,4.8867,4.8867,4.8867,4.8867,4.8867,4.8867,4.8867,4.8867,4.8867,4.8867,4.8867,4.8867,4.8867,4.8867,0.0,0.0,0.0,0.0,0.0,0.0,0.0,0.0,0.0,0.0,0.0,0.0,0.0,0.0,0.0,0.0,0.0,0.0,0.0,0.0,0.0,0.0,0.0,2.8136,2.8136,2.8136,2.8136,2.8136,2.815,2.8163,2.8444,2.8738,2.9032,2.9325,2.9619,2.99,2.9913,2.9913,2.9927,3.0207,3.0368,3.0381,3.0662,3.0955,3.1236,3.1236,3.1396,3.1664,3.1664,3.1664,3.1664,3.1664,3.1664,3.1664,3.1664,3.1677,3.1677,3.1677,3.1664,3.1664,3.1677,3.169,3.169,3.169,3.1877,3.2118,3.2118,3.2305,3.2545,3.2545,3.2559,3.2559,3.2559,3.2572,3.2572,3.2572,3.2786,3.2986,3.2986,3.32,3.3414,3.3414,3.3414,3.3414,3.3414,3.555,3.7282,3.7282,3.9399,4.2099,4.4589,4.4984,0.0,4.8663,4.8867,4.8867,4.8867,4.8867,4.8867,4.8867,4.8867,4.8867,4.8887,4.8887,4.8887,4.8906,4.8906,4.8906,4.8906,4.8906,4.8906,4.8906,0.0,0.0,0.0,0.0,0.0,0.0,0.0,0.0,0.0,0.0,0.0,0.0,0.0,0.0,0.0,0.0,0.0,0.0,0.0,0.0,0.0,2.5191,2.8136,2.8136,2.8136,2.8136,2.8136,2.8136,2.823,2.8457,2.8751,2.9045,2.9339,2.9633,2.9833,2.9913,2.9913,3.002,3.0234,3.0314,3.0568,3.0982,3.1062,3.1249,3.1543,3.1543,3.1597,3.1664,3.1664,3.1664,3.1664,3.1664,3.1664,3.1664,3.1664,3.1797,3.1957,3.1757,3.1664,3.169,3.1904,3.2118,3.2305,3.2305,3.2358,3.2425,3.2425,3.2478,3.2545,3.2545,3.2692,3.2866,3.2866,3.3013,3.3173,3.3173,3.3227,3.3293,3.3293,3.336,3.3414,3.3414,3.3414,3.3414,3.3414,3.3987,3.5153,3.6889,3.9399,4.2099,4.4589,4.6542,4.8088,4.8848,4.8867,4.8867,4.8867,4.8867,4.8867,4.8867,4.8867,4.9004,4.9316,4.9336,4.9492,4.9805,4.9824,4.9824,4.9824,4.9824,4.9824,0.0,0.0,0.0,0.0,0.0,0.0,0.0,0.0,0.0,0.0,0.0,0.0,0.0,0.0,0.0,0.0,0.0,0.0,0.0,0.0,0.0,0.0,2.4496,2.7799,2.6927,2.7617,2.8136,2.8136,2.8257,2.8404,2.8591,2.8978,2.9299,2.9472,2.9753,2.9913,2.9913,3.0034,3.0181,3.0354,3.0595,3.0889,3.1223,3.1343,3.1503,3.1664,3.1664,3.1664,3.1664,3.1664,3.1664,3.1677,3.1797,3.1851,3.1864,3.1984,3.2131,3.2251,0.0,0.0,0.0,0.0,3.2398,3.2545,3.2545,3.2625,3.2732,3.2732,3.2812,3.2906,3.2906,3.3026,3.316,3.316,3.328,3.3414,3.3414,3.3414,3.3414,3.3414,3.3414,3.3414,3.3414,3.3414,3.3414,3.3414,3.3414,0.0,3.5352,3.6889,3.8831,4.1332,4.3054,4.4796,4.6915,4.7307,4.7774,4.8935,4.9141,4.9219,4.9394,4.9414,0.0,0.0,0.0,4.9922,5.0176,5.0176,0.0,0.0,0.0,5.0176,5.0176,5.0176,0.0,0.0,4.9414,4.9414,0.0,0.0,0.0,0.0,0.0,0.0,0.0,0.0,0.0,0.0,0.0,0.0,0.0,0.0,0.0,0.0,2.3458,2.7109,2.5032,2.6758,2.8136,2.8136,2.8417,2.8617,2.8657,2.9152,2.9499,2.9526,2.9766,2.9913,2.9913,3.0194,0.0,0.0,0.0,3.1236,3.1276,3.153,3.1664,3.1664,3.1664,3.1664,3.1664,3.1664,3.169,3.173,3.1984,3.2118,3.2171,3.2438,3.2559,3.2572,3.2265,3.2332,3.2599,3.2599,3.2612,3.2639,3.2639,0.0,0.0,3.3026,3.32,3.3414,3.3414,3.3414,3.3414,3.3414,3.3414,3.3414,3.3414,3.3414,3.3414,3.3414,3.3414,3.3414,3.3414,3.3414,3.3414,3.3414,3.3414,3.3427,3.3454,3.3627,3.4571,3.6889,3.7508,3.9462,4.4092,4.4921,4.6067,4.8385,4.9214,0.0,4.9738,4.9986,5.0195,5.0254,5.0293,5.0312,5.0312,5.0312,5.0312,5.0312,5.0312,5.0312,5.0312,5.0312,5.0312,5.0312,5.0215,5.0176,0.0,0.0,0.0,0.0,0.0,0.0,0.0,0.0,0.0,0.0,0.0,0.0,0.0,0.0,0.0,1.7929,2.2084,2.5203,2.4691,2.6758,2.8136,2.8136,2.8417,2.8698,2.8938,2.9272,2.9579,2.982,2.9887,2.9913,2.9913,3.0194,3.0474,3.0702,3.1049,3.1343,3.1583,3.1637,3.1664,3.1664,3.1664,0.0,3.1664,3.1664,3.1797,3.2024,3.2078,3.2238,3.2465,3.2519,3.2679,3.2866,3.2572,3.2639,3.2893,3.2893,3.304,3.324,3.324,3.328,3.3334,3.3334,3.336,3.3414,3.3414,3.3414,0.0,3.3414,3.3414,3.3414,3.3414,3.3414,3.3414,3.3414,3.3414,3.3414,3.3414,3.3414,3.3414,3.3414,3.3414,3.3494,3.3748,3.5336,3.6706,3.7282,3.9261,4.1212,4.2184,4.4395,4.5204,4.37,4.7468,4.9281,4.6984,4.8977,5.0312,5.0664,5.0996,5.1191,5.1191,5.1191,5.1191,5.1191,5.1191,5.1191,5.1191,5.1191,5.1191,5.1172,5.0488,5.0176,0.0,0.0,0.0,0.0,0.0,0.0,0.0,0.0,0.0,0.0,0.0,1.4299,1.4299,0.0,1.7413,1.621,2.0019,2.2955,2.2955,2.5139,2.7145,2.8207,2.8644,2.8938,2.9232,2.9526,2.9766,2.99,2.9913,2.998,3.0127,3.0421,3.0715,3.0996,3.1289,3.1517,3.1664,3.1664,3.1664,3.1664,3.1664,3.1744,3.1891,3.1891,3.2051,3.2332,3.2478,3.2625,3.2772,3.2919,3.3066,3.3187,3.304,3.3066,3.32,3.32,3.328,3.3414,3.3414,3.3414,3.3414,3.3414,3.3414,3.3414,3.3414,3.3414,3.3414,3.3414,3.3414,3.3414,3.3414,3.3414,3.3414,3.3414,3.3414,3.3414,3.3414,3.3534,3.3654,3.3654,3.3774,3.3921,3.4082,3.495,3.5833,3.5833,3.6953,3.8444,3.9824,4.1158,4.2113,4.2294,4.6091,4.7969,4.677,4.92,5.0898,5.1113,5.1308,5.1426,5.1426,5.1426,5.1426,5.1426,5.1426,5.1426,5.1426,5.1426,5.1426,5.1426,5.0996,5.0801,0.0,0.0,0.0,0.0,0.0,0.0,0.0,1.4299,1.4299,1.4299,1.4299,1.4299,1.4299,1.5858,1.6553,1.4646,1.7763,2.0702,2.1221,2.3509,2.5969,2.8327,2.8951,2.9219,2.9459,2.9753,2.9913,2.9913,2.9913,3.0047,3.0341,3.0635,3.0929,3.1209,3.1517,3.1664,3.1664,3.1664,3.1664,3.1664,3.173,3.1877,3.2104,3.2158,3.2345,3.2652,3.2933,3.3066,3.308,3.332,3.3414,3.3414,3.3414,3.3414,3.3414,3.3414,3.3414,3.3414,3.3414,3.3414,3.3414,3.3414,3.3414,3.3414,3.3414,3.3414,3.3414,3.3414,3.3414,3.3414,3.3414,3.3414,3.3427,3.3494,3.3507,3.3521,3.3574,3.3788,3.3975,3.3975,3.4162,3.4336,3.4402,3.4402,3.4389,3.4322,3.4362,3.5212,3.72,3.8042,3.9191,4.1059,4.4089,4.6412,4.7347,4.9806,5.1426,5.1426,5.1426,5.1426,5.1426,5.1426,5.1426,5.1426,5.1426,5.1426,5.1426,5.1426,5.1426,5.1426,5.1426,5.1426,1.3584,1.4299,1.4299,1.4299,1.4299,1.4299,0.0,1.4299,1.4299,1.4299,1.4299,1.4299,1.4299,1.4476,1.4646,1.4299,1.6553,1.8976,2.0875,2.3509,2.6042,2.8604,2.9259,2.9446,2.9486,2.9753,2.9913,2.9913,2.9913,3.0047,3.0341,3.0635,3.0929,3.1209,3.1517,3.1664,3.1664,3.1664,3.1664,3.1677,3.1931,3.2064,3.2104,3.2372,3.2652,3.2946,3.324,3.336,3.336,3.34,3.3414,3.3414,3.3414,3.3414,3.3414,3.3414,3.3414,3.3414,3.3414,3.3414,3.3414,3.3414,3.3414,3.3414,3.3414,3.3414,3.3414,3.3414,3.3414,3.3414,3.3414,3.3414,3.348,3.3761,3.3828,3.3908,3.4162,3.4242,3.4269,3.4269,3.4295,3.4402,3.467,3.471,3.4629,3.4362,3.4549,3.4918,3.5112,3.7573,3.8368,3.6161,4.062,4.4698,4.7167,4.9806,5.1426,5.1426,5.1426,5.1426,5.1426,5.1426,5.1426,5.1426,5.1426,5.1426,5.1426,5.1426,5.1426,5.1426,5.1426,5.1426,1.3224,1.4299,1.4299,1.4299,1.4299,1.4299,1.4299,1.4299,1.4299,1.4299,1.4299,1.4299,1.4299,1.4299,1.4299,1.4299,1.5168,1.6585,1.8954,2.0371,2.2726,2.6729,2.7367,2.8092,2.9548,2.9847,2.9913,2.9913,3.0074,3.0301,3.0595,3.0889,3.1183,3.1476,3.1597,3.1664,3.1664,3.1664,3.1664,3.1677,3.1971,3.2198,3.2372,3.2666,3.2959,3.324,3.336,3.3414,3.3414,3.3414,3.3414,3.3414,3.3414,3.3414,3.3414,3.3414,3.3414,3.3414,3.3414,3.3414,3.3414,3.3414,3.3414,3.3414,3.3414,3.3414,3.3414,3.3414,3.3547,3.3694,3.3694,3.3814,3.3975,3.4108,3.4135,3.4175,3.4295,3.4456,3.4576,3.4576,3.471,3.487,3.499,3.5017,3.4977,3.4843,3.4937,3.5017,3.5017,3.6147,3.704,3.7444,4.1092,4.4329,4.7167,4.9806,5.1426,5.1426,5.1426,5.1426,5.1426,5.1426,5.1426,5.1426,5.1426,5.1426,5.1426,5.1426,5.1426,5.1426,5.1426,5.1426,1.3224,1.4299,1.4299,1.4299,1.4299,1.4299,1.4299,1.4299,1.4299,1.4299,1.4299,1.4299,1.4299,1.4299,1.4299,1.4299,1.4299,1.5226,1.767,1.8203,2.0175,2.527,2.6077,2.7148,2.9734,2.9913,2.9913,2.9913,3.0194,3.0488,3.0782,3.1062,3.1356,3.1664,3.1664,3.1664,3.1664,3.1664,3.1704,3.1797,3.2091,3.2372,3.2679,3.2959,3.3213,3.3414,3.3414,3.3414,3.3414,3.3414,3.3414,3.3414,3.3414,3.3414,3.3414,3.3414,3.3414,3.3414,3.3414,3.3414,3.3414,3.3414,3.3414,3.3427,3.3521,3.3547,3.3561,3.3641,3.3828,3.4002,3.4002,3.4162,3.4336,3.4429,3.4442,3.4469,3.4549,3.4736,3.4883,3.487,3.5044,3.5191,3.5191,3.5191,3.5191,3.5191,3.5191,3.5191,3.5191,3.5191,3.6019,3.8054,4.0682,4.2913,4.495,4.7582,4.9199,4.9199,4.9199,4.9591,5.0217,5.0217,5.0627,5.1426,5.1426,5.1426,5.1426,5.1426,5.1426,5.1426,5.1426,5.1426,1.3584,1.4299,1.4299,1.4299,1.4299,1.4299,1.4299,1.4299,1.4299,1.4299,1.4299,1.4299,1.4299,1.4299,1.4299,1.4299,1.4299,1.5226,1.767,1.8203,2.0175,2.527,2.6077,2.7148,2.9734,2.9913,2.9913,2.9913,3.0194,3.0488,3.0782,3.1062,3.1356,3.1664,3.1664,3.1664,3.1664,3.1664,3.181,3.2091,3.2385,3.2679,3.2973,3.3267,3.34,3.3414,3.3414,3.3414,3.3414,3.3414,3.3414,3.3414,3.3414,3.3414,3.3414,3.3414,3.3414,3.3414,3.3414,3.3414,3.3414,3.3414,3.3414,3.3467,3.3774,3.3868,3.3935,3.4215,3.4295,3.4309,3.4309,3.4309,3.4389,3.4683,3.475,3.483,3.511,3.5177,3.5177,3.5177,3.5191,3.5191,3.5191,3.5191,3.5191,3.5191,3.5191,3.5191,3.5191,3.5191,3.5191,3.5401,3.7846,3.9477,3.9477,4.1895,4.3521,4.3521,4.3521,4.4732,4.7383,4.7582,4.8786,5.1426,5.1426,5.1426,5.1426,5.1426,5.1426,5.1426,5.1426,5.1426,1.125,1.3046,1.4299,1.4299,1.4299,1.4299,1.4299,1.4299,1.4299,1.4299,1.4299,1.4299,1.4299,1.4299,1.4299,1.4299,1.438,1.4847,1.5716,1.6059,1.7492,2.0767,2.2688,2.4763,2.7148,2.8989,2.9993,3.0194,3.0488,3.0768,3.1062,3.1356,3.157,3.1664,3.1664,3.1664,3.1664,3.1864,3.2011,3.2104,3.2599,3.2986,3.3267,3.3374,3.3414,3.3414,3.3414,3.3414,3.3414,3.3414,3.3414,3.3414,3.3414,3.3414,3.3414,3.3414,3.3414,3.3414,3.3414,3.3414,3.3454,3.3654,3.3721,3.3788,3.4082,3.4175,3.4189,3.4295,3.4456,3.4616,3.4616,3.475,3.4923,3.503,3.5057,3.5084,3.5177,3.5191,3.5191,3.5191,3.5191,3.5191,3.5191,3.5191,3.5191,3.5191,3.5191,3.5191,3.5191,3.5191,3.5191,3.5191,3.7638,3.927,3.927,4.1706,4.3318,4.3318,4.3318,4.3723,4.4732,4.637,4.778,4.8786,5.0413,5.1426,5.1426,5.1426,5.1426,5.1426,5.1426,5.1426,0.9824,1.125,1.1971,1.2863,1.304,1.3224,1.4122,1.4299,1.4299,1.4299,1.4299,1.4299,1.4299,1.4299,1.4299,1.4299,1.4421,1.4563,1.4719,1.4875,1.5939,1.866,2.1083,2.3473,2.6048,2.8436,3.0034,3.0341,3.0635,3.0915,3.1209,3.1503,3.1664,3.1664,3.1664,3.1664,3.1664,3.1957,3.2211,3.2425,3.2906,3.3227,3.3414,3.3414,3.3414,3.3414,3.3414,3.3414,3.3414,3.3414,3.3414,3.3414,3.3414,3.3414,3.3414,3.3414,3.348,3.3574,3.3574,3.3574,3.3627,3.3935,3.4042,3.4095,3.4389,3.4482,3.4496,3.4603,3.4776,3.4923,3.4923,3.5057,3.5191,3.5191,3.5191,3.5191,3.5191,3.5191,3.5191,3.5191,3.5191,3.5191,3.5191,3.5191,3.5191,3.5191,3.5191,3.5191,3.5191,3.5191,3.5191,3.5191,3.6831,3.7846,3.7846,3.9477,4.0477,4.0477,4.0477,4.0887,4.1911,4.3521,4.5352,4.7383,4.8176,4.8983,5.0002,5.0002,5.0002,5.0002,5.1017,5.1426,0.9108,0.8753,0.7681,1.0002,1.054,1.1255,1.3584,1.4122,1.4299,1.4299,1.4299,1.4299,1.4299,1.4299,1.4299,1.4306,1.4428,1.4577,1.4726,1.4882,1.5946,1.8483,2.0899,2.33,2.5866,2.8256,2.9867,3.0354,3.0635,3.0929,3.1236,3.1517,3.1664,3.1664,3.1664,3.1664,3.1664,3.1971,3.2425,3.3,3.328,3.3414,3.3414,3.3414,3.3414,3.3414,3.3414,3.3414,3.3414,3.3414,3.3414,3.3414,3.3414,3.3414,3.3414,3.3427,3.3627,3.3895,3.3921,3.3921,3.3961,3.4242,3.4349,3.4402,3.4696,3.479,3.4843,3.5124,3.5191,3.5191,3.5191,3.5191,3.5191,3.5191,3.5191,3.5191,3.5191,3.5191,3.5191,3.5191,3.5191,3.5191,3.5191,3.5191,3.5191,3.5191,3.5191,3.5191,3.5191,3.5191,3.5191,3.5191,3.5191,3.5191,3.5191,3.5191,3.5191,3.5191,3.5191,3.6425,3.9078,3.927,4.1706,4.6968,4.4531,4.4531,4.7167,4.7167,4.7167,4.7383,5.0002,5.1231,0.5008,0.6258,0.7324,0.7862,0.9286,1.0895,1.1433,1.304,1.4299,1.4299,1.4299,1.4299,1.4299,1.4299,1.4333,1.4441,1.4584,1.4733,1.4889,1.5038,1.5327,1.6104,1.8321,2.0714,2.3289,2.5684,2.8082,3.0451,3.0755,3.1022,3.153,3.1623,3.1664,3.1664,3.1664,3.1664,3.1664,3.2171,3.2719,3.3307,3.3374,3.3414,3.3414,3.3414,3.3414,3.3414,3.3414,3.3414,3.3414,3.3414,3.3414,3.3414,3.3414,3.3414,3.344,3.3681,3.3814,3.3948,3.4389,3.4402,3.4255,3.4549,3.4643,3.471,3.5004,3.5084,3.5097,3.5177,3.5191,3.5191,3.5191,3.5191,3.5191,3.5191,3.5191,3.5191,3.5191,3.5191,3.5191,3.5191,3.5191,3.5191,3.5191,3.5191,3.5191,3.5191,3.5191,3.5191,3.5191,3.5191,3.5191,3.5191,3.5191,3.5191,3.5191,3.5191,3.5191,3.5191,3.5191,3.5612,3.6216,3.8248,3.9874,4.1297,4.2709,4.3723,4.4329,4.4329,4.5352,4.7383,4.8194,4.8392,0.3222,0.3759,0.4293,0.5365,0.7324,0.9464,1.0535,1.2503,1.4299,1.4299,1.4299,1.4299,1.4299,1.4299,1.4346,1.4489,1.4638,1.4794,1.495,1.5092,1.5181,1.5181,1.7398,1.9789,2.2188,2.4862,2.7683,3.0571,3.0795,3.1049,3.1637,3.1664,3.1664,3.1664,3.1664,3.1797,3.2051,3.2385,3.2839,3.3414,3.3414,3.3414,3.3414,3.3414,3.3414,3.3414,3.3414,3.3414,3.3414,3.3414,3.3414,3.3414,3.3414,3.3494,3.3641,3.3828,3.4055,3.4322,3.4656,3.4736,3.4736,3.4897,3.495,3.4977,3.5151,3.5191,3.5191,3.5191,3.5191,3.5191,3.5191,3.5191,3.5191,3.5191,3.5191,3.5191,3.5191,3.5191,3.5191,3.5191,3.5191,3.5191,3.5191,3.5191,3.5191,3.5191,3.5191,3.5191,3.5191,3.5191,3.5191,3.5191,3.5191,3.5191,3.5191,3.5191,3.5191,3.5191,3.5191,3.5191,3.5191,3.6621,3.8054,3.927,3.9668,4.0271,4.1502,4.1502,4.2318,4.3925,4.5134,4.5552,0.2509,0.1614,0.0538,0.2687,0.4829,0.7328,0.9646,1.2148,1.3938,1.4299,1.4299,1.4299,1.4299,1.4319,1.4373,1.4516,1.4672,1.4821,1.4977,1.5106,1.5181,1.5181,1.7025,1.9419,2.182,2.4605,2.7289,3.0016,3.0637,3.1089,3.1637,3.1664,3.1664,3.1664,3.1704,3.1984,3.2545,3.2585,3.2879,3.3414,3.3414,3.3414,3.3414,3.3414,3.3414,3.3414,3.3414,3.3414,3.3414,3.3414,3.3414,3.3414,3.3414,3.3601,3.3895,3.3935,3.4295,3.4776,3.4803,3.499,3.5191,3.5191,3.5191,3.5191,3.5191,3.5191,3.5191,3.5191,3.5191,3.5191,3.5191,3.5191,3.5191,3.5191,3.5191,3.5191,3.5191,3.5191,3.5191,3.5191,3.5191,3.5191,3.5191,3.5191,3.5191,3.5191,3.5191,3.5191,3.5191,3.5191,3.5191,3.5191,3.5191,3.5191,3.5191,3.5191,3.5191,3.5191,3.5191,3.5191,3.5191,3.5191,3.6425,3.8663,3.6425,3.6425,3.8663,3.8663,3.8871,3.927,4.1706,4.2709,0.0538,0.0359,0.018,0.0538,0.2509,0.4829,0.7146,0.9646,1.1965,1.3938,1.4299,1.4299,1.4299,1.4394,1.4523,1.4672,1.4828,1.4984,1.5126,1.5167,1.5181,1.5181,1.5549,1.6845,1.9242,2.2016,2.4846,2.7553,2.9865,3.1303,3.165,3.1664,3.1664,3.1664,3.1904,3.2198,3.2545,3.2786,3.308,3.3414,3.3414,3.3414,3.3414,3.3414,3.3414,3.3414,3.3414,3.3414,3.3414,3.3414,3.3414,3.3414,3.3414,3.3601,3.3921,3.4162,3.4469,3.4803,3.5044,3.5151,3.5191,3.5191,3.5191,3.5191,3.5191,3.5191,3.5191,3.5191,3.5191,3.5191,3.5191,3.5191,3.5191,3.5191,3.5191,3.5191,3.5191,3.5191,3.5191,3.5191,3.5191,3.5191,3.5191,3.5191,3.5191,3.5191,3.5191,3.5191,3.5191,3.5191,3.5191,3.5191,3.5191,3.5191,3.5191,3.5191,3.5191,3.5191,3.5191,3.5191,3.5191,3.5191,3.5401,3.5809,3.5401,3.5401,3.5809,3.5809,3.7026,3.927,3.9874,4.008,0.0,0.0,0.0,0.0,0.1793,0.3938,0.5008,0.804,1.1072,1.2148,1.3401,1.4326,1.4394,1.4468,1.459,1.4821,1.4923,1.5018,1.516,1.5181,1.5181,1.5181,1.5181,1.6104,1.8685,2.0243,2.2913,2.6794,2.8515,3.0165,3.1664,3.1664,3.1664,3.1664,3.1944,3.2251,3.2545,3.2839,3.312,3.3414,3.3414,3.3414,3.3414,3.3414,3.3414,3.3414,3.3414,3.3414,3.3414,3.3414,3.3414,3.3427,3.3587,3.3841,3.4148,3.4442,3.4736,3.5004,3.5151,3.5191,3.5191,3.5191,3.5191,3.5191,3.5191,3.5191,3.5191,3.5191,3.5191,3.5191,3.5191,3.5191,3.5191,3.5191,3.5191,3.5191,3.5191,3.5191,3.5191,3.5191,3.5191,3.5191,3.5191,3.5191,3.5191,3.5191,3.5191,3.5191,3.5191,3.5191,3.5191,3.5191,3.5191,3.5191,3.5191,3.5191,3.5191,3.5191,3.5191,3.5191,3.5191,3.5191,3.5191,3.5191,3.5191,3.5191,3.5191,3.5191,3.5809,3.7235,3.7235,3.7235,0.0,0.0,0.0,0.0,0.1434,0.3045,0.3401,0.6436,0.9464,1.054,1.2148,1.38,1.4303,1.4536,1.4652,1.493,1.4997,1.5059,1.5167,1.5181,1.5181,1.5181,1.5181,1.5917,1.7949,1.902,2.1317,2.6046,2.7676,2.9529,3.1664,3.1664,3.1664,3.1664,3.2011,3.2305,3.2545,3.2893,3.3187,3.3414,3.3414,3.3414,3.3414,3.3414,3.3414,3.3414,3.3414,3.3414,3.3414,3.3414,3.3414,3.344,3.3761,3.4068,3.4362,3.4656,3.495,3.5191,3.5191,3.5191,3.5191,3.5191,3.5191,3.5191,3.5191,3.5191,3.5191,3.5191,3.5191,3.5191,3.5191,3.5191,3.5191,3.5191,3.5191,3.5191,3.5191,3.5191,3.5191,3.5191,3.5191,3.5191,3.5191,3.5191,3.5191,3.5191,3.5191,3.5191,3.5191,3.5191,3.5191,3.5191,3.5191,3.5191,3.5191,3.5191,3.5191,3.5191,3.5191,3.5191,3.5191,3.5191,3.5191,3.5191,3.5191,3.5191,3.5191,3.5191,3.5191,3.5191,3.5191,3.5191,0.0,0.0,0.0,0.0,0.018,0.0897,0.3045,0.3938,0.5544,0.9824,1.0895,1.1821,1.4123,1.4624,1.4774,1.4943,1.5079,1.5167,1.5181,1.5181,1.5181,1.5181,1.5181,1.5368,1.5549,1.7891,2.0756,2.3591,2.8436,3.1474,3.1664,3.1664,3.1664,3.1664,3.2211,3.2519,3.2545,3.3093,3.3387,3.3414,3.3414,3.3414,3.3414,3.3414,3.3414,3.3414,3.3414,3.3414,3.3414,3.3414,3.3414,3.344,3.3761,3.4068,3.4362,3.4656,3.495,3.5191,3.5191,3.5191,3.5191,3.5191,3.5191,3.5191,3.5191,3.5191,3.5191,3.5191,3.5191,3.5191,3.5191,3.5191,3.5191,3.5191,3.5191,3.5191,3.5191,3.5191,3.5191,3.5191,3.5191,3.5191,3.5191,3.5191,3.5191,3.5191,3.5191,3.5191,3.5191,3.5191,3.5191,3.5191,3.5191,3.5191,3.5191,3.5191,3.5191,3.5191,3.5191,3.5191,3.5191,3.5191,3.5191,3.5191,3.5191,3.5191,3.5191,3.5191,3.5191,3.5191,3.5191,3.5191,0.0,0.0,0.0,0.0,0.0,0.0179,0.1256,0.2509,0.4472,0.7862,0.9692,1.1569,1.4068,1.4774,1.4923,1.5072,1.5147,1.5181,1.5181,1.5181,1.5181,1.5181,1.5181,1.5181,1.5181,1.64,1.8953,2.3405,2.8618,3.1664,3.1664,3.1664,3.1664,3.1664,3.2238,3.2545,3.2545,3.312,3.3414,3.3414,3.3414,3.3414,3.3414,3.3414,3.3414,3.3414,3.3414,3.3414,3.3414,3.3414,3.3521,3.3734,3.4028,3.4322,3.4629,3.4923,3.5097,3.5191,3.5191,3.5191,3.5191,3.5191,3.5191,3.5191,3.5191,3.5191,3.5191,3.5191,3.5191,3.5191,3.5191,3.5191,3.5191,3.5191,3.5191,3.5191,3.5191,3.5191,3.5191,3.5191,3.5191,3.5191,3.5191,3.5191,3.5191,3.5191,3.5191,3.5191,3.5191,3.5191,3.5191,3.5191,3.5191,3.5191,3.5191,3.5191,3.5191,3.5191,3.5191,3.5191,3.5191,3.5191,3.5191,3.5191,3.5191,3.5191,3.5191,3.5191,3.5191,3.5191,3.5191,3.5191,0.0,0.0,0.0,0.0,0.0,0.0,0.0,0.1255,0.3401,0.6433,0.8644,1.0911,1.416,1.4869,1.5018,1.516,1.5181,1.5181,1.5181,1.5181,1.5181,1.5181,1.5181,1.5181,1.5181,1.6774,1.9589,2.3645,2.8739,3.1664,3.1664,3.1664,3.1664,3.1664,3.2238,3.2545,3.2545,3.312,3.3414,3.3414,3.3414,3.3414,3.3414,3.3414,3.3414,3.3414,3.3414,3.3414,3.3414,3.3414,3.3601,3.3921,3.4202,3.4496,3.4803,3.5084,3.5191,3.5191,3.5191,3.5191,3.5191,3.5191,3.5191,3.5191,3.5191,3.5191,3.5191,3.5191,3.5191,3.5191,3.5191,3.5191,3.5191,3.5191,3.5191,3.5191,3.5191,3.5191,3.5191,3.5191,3.5191,3.5191,3.5191,3.5191,3.5191,3.5191,3.5191,3.5191,3.5191,3.5191,3.5191,3.5191,3.5191,3.5191,3.5191,3.5191,3.5191,3.5191,3.5191,3.5191,3.5191,3.5191,3.5191,3.5191,3.5191,3.5191,3.5191,3.5191,3.5191,3.5191,3.5191,3.5191,0.0,0.0,0.0,0.0,0.0,0.0,0.0,0.0,0.1434,0.6076,0.7207,0.8919,1.3789,1.4869,1.5018,1.516,1.5181,1.5181,1.5181,1.5181,1.5181,1.5181,1.5181,1.5181,1.5181,2.0153,2.3405,2.384,2.8739,3.1664,3.1664,3.1664,3.1664,3.1664,3.2238,3.2545,3.2545,3.312,3.3414,3.3414,3.3414,3.3414,3.3414,3.3414,3.3414,3.3414,3.3414,3.3414,3.3414,3.3414,3.3601,3.3921,3.4202,3.4496,3.4803,3.5084,3.5191,3.5191,3.5191,3.5191,3.5191,3.5191,3.5191,3.5191,3.5191,3.5191,3.5191,3.5191,3.5191,3.5191,3.5191,3.5191,3.5191,3.5191,3.5191,3.5191,3.5191,3.5191,3.5191,3.5191,3.5191,3.5191,3.5191,3.5191,3.5191,3.5191,3.5191,3.5191,3.5191,3.5191,3.5191,3.5191,3.5191,3.5191,3.5191,3.5191,3.5191,3.5191,3.5191,3.5191,3.5191,3.5191,3.5191,3.5191,3.5191,3.5191,3.5191,3.5191,3.5191,3.5191,3.5191,3.5191,0.0,0.0,0.0,0.0,0.0,0.0,0.0,0.0,0.0897,0.4116,0.6163,0.8442,1.1775,1.382,1.5126,1.5174,1.5181,1.5181,1.5181,1.5181,1.5181,1.5181,1.5181,1.5262,1.5472,1.8606,2.0918,2.112,2.6012,2.8943,2.8943,3.07,3.1664,3.1664,3.2238,3.2545,3.2545,3.312,3.3414,3.3414,3.3414,3.3414,3.3414,3.3414,3.3414,3.3414,3.3414,3.3414,3.3414,3.3414,3.3721,3.4189,3.4282,3.4629,3.507,3.5164,3.5191,3.5191,3.5191,3.5191,3.5191,3.5191,3.5191,3.5191,3.5191,3.5191,3.5191,3.5191,3.5191,3.5191,3.5191,3.5191,3.5191,3.5191,3.5191,3.5191,3.5191,3.5191,3.5191,3.5191,3.5191,3.5191,3.5191,3.5191,3.5191,3.5191,3.5191,3.5191,3.5191,3.5191,3.5191,3.5191,3.5191,3.5191,3.5191,3.5191,3.5191,3.5191,3.5191,3.5191,3.5191,3.5191,3.5191,3.5191,3.5191,3.5191,3.5191,3.5191,3.5191,3.5191,3.5191,3.5191,0.0,0.0,0.0,0.0,0.0,0.0,0.0,0.0,0.0718,0.3045,0.5815,0.8289,1.0678,1.348,1.5181,1.5181,1.5181,1.5181,1.5181,1.5181,1.5181,1.5181,1.5181,1.5303,1.5608,1.7912,1.9581,1.9945,2.4851,2.778,2.778,3.0306,3.1664,3.1664,3.2238,3.2545,3.2545,3.312,3.3414,3.3414,3.3414,3.3414,3.3414,3.3414,3.3414,3.3414,3.3414,3.3414,0.0,3.3414,3.3774,3.4322,3.4322,3.4683,3.5191,3.5191,3.5191,3.5191,3.5191,3.5191,3.5191,3.5191,3.5191,3.5191,3.5191,3.5191,3.5191,3.5191,3.5191,3.5191,3.5191,3.5191,3.5191,3.5191,3.5191,3.5191,3.5191,3.5191,3.5191,3.5191,3.5191,3.5191,3.5191,3.5191,3.5191,3.5191,3.5191,3.5191,3.5191,3.5191,3.5191,3.5191,3.5191,3.5191,3.5191,3.5191,3.5191,3.5191,3.5191,3.5191,3.5191,3.5191,3.5191,3.5191,3.5191,3.5191,3.5191,3.5191,3.5191,3.5191,3.5191,3.5191,0.0,0.0,0.0,0.0,0.0,0.0,0.0,0.0,0.0,0.2866,0.5633,0.8285,1.0494,1.3288,1.5181,1.5181,1.5181,1.5181,1.5181,1.5181,1.5181,1.5181,1.5181,1.5303,1.5608,1.772,1.9388,1.9757,2.4657,2.7588,2.7588,3.0115,3.1664,3.1664,3.2238,3.2545,3.2545,3.312,3.3414,3.3414,3.3414,3.3414,3.3414,3.3414,3.3414,3.3414,3.3414,3.3414,3.3414,3.344,3.3788,3.4322,3.4349,3.4696,3.5191,3.5191,3.5191,3.5191,3.5191,3.5191,3.5191,3.5191,3.5191,3.5191,3.5191,3.5191,3.5191,3.5191,3.5191,3.5191,3.5191,3.5191,3.5191,3.5191,3.5191,3.5191,3.5191,3.5191,3.5191,3.5191,3.5191,3.5191,3.5191,3.5191,3.5191,3.5191,3.5191,3.5191,3.5191,3.5191,3.5191,3.5191,3.5191,3.5191,3.5191,3.5191,3.5191,3.5191,3.5191,3.5191,3.5191,3.5191,3.5191,3.5191,3.5191,3.5191,3.5191,3.5191,3.5191,3.5191,3.5191,3.5191,0.0,0.0,0.0,0.0,0.0,0.0,0.0,0.0,0.018,0.0718,0.4365,0.7735,0.8289,1.2162,1.5181,1.5181,1.5181,1.5181,1.5181,1.5181,1.5181,1.5181,1.5181,1.5303,1.5608,1.6208,1.6717,1.7034,2.193,2.4851,2.4851,2.9135,3.1664,3.1664,3.2238,3.2545,3.2545,3.312,3.3414,3.3414,3.3414,3.3414,3.3414,3.3414,3.3414,3.3414,3.3414,3.3414,3.3427,3.3681,3.3988,3.4349,3.4576,3.4883,3.5191,3.5191,3.5191,3.5191,3.5191,3.5191,3.5191,3.5191,3.5191,3.5191,3.5191,3.5191,3.5191,3.5191,3.5191,3.5191,3.5191,3.5191,3.5191,3.5191,3.5191,3.5191,3.5191,3.5191,3.5191,3.5191,3.5191,3.5191,3.5191,3.5191,3.5191,3.5191,3.5191,3.5191,3.5191,3.5191,3.5191,3.5191,3.5191,3.5191,3.5191,3.5191,3.5191,3.5191,3.5191,3.5191,3.5191,3.5191,3.5191,3.5191,3.5191,3.5191,3.5191,3.5191,3.5191,3.5191,3.5191,3.5191,0.0,0.0,0.0,0.0,0.0,0.0,0.0,0.0,0.0,0.0,0.4001,0.7551,0.7551,1.1791,1.5181,1.5181,1.5181,1.5181,1.5181,1.5181,1.5181,1.5181,1.5181,1.5303,1.5608,1.5642,1.5764,1.6056,1.979,2.2702,2.388,2.6602,2.9135,3.1664,3.105,3.1346,3.2545,3.312,3.3414,3.3414,3.3414,3.3414,3.3414,3.3414,3.3414,3.3414,3.3414,3.3414,3.344,3.3761,3.4055,3.4349,3.4643,3.4937,3.5191,3.5191,3.5191,3.5191,3.5191,3.5191,3.5191,3.5191,3.5191,3.5191,3.5191,3.5191,3.5191,3.5191,3.5191,3.5191,3.5191,3.5191,3.5191,3.5191,3.5191,3.5191,3.5191,3.5191,3.5191,3.5191,3.5191,3.5191,3.5191,3.5191,3.5191,3.5191,3.5191,3.5191,3.5191,3.5191,3.5191,3.5191,3.5191,3.5191,3.5191,3.5191,3.5191,3.5191,3.5191,3.5191,3.5191,3.5191,3.5191,3.5191,3.5191,3.5191,3.5191,3.5191,3.5191,3.5191,3.5191,3.5271,0.0,0.0,0.0,0.0,0.0,0.0,0.0,0.0,0.0,0.0,0.3998,0.7537,0.7551,1.1774,1.516,1.5181,1.5181,1.5181,1.5181,1.5181,1.5181,1.5181,1.5181,1.5303,1.5608,1.5642,1.5764,1.6056,1.8616,2.1147,2.3686,2.388,2.6205,3.1474,2.9664,2.9947,3.2545,3.312,3.3414,3.3414,3.3414,3.3414,3.3414,3.3414,3.3414,3.3414,3.3414,3.3414,3.344,3.3801,3.4095,3.4349,3.4696,3.4977,3.5191,3.5191,3.5191,3.5191,3.5191,3.5191,3.5191,3.5191,3.5191,3.5191,3.5191,3.5191,3.5191,3.5191,3.5191,3.5191,3.5191,3.5191,3.5191,3.5191,3.5191,3.5191,3.5191,3.5191,3.5191,3.5191,3.5191,3.5191,3.5191,3.5191,3.5191,3.5191,3.5191,3.5191,3.5191,3.5191,3.5191,3.5191,3.5191,3.5191,3.5191,3.5191,3.5191,3.5191,3.5191,3.5191,3.5191,3.5191,3.5191,3.5191,3.5191,3.5191,3.5191,3.5244,3.5257,3.5271,3.5311,3.5458,0.0,0.0,0.0,0.0,0.0,0.0,0.0,0.0,0.0,0.0,0.3975,0.7478,0.7541,1.171,1.5045,1.516,1.5181,1.5181,1.5181,1.5181,1.5181,1.5181,1.5181,1.5303,1.5608,1.5642,1.5764,1.6056,1.8616,2.1147,2.3686,2.388,2.6205,3.1474,2.9664,2.9947,3.2545,3.312,3.3414,3.3414,3.3414,3.3414,3.3414,3.3414,3.3414,3.3414,3.3414,3.3414,3.3454,3.4028,3.4282,3.4376,3.4923,3.5151,3.5191,3.5191,3.5191,3.5191,3.5191,3.5191,3.5191,3.5191,3.5191,3.5191,3.5191,3.5191,3.5191,3.5191,3.5191,3.5191,3.5191,3.5191,3.5191,3.5191,3.5191,3.5191,3.5191,3.5191,3.5191,3.5191,3.5191,3.5191,3.5191,3.5191,3.5191,3.5191,3.5191,3.5191,3.5191,3.5191,3.5191,3.5191,3.5191,3.5191,3.5191,3.5191,3.5191,3.5191,3.5191,3.5191,3.5191,3.5191,3.5191,3.5191,3.5191,3.5191,3.5191,3.5444,3.5565,3.5565,3.5819,3.5965,0.0,0.0,0.0,0.0,0.0,0.0,0.0,0.1076,0.1614,0.0179,0.4868,0.8915,0.772,1.17,1.5018,1.516,1.5181,1.5181,1.5181,1.5181,1.5181,1.5181,1.5181,1.5303,1.5608,1.5642,1.5764,1.6056,1.7253,1.9593,2.3686,2.1156,2.3296,3.1474,2.8469,2.7741,3.0328,3.2298,3.3414,3.3414,3.3414,3.3414,3.3414,3.3414,3.3414,3.3414,3.3414,3.3414,3.3454,3.4068,3.4322,3.4376,3.4963,3.5191,3.5191,3.5191,3.5191,3.5191,3.5191,3.5191,3.5191,3.5191,3.5191,3.5191,3.5191,3.5191,3.5191,3.5191,3.5191,3.5191,3.5191,3.5191,3.5191,3.5191,3.5191,3.5191,3.5191,3.5191,3.5191,3.5191,3.5191,3.5191,3.5191,3.5191,3.5191,3.5191,3.5191,3.5191,3.5191,3.5191,3.5191,3.5191,3.5191,3.5191,3.5191,3.5191,3.5191,3.5191,3.5191,3.5191,3.5191,3.5191,3.5191,3.5191,3.5351,3.5431,3.5431,3.5725,3.5872,3.5872,3.6006,3.6153,0.0,0.0,0.0,0.0,0.0,0.0,0.0,0.1792,0.3045,0.1256,0.6114,1.033,0.8608,1.2052,1.5018,1.516,1.5181,1.5181,1.5181,1.5181,1.5181,1.5181,1.5181,1.5289,1.556,1.5615,1.575,1.6008,1.6062,1.8038,2.2711,1.8623,2.038,2.9517,2.6485,2.5734,2.7532,3.1476,3.3,3.2384,3.3,3.3414,3.3414,3.3414,3.3414,3.3414,3.3414,3.3414,3.3454,3.4068,3.4322,3.4376,3.4963,3.5191,3.5191,3.5191,3.5191,3.5191,3.5191,3.5191,3.5191,3.5191,3.5191,3.5191,3.5191,3.5191,3.5191,3.5191,3.5191,3.5191,3.5191,3.5191,3.5191,3.5191,3.5191,3.5191,3.5191,3.5191,3.5191,3.5191,3.5191,3.5191,3.5191,3.5191,3.5191,3.5191,3.5191,3.5191,3.5191,3.5191,3.5191,3.5191,3.5191,3.5191,3.5191,3.5191,3.5231,3.5297,3.5231,3.5231,3.5297,3.5297,3.5324,3.5404,3.5618,3.5738,3.5738,3.6032,3.6179,3.6179,3.6246,3.6393,0.0,0.0,0.0,0.0,0.0,0.0,0.0,0.1792,0.358,0.3401,0.7331,1.0758,1.0685,1.3102,1.5018,1.516,1.5181,1.5181,1.5181,1.5181,1.5181,1.5181,1.5181,1.5248,1.5411,1.5554,1.5703,1.5859,1.6001,1.7253,2.0175,1.7642,1.8623,2.4269,2.47,2.4737,2.4737,3.0464,3.2183,2.9724,3.2183,3.3414,3.3414,3.3414,3.3414,3.3414,3.3414,3.3414,3.3454,3.4068,3.4322,3.4376,3.4963,3.5191,3.5191,3.5191,3.5191,3.5191,3.5191,3.5191,3.5191,3.5191,3.5191,3.5191,3.5191,3.5191,3.5191,3.5191,3.5191,3.5191,3.5191,3.5191,3.5191,3.5191,3.5191,3.5191,3.5191,3.5191,3.5191,3.5191,3.5191,3.5191,3.5191,3.5191,3.5191,3.5191,3.5191,3.5191,3.5191,3.5191,3.5191,3.5191,3.5191,3.5191,3.5191,3.5191,3.5311,3.5578,3.5351,3.5311,3.5591,3.5591,3.5725,3.6006,3.6032,3.6046,3.6046,3.6326,3.6473,3.6473,3.6754,3.6901,0.0,0.0,0.0,0.0,0.0,0.0,0.0,0.3045,0.5365,0.3938,0.8575,1.2906,1.3034,1.4205,1.4991,1.5038,1.5126,1.5181,1.5181,1.5181,1.5181,1.5181,1.5181,1.5242,1.5398,1.5547,1.5696,1.5845,1.5995,1.7253,1.9782,1.7444,1.8426,2.3676,2.4503,2.3937,2.194,2.7829,2.9522,2.6853,3.1353,3.3414,3.3414,3.3414,3.3414,3.3414,3.3414,3.3414,3.3454,3.4068,3.4322,3.4376,3.4963,3.5191,3.5191,3.5191,3.5191,3.5191,3.5191,3.5191,3.5191,3.5191,3.5191,3.5191,3.5191,3.5191,3.5191,3.5191,3.5191,3.5191,3.5191,3.5191,3.5191,3.5191,3.5191,3.5191,3.5191,3.5191,3.5191,3.5191,3.5191,3.5191,3.5191,3.5191,3.5191,3.5191,3.5191,3.5191,3.5191,3.5191,3.5191,3.5191,3.5364,3.5471,3.5471,3.5631,3.5792,3.5899,3.5631,3.5605,3.5899,3.5912,3.5952,3.6072,3.6246,3.634,3.634,3.6647,3.6754,3.6794,3.6901,3.6941,0.0,0.0,0.0,0.0,0.0,0.0179,0.0897,0.4293,0.6611,0.5008,0.9824,1.436,1.455,1.4753,1.493,1.5025,1.512,1.5181,1.5181,1.5181,1.5181,1.5181,1.5181,1.5221,1.533,1.552,1.5683,1.5778,1.5967,1.6864,1.8616,1.7055,1.7642,2.1352,2.371,2.2935,1.9135,2.6008,2.7884,2.5215,2.9927,3.2598,3.3414,3.3414,3.3414,3.3414,3.3414,3.3414,3.3454,3.4068,3.4429,3.4643,3.5044,3.5191,3.5191,3.5191,3.5191,3.5191,3.5191,3.5191,3.5191,3.5191,3.5191,3.5191,3.5191,3.5191,3.5191,3.5191,3.5191,3.5191,3.5191,3.5191,3.5191,3.5191,3.5191,3.5191,3.5191,3.5191,3.5191,3.5191,3.5191,3.5191,3.5191,3.5191,3.5191,3.5191,3.5191,3.5191,3.5191,3.5191,3.5231,3.5324,3.5591,3.5765,3.5765,3.5952,3.6112,3.6206,3.6019,3.5992,3.6206,3.6206,3.6259,3.634,3.654,3.6647,3.6647,3.6834,3.6941,3.6941,3.6941,3.6941,0.0,0.0,0.0,0.0,0.0,0.0718,0.3045,0.5365,0.7146,0.7146,1.0895,1.4387,1.4685,1.474,1.4835,1.5133,1.5181,1.5181,1.5181,1.5181,1.5181,1.5181,1.5181,1.5181,1.5181,1.5459,1.5642,1.5642,1.5913,1.6083,1.6083,1.6083,1.6083,1.6083,2.1732,2.2132,1.6524,2.4982,2.7884,2.5215,2.7884,3.0748,3.3414,3.3414,3.3414,3.3414,3.3414,3.3414,3.3454,3.4068,3.467,3.5191,3.5191,3.5191,3.5191,3.5191,3.5191,3.5191,3.5191,3.5191,3.5191,3.5191,3.5191,3.5191,3.5191,3.5191,3.5191,3.5191,3.5191,3.5191,3.5191,3.5191,3.5191,3.5191,3.5191,3.5191,3.5191,3.5191,3.5191,3.5191,3.5191,3.5191,3.5191,3.5191,3.5191,3.5191,3.5191,3.5191,3.5204,3.5204,3.5311,3.5605,3.5899,3.6072,3.6072,3.6086,3.6206,3.65,3.65,3.65,3.65,3.65,3.6647,3.6941,3.6941,3.6941,3.6941,3.6941,3.6941,3.6941,3.6941,3.6941,0.0,0.0,0.0,0.0,0.0,0.0718,0.3045,0.4116,0.5544,0.893,1.2148,1.4353,1.4543,1.4665,1.4801,1.5004,1.512,1.5181,1.5181,1.5181,1.5181,1.5181,1.5181,1.5181,1.5181,1.5459,1.5642,1.5642,1.5913,1.6083,1.6083,1.6083,1.6083,1.6083,1.9834,2.0008,1.6524,2.0986,2.3016,2.2338,2.5009,2.8901,3.3414,3.3414,3.3414,3.3414,3.3414,3.3414,3.3454,3.4068,3.467,3.5191,3.5191,3.5191,3.5191,3.5191,3.5191,3.5191,3.5191,3.5191,3.5191,3.5191,3.5191,3.5191,3.5191,3.5191,3.5191,3.5191,3.5191,3.5191,3.5191,3.5191,3.5191,3.5191,3.5191,3.5191,3.5191,3.5191,3.5191,3.5191,3.5191,3.5191,3.5191,3.5191,3.5191,3.5191,3.5191,3.5271,3.5471,3.5498,3.5618,3.5912,3.6206,3.638,3.638,3.658,3.6727,3.6794,3.6794,3.6794,3.6794,3.6794,3.6861,3.6941,3.6941,3.6941,3.6941,3.6941,3.6941,3.6941,3.6941,3.6941,0.0,0.0,0.0,0.0,0.0,0.0718,0.3045,0.5008,0.7506,1.1255,1.3224,1.436,1.4563,1.4679,1.4808,1.5018,1.5126,1.5181,1.5181,1.5181,1.5181,1.5181,1.5181,1.5181,1.5181,1.5459,1.5642,1.5642,1.5913,1.6083,1.6083,1.6083,1.6083,1.6083,1.8996,1.9163,1.6517,1.9513,2.0917,2.1103,2.2752,2.6434,3.1781,3.2799,3.3414,3.3414,3.3414,3.3547,3.3801,3.4162,3.467,3.5191,3.5191,3.5191,3.5191,3.5191,3.5191,3.5191,3.5191,3.5191,3.5191,3.5191,3.5191,3.5191,3.5191,3.5191,3.5191,3.5191,3.5191,3.5191,3.5191,3.5191,3.5191,3.5191,3.5191,3.5191,3.5191,3.5191,3.5191,3.5191,3.5191,3.5191,3.5191,3.5191,3.5191,3.5191,3.5297,3.5471,3.5765,3.5912,3.6046,3.6219,3.65,3.6687,3.6687,3.6834,3.6941,3.6941,3.6941,3.6941,3.6941,3.6941,3.6941,3.6941,3.6941,3.6941,3.6941,3.6941,3.6941,3.6941,3.6941,3.6941,0.0,0.0,0.0,0.0,0.0359,0.1256,0.3401,0.7684,1.161,1.3584,1.4122,1.4387,1.4685,1.474,1.4835,1.5133,1.5181,1.5181,1.5181,1.5181,1.5181,1.5181,1.5181,1.5181,1.5181,1.5459,1.5642,1.5642,1.5913,1.6083,1.6083,1.6083,1.6083,1.6083,1.8582,1.8954,1.6517,1.9088,2.0488,2.0696,2.0895,2.3775,2.9116,3.1768,3.32,3.3414,3.3414,3.3761,3.4322,3.4322,3.467,3.5191,3.5191,3.5191,3.5191,3.5191,3.5191,3.5191,3.5191,3.5191,3.5191,3.5191,3.5191,3.5191,3.5191,3.5191,3.5191,3.5191,3.5191,3.5191,3.5191,3.5191,3.5191,3.5191,3.5191,3.5191,3.5191,3.5191,3.5191,3.5191,3.5191,3.5191,3.5191,3.5191,3.5204,3.5231,3.5485,3.5778,3.6072,3.634,3.6513,3.654,3.6794,3.6941,3.6941,3.6941,3.6941,3.6941,3.6941,3.6941,3.6941,3.6941,3.6941,3.6941,3.6941,3.6941,3.6941,3.6941,3.6941,3.6941,3.6941,3.6941,0.0,0.0,0.0,0.0,0.2866,0.5722,0.6255,1.0002,1.3224,1.1788,1.304,1.4387,1.4685,1.474,1.4835,1.5133,1.5181,1.5181,1.5181,1.5181,1.5181,1.5181,1.5181,1.5181,1.5181,1.5459,1.5642,1.5642,1.5913,1.6083,1.6083,1.6083,1.6083,1.6083,1.67,1.6848,1.6517,1.7158,1.7519,1.7811,2.0079,2.2752,2.624,2.8901,3.1365,3.3414,3.3414,3.3761,3.4322,3.4322,3.467,3.5191,3.5191,3.5191,3.5191,3.5191,3.5191,3.5191,3.5191,3.5191,3.5191,3.5191,3.5191,3.5191,3.5191,3.5191,3.5191,3.5191,3.5191,3.5191,3.5191,3.5191,3.5191,3.5191,3.5191,3.5191,3.5191,3.5191,3.5191,3.5191,3.5191,3.5191,3.5191,3.5191,3.5271,3.5498,3.5792,3.6086,3.638,3.6473,3.658,3.6834,3.6901,3.6941,3.6941,3.6941,3.6941,3.6941,3.6941,3.6941,3.6941,3.6941,3.6941,3.6941,3.6941,3.6941,3.6941,3.6941,3.6941,3.6941,3.6941,3.6941,0.0,0.0,0.0,0.0,0.358,0.7146,0.7146,1.0895,1.3938,1.2686,1.3401,1.4387,1.4685,1.474,1.4835,1.5133,1.5181,1.5181,1.5181,1.5181,1.5181,1.5181,1.5181,1.5181,1.5181,1.5459,1.5642,1.5642,1.5913,1.6083,1.6083,1.6083,1.6083,1.6083,1.6083,1.6225,1.6517,1.6524,1.6673,1.6978,1.8424,2.131,2.542,2.9319,3.1365,3.158,3.2956,3.3068,3.2426,3.3835,3.479,3.5191,3.5191,3.5191,3.5191,3.5191,3.5191,3.5191,3.5191,3.5191,3.5191,3.5191,3.5191,3.5191,3.5191,3.5191,3.5191,3.5191,3.5191,3.5191,3.5191,3.5191,3.5191,3.5191,3.5191,3.5191,3.5191,3.5191,3.5191,3.5191,3.5191,3.5191,3.5191,3.5311,3.5551,3.5979,3.6179,3.6393,3.6687,3.6727,3.6754,3.6941,3.6941,3.6941,3.6941,3.6941,3.6941,3.6941,3.6941,3.6941,3.6941,3.6941,3.6941,3.6941,3.6941,3.6941,3.6941,3.6941,3.6941,3.6941,3.6941,3.6941,0.0,0.0,0.0,0.0,0.358,0.7146,0.7146,1.0895,1.4299,1.4299,1.4319,1.4421,1.4692,1.476,1.4869,1.514,1.5181,1.5181,1.5181,1.5181,1.5181,1.5181,1.5181,1.5181,1.5181,1.5459,1.5642,1.5642,1.5913,1.6083,1.6083,1.6083,1.6083,1.6083,1.6083,1.6225,1.6517,1.6524,1.6673,1.6978,1.7391,2.0279,2.542,2.9927,3.095,2.9533,3.2505,3.2571,3.0534,3.3564,3.4937,3.5191,3.5191,3.5191,3.5191,3.5191,3.5191,3.5191,3.5191,3.5191,3.5191,3.5191,3.5191,3.5191,3.5191,3.5191,3.5191,3.5191,3.5191,3.5191,3.5191,3.5191,3.5191,3.5191,3.5191,3.5191,3.5191,3.5191,3.5191,3.5191,3.5231,3.5271,3.5271,3.5551,3.5952,3.6433,3.654,3.6647,3.6901,3.6941,3.6941,3.6941,3.6941,3.6941,3.6941,3.6941,3.6941,3.6941,3.6941,3.6941,3.6941,3.6941,3.6941,3.6941,3.6941,3.6941,3.6941,3.6941,3.6941,3.6941,3.6941,3.6941,0.0,0.0,0.0,0.0,0.358,0.7146,0.7146,1.0895,1.4299,1.4299,1.4394,1.4536,1.4706,1.4848,1.4991,1.5153,1.5181,1.5181,1.5181,1.5181,1.5181,1.5181,1.5181,1.5181,1.5181,1.5459,1.5642,1.5642,1.5913,1.6083,1.6083,1.6083,1.6083,1.6083,1.6083,1.6225,1.6517,1.6524,1.6673,1.6978,1.9462,2.2131,2.5215,2.6035,2.7465,2.9533,3.2505,3.2571,3.0534,3.3564,3.4937,3.5191,3.5191,3.5191,3.5191,3.5191,3.5191,3.5191,3.5191,3.5191,3.5191,3.5191,3.5191,3.5191,3.5191,3.5191,3.5191,3.5191,3.5191,3.5191,3.5191,3.5191,3.5191,3.5191,3.5191,3.5191,3.5191,3.5191,3.5191,3.5191,3.5404,3.5578,3.5578,3.6032,3.6433,3.65,3.6727,3.6901,3.6941,3.6941,3.6941,3.6941,3.6941,3.6941,3.6941,3.6941,3.6941,3.6941,3.6941,3.6941,3.6941,3.6941,3.6941,3.6941,3.6941,3.6941,3.6941,3.6941,3.6941,3.6941,3.6941,3.6941,0.0,0.0,0.0,0.0,0.358,0.7146,0.7146,1.0942,1.4421,1.4421,1.4604,1.476,1.4746,1.4869,1.5018,1.516,1.5181,1.5181,1.5181,1.5181,1.5181,1.5181,1.5181,1.5181,1.5181,1.5459,1.5642,1.5642,1.5913,1.6083,1.6083,1.6083,1.6083,1.6083,1.6083,1.6225,1.6517,1.6524,1.6673,1.6978,1.8222,2.0279,2.2958,2.2958,2.4392,2.7079,2.87,2.8926,2.8225,3.1372,3.3556,3.5191,3.5191,3.5191,3.5191,3.5191,3.5191,3.5191,3.5191,3.5191,3.5191,3.5191,3.5191,3.5191,3.5191,3.5191,3.5191,3.5191,3.5191,3.5191,3.5191,3.5191,3.5191,3.5191,3.5191,3.5191,3.5191,3.5191,3.5244,3.5404,3.5538,3.5738,3.6059,3.634,3.658,3.6727,3.6861,3.6941,3.6941,3.6941,3.6941,3.6941,3.6941,3.6941,3.6941,3.6941,3.6941,3.6941,3.6941,3.6941,3.6941,3.6941,3.6941,3.6941,3.6941,3.6941,3.6941,3.6941,3.6941,3.6941,3.6941,3.6941,0.0,0.0,0.0,0.0,0.3587,0.7177,0.7177,1.1025,1.457,1.457,1.478,1.4936,1.4821,1.4923,1.5059,1.5167,1.5181,1.5181,1.5181,1.5181,1.5181,1.5181,1.5181,1.5181,1.5181,1.5459,1.5642,1.5642,1.5913,1.6083,1.6083,1.6083,1.6083,1.6083,1.6117,1.6259,1.6517,1.6598,1.6754,1.6978,1.6978,1.8424,2.1103,2.0279,2.1518,2.4206,2.546,2.6072,2.6334,2.9561,3.2586,3.5191,3.5191,3.5191,3.5191,3.5191,3.5191,3.5191,3.5191,3.5191,3.5191,3.5191,3.5191,3.5191,3.5191,3.5191,3.5191,3.5191,3.5191,3.5191,3.5191,3.5191,3.5191,3.5191,3.5191,3.5191,3.5191,3.5257,3.5364,3.5591,3.5752,3.5992,3.6433,3.658,3.6687,3.6901,3.6941,3.6941,3.6941,3.6941,3.6941,3.6941,3.6941,3.6941,3.6941,3.6941,3.6941,3.6941,3.6941,3.6941,3.6941,3.6941,3.6941,3.6941,3.6941,3.6941,3.6941,3.6941,3.6941,3.6941,3.6941,3.6981,0.0,0.0,0.0,0.0,0.3787,0.7436,0.7436,1.1144,1.4726,1.4726,1.4855,1.497,1.4964,1.5072,1.5174,1.5181,1.5181,1.5181,1.5181,1.5181,1.5181,1.5181,1.5181,1.5181,1.5181,1.5459,1.5642,1.5642,1.5913,1.6083,1.6083,1.6083,1.6083,1.6083,1.6225,1.6368,1.6517,1.6809,1.6965,1.6978,1.6978,1.8424,2.1103,1.8424,1.8634,2.1535,2.4623,2.6072,2.6334,2.9561,3.2586,3.5191,3.5191,3.5191,3.5191,3.5191,3.5191,3.5191,3.5191,3.5191,3.5191,3.5191,3.5191,3.5191,3.5191,3.5191,3.5191,3.5191,3.5191,3.5191,3.5191,3.5191,3.5191,3.5191,3.5191,3.5191,3.5191,3.5418,3.5605,3.5631,3.6072,3.6473,3.65,3.6727,3.6941,3.6941,3.6941,3.6941,3.6941,3.6941,3.6941,3.6941,3.6941,3.6941,3.6941,3.6941,3.6941,3.6941,3.6941,3.6941,3.6941,3.6941,3.6941,3.6941,3.6941,3.6941,3.6941,3.6941,3.6941,3.6941,3.6941,3.7088,0.0,0.0,0.0,0.0,0.3662,0.733,0.733,1.1263,1.4889,1.4889,1.5004,1.5106,1.5106,1.5147,1.5181,1.5181,1.5181,1.5181,1.5181,1.5181,1.5181,1.5181,1.5181,1.5181,1.5181,1.5459,1.5642,1.5642,1.5913,1.6083,1.6083,1.6083,1.6083,1.6083,1.6232,1.6422,1.6666,1.6876,1.6978,1.6978,1.6978,1.7601,1.8424,1.7391,1.7601,1.8447,1.9812,2.1652,2.3584,2.6765,2.9765,3.2586,3.4544,3.5191,3.5191,3.5191,3.5191,3.5191,3.5191,3.5191,3.5191,3.5191,3.5191,3.5191,3.5191,3.5191,3.5191,3.5191,3.5191,3.5191,3.5191,3.5191,3.5191,3.5191,3.5191,3.5244,3.5431,3.5551,3.5685,3.5872,3.6233,3.658,3.6754,3.6861,3.6941,3.6941,3.6941,3.6941,3.6941,3.6941,3.6941,3.6941,3.6941,3.6941,3.6941,3.6941,3.6941,3.6941,3.6941,3.6941,3.6941,3.6941,3.6941,3.6941,3.6941,3.6941,3.6941,3.6941,3.6941,3.6941,3.6941,3.7088,0.0,0.0,0.0,0.0,0.3147,0.6481,0.722,1.0821,1.4101,1.4852,1.512,1.5181,1.5181,1.5181,1.5181,1.5181,1.5181,1.5181,1.5181,1.5181,1.5181,1.5181,1.5181,1.5201,1.5255,1.5493,1.5655,1.571,1.594,1.6083,1.6083,1.6083,1.613,1.6225,1.6327,1.6524,1.6822,1.6931,1.6978,1.6978,1.6978,1.6978,1.6978,1.6978,1.6978,1.6998,1.729,1.9111,2.2096,2.5273,2.8253,3.1272,3.4108,3.5191,3.5191,3.5191,3.5191,3.5191,3.5191,3.5191,3.5191,3.5191,3.5191,3.5191,3.5191,3.5191,3.5191,3.5191,3.5191,3.5191,3.5191,3.5191,3.5191,3.5191,3.5191,3.5271,3.5565,3.5712,3.5859,3.6166,3.6473,3.6727,3.6901,3.6941,3.6941,3.6941,3.6941,3.6941,3.6941,3.6941,3.6941,3.6941,3.6941,3.6941,3.6941,3.6941,3.6941,3.6941,3.6941,3.6941,3.6941,3.6941,3.6941,3.6941,3.6941,3.6941,3.6941,3.6941,3.6941,3.6941,3.7048,3.7301,0.0,0.0,0.0,0.0,0.1864,0.4496,0.6923,0.9424,1.1956,1.461,1.5181,1.5181,1.5181,1.5181,1.5181,1.5181,1.5181,1.5181,1.5181,1.5181,1.5181,1.5181,1.5181,1.5242,1.5398,1.5547,1.5696,1.5845,1.5995,1.6083,1.6083,1.6083,1.6218,1.651,1.6524,1.6673,1.6978,1.6978,1.6978,1.6978,1.6978,1.6978,1.6978,1.6978,1.6978,1.6998,1.729,1.9118,2.1891,2.5058,2.8253,3.1059,3.4108,3.5191,3.5191,3.5191,3.5191,3.5191,3.5191,3.5191,3.5191,3.5191,3.5191,3.5191,3.5191,3.5191,3.5191,3.5191,3.5191,3.5191,3.5191,3.5191,3.5191,3.5191,3.5204,3.5284,3.5578,3.5872,3.6166,3.6433,3.6727,3.6941,3.6941,3.6941,3.6941,3.6941,3.6941,3.6941,3.6941,3.6941,3.6941,3.6941,3.6941,3.6941,3.6941,3.6941,3.6941,3.6941,3.6941,3.6941,3.6941,3.6941,3.6941,3.6941,3.6941,3.6941,3.6941,3.6941,3.6941,3.6941,3.7235,3.7716,0.0,0.0,0.0,0.0,0.0,0.0,0.4732,0.6822,0.9299,1.1956,1.2522,1.3093,1.4805,1.5181,1.5181,1.5181,1.5181,1.5181,1.5181,1.5181,1.5181,1.5181,1.5181,1.5242,1.5398,1.5547,1.5696,1.5845,1.5995,1.6083,1.6083,1.6083,1.6218,1.651,1.6524,1.6673,1.6978,1.6978,1.6978,1.6978,1.6978,1.6978,1.6978,1.6978,1.6978,1.6998,1.729,1.7843,1.8926,2.4411,2.6961,2.8253,3.3235,3.5191,3.5191,3.5191,3.5191,3.5191,3.5191,3.5191,3.5191,3.5191,3.5191,3.5191,3.5191,3.5191,3.5191,3.5191,3.5191,3.5191,3.5191,3.5191,3.5191,3.5191,3.5351,3.5591,3.5885,3.6179,3.6393,3.65,3.6727,3.6941,3.6941,3.6941,3.6941,3.6941,3.6941,3.6941,3.6941,3.6941,3.6941,3.6941,3.6941,3.6941,3.6941,3.6941,3.6941,3.6941,3.6941,3.6941,3.6941,3.6941,3.6941,3.6941,3.6941,3.6941,3.6941,3.6941,3.6941,3.6941,3.7448,3.7889,0.0,0.0,0.0,0.0,0.0,0.0,0.4941,0.6456,0.8542,1.2334,1.2904,1.3475,1.4993,1.5181,1.5181,1.5181,1.5181,1.5181,1.5181,1.5181,1.5181,1.5181,1.5242,1.5337,1.5493,1.5642,1.5791,1.594,1.6029,1.6083,1.6083,1.6083,1.6218,1.651,1.6524,1.6673,1.6978,1.6978,1.6978,1.6978,1.6978,1.6978,1.6978,1.6978,1.7012,1.708,1.7317,1.746,1.7961,2.4017,2.6529,2.7176,3.3023,3.5191,3.5191,3.5191,3.5191,3.5191,3.5191,3.5191,3.5191,3.5191,3.5191,3.5191,3.5191,3.5191,3.5191,3.5191,3.5191,3.5191,3.5191,3.5191,3.5191,3.5191,3.5418,3.5712,3.6006,3.6299,3.654,3.6647,3.6834,3.6941,3.6941,3.6941,3.6941,3.6941,3.6941,3.6941,3.6941,3.6941,3.6941,3.6941,3.6941,3.6941,3.6941,3.6941,3.6941,3.6941,3.6941,3.6941,3.6941,3.6941,3.6941,3.6941,3.6941,3.7008,3.7128,3.7008,3.7048,3.7301,3.7782,3.8143,0.0,0.0,0.0,0.0,0.0,0.0,0.57,0.6838,0.8164,1.2899,1.3852,1.404,1.461,1.4798,1.4805,1.5181,1.5181,1.5181,1.5181,1.5181,1.5187,1.5208,1.533,1.5479,1.5649,1.5778,1.592,1.6069,1.6083,1.6083,1.6083,1.6083,1.6218,1.651,1.6524,1.6673,1.6978,1.6978,1.6978,1.6978,1.6978,1.6978,1.6978,1.6978,1.706,1.7202,1.7351,1.7507,1.8079,2.4072,2.6529,2.7176,3.3023,3.5191,3.5191,3.5191,3.5191,3.5191,3.5191,3.5191,3.5191,3.5191,3.5191,3.5191,3.5191,3.5191,3.5191,3.5191,3.5191,3.5191,3.5191,3.5191,3.5204,3.5231,3.5471,3.5765,3.6059,3.6353,3.662,3.6901,3.6941,3.6941,3.6941,3.6941,3.6941,3.6941,3.6941,3.6941,3.6941,3.6941,3.6941,3.6941,3.6941,3.6941,3.6941,3.6941,3.6941,3.6941,3.6941,3.6941,3.6941,3.6941,3.6941,3.6941,3.6981,3.7128,3.7422,3.7155,3.7301,3.7889,3.8143,3.8437,0.0,0.0,0.0,0.0,0.0,0.0,0.1334,0.1525,0.2285,0.532,0.6076,0.7213,1.1385,1.2145,1.2904,1.4805,1.5181,1.5181,1.5181,1.5181,1.5228,1.535,1.5391,1.552,1.5784,1.5839,1.592,1.6069,1.6083,1.6083,1.6083,1.6083,1.6218,1.651,1.6524,1.6673,1.6978,1.6978,1.6978,1.6978,1.6978,1.6978,1.6978,1.6978,1.706,1.7202,1.7351,1.7507,1.8079,2.4072,2.6529,2.7176,3.3023,3.5191,3.5191,3.5191,3.5191,3.5191,3.5191,3.5191,3.5191,3.5191,3.5191,3.5191,3.5191,3.5191,3.5191,3.5191,3.5191,3.5191,3.5191,3.5191,3.5257,3.5485,3.5765,3.6072,3.6353,3.6647,3.6861,3.6941,3.6941,3.6941,3.6941,3.6941,3.6941,3.6941,3.6941,3.6941,3.6941,3.6941,3.6941,3.6941,3.6941,3.6941,3.6941,3.6941,3.6941,3.6941,3.6941,3.6941,3.6941,3.6941,3.6941,3.6941,3.7155,3.7448,3.7742,3.7676,3.7823,3.8183,3.8223,3.8437,0.0,0.0,0.0,0.0,0.0,0.0,0.0,0.1905,0.2665,0.513,0.57,0.6458,0.9109,1.063,1.1768,1.3093,1.4422,1.5181,1.5181,1.5248,1.5323,1.5404,1.554,1.5689,1.5839,1.592,1.6001,1.6076,1.6083,1.6083,1.6083,1.6151,1.6293,1.6517,1.6592,1.6748,1.6978,1.6978,1.6978,1.6978,1.6978,1.6978,1.6978,1.6978,1.71,1.7311,1.7385,1.7548,1.8191,2.4109,2.6529,2.7176,3.3023,3.5191,3.5191,3.5191,3.5191,3.5191,3.5191,3.5191,3.5191,3.5191,3.5191,3.5191,3.5191,3.5191,3.5191,3.5191,3.5191,3.5191,3.5191,3.5191,3.5271,3.5565,3.5859,3.6153,3.6433,3.6727,3.6941,3.6941,3.6941,3.6941,3.6941,3.6941,3.6941,3.6941,3.6941,3.6941,3.6941,3.6941,3.6941,3.6941,3.6941,3.6941,3.6941,3.6941,3.6941,3.6941,3.6941,3.6941,3.6941,3.7088,3.7235,3.7382,3.7676,3.7889,3.8036,3.8183,3.825,3.8263,3.8397,3.8584,0.0,0.0,0.0,0.0,0.0,0.0572,0.0,0.0,0.0,0.57,0.6079,0.6269,0.6838,0.892,1.0809,1.136,1.3481,1.5215,1.5187,1.5364,1.5486,1.5459,1.5689,1.5866,1.5893,1.6008,1.6083,1.6083,1.6083,1.6083,1.6083,1.6225,1.6374,1.6517,1.6673,1.6822,1.6978,1.6978,1.6978,1.6978,1.6978,1.6978,1.6978,1.6978,1.7141,1.7419,1.7419,1.7589,1.8302,2.4145,2.6529,2.7176,3.3023,3.5191,3.5191,3.5191,3.5191,3.5191,3.5191,3.5191,3.5191,3.5191,3.5191,3.5191,3.5191,3.5191,3.5191,3.5191,3.5191,3.5191,3.5191,3.5231,3.5351,3.5645,3.5939,3.6233,3.654,3.6754,3.6941,3.6941,3.6941,3.6941,3.6941,3.6941,3.6941,3.6941,3.6941,3.6941,3.6941,3.6941,3.6941,3.6941,3.6941,3.6941,3.6941,3.6941,3.6941,3.6941,3.6941,3.6967,3.7008,3.7301,3.7595,3.7889,3.8143,3.829,3.837,3.8611,3.8584,3.837,3.8611,3.8718,0.0,0.0,0.0,0.0,0.0,0.0,0.0382,0.0,0.0572,0.0763,0.0,0.1525,0.3803,0.0,0.0,1.0875,1.3493,1.5337,1.5201,1.554,1.5757,1.5628,1.5757,1.5906,1.6042,1.6069,1.6083,1.6083,1.6083,1.6083,1.6083,1.6225,1.6374,1.6517,1.6673,1.6822,1.6978,1.6978,1.6978,1.6978,1.6978,1.6978,1.6978,1.6978,1.7141,1.7419,1.7419,1.7589,1.8302,2.4145,2.6529,2.7176,3.3023,3.5191,3.5191,3.5191,3.5191,3.5191,3.5191,3.5191,3.5191,3.5191,3.5191,3.5191,3.5191,3.5191,3.5191,3.5191,3.5191,3.5191,3.5191,3.5391,3.5658,3.5952,3.6246,3.654,3.6834,3.6901,3.6941,3.6941,3.6941,3.6941,3.6941,3.6941,3.6941,3.6941,3.6941,3.6941,3.6941,3.6941,3.6941,3.6941,3.6941,3.6941,3.6941,3.6941,3.6941,3.6941,3.6941,3.7048,3.7315,3.7595,3.7889,3.8183,3.825,3.8397,3.8691,3.8718,3.8691,3.8691,3.8718,3.8718,0.0,0.0,0.0,0.0,0.0,0.0,0.0,0.0,0.0,0.0,0.0,0.0,0.0,0.0,0.0,0.0,1.2701,1.552,1.5459,1.5683,1.5832,1.5771,1.5893,1.6008,1.6076,1.6083,1.6083,1.6083,1.6083,1.6123,1.6212,1.6354,1.6503,1.6653,1.6802,1.6917,1.6978,1.6978,1.6978,1.6978,1.6978,1.6978,1.6978,1.6978,1.7141,1.7419,1.7419,1.8444,2.0694,2.4797,2.7607,2.9551,3.3672,3.5191,3.5191,3.5191,3.5191,3.5191,3.5191,3.5191,3.5191,3.5191,3.5191,3.5191,3.5191,3.5191,3.5191,3.5191,3.5191,3.5191,3.5191,3.5418,3.5698,3.6006,3.6286,3.658,3.6861,3.6941,3.6941,3.6941,3.6941,3.6941,3.6941,3.6941,3.6941,3.6941,3.6941,3.6941,3.6941,3.6941,3.6941,3.6941,3.6941,3.6941,3.6941,3.6941,3.6941,3.6941,3.7088,3.7422,3.7863,3.7996,3.8223,3.8504,3.8544,3.8584,3.8718,3.8718,3.8718,3.8718,3.8718,3.8718,0.0,0.0,0.0,0.0,0.0,0.0,0.0,0.0,0.0,0.0,0.0,0.0,0.0,0.0,0.7708,0.7708,0.0,1.5683,1.5642,1.5798,1.59,1.5859,1.5988,1.6083,1.6083,1.6083,1.6083,1.6083,1.6083,1.6151,1.63,1.6442,1.6592,1.6748,1.6904,1.6978,1.6978,1.6978,1.6978,1.6978,1.6978,1.6978,1.6978,1.6978,1.7141,1.7419,1.7419,1.9304,2.242,2.5231,2.8253,3.1272,3.4108,3.5191,3.5191,3.5191,3.5191,3.5191,3.5191,3.5191,3.5191,3.5191,3.5191,3.5191,3.5191,3.5191,3.5191,3.5191,3.5191,3.5191,3.5191,3.5471,3.5805,3.6019,3.6353,3.6687,3.6901,3.6941,3.6941,3.6941,3.6941,3.6941,3.6941,3.6941,3.6941,3.6941,3.6941,3.6941,3.6941,3.6941,3.6941,3.6941,3.6941,3.6941,3.6941,3.6941,3.6981,3.7048,3.7422,3.7823,3.825,3.833,3.8504,3.8718,3.8718,3.8718,3.8718,3.8718,3.8718,3.8718,3.8718,3.8718,0.0,0.0,0.0,0.0,0.0,0.0,0.0,0.0,0.0,0.0,0.0,0.0,0.0,0.4243,0.7708,0.7708,1.232,0.0,0.0,1.5893,1.6022,1.5872,1.5988,1.6083,1.6083,1.6083,1.6083,1.6083,1.6083,1.6151,1.63,1.6442,1.6592,1.6748,1.6904,1.6978,1.6978,1.6978,1.6978,1.6978,1.6978,1.6978,1.6978,1.6978,1.7141,1.7419,1.7419,1.9304,2.242,2.5231,2.8253,3.1272,3.4108,3.5191,3.5191,3.5191,3.5191,3.5191,3.5191,3.5191,3.5191,3.5191,3.5191,3.5191,3.5191,3.5191,3.5191,3.5191,3.5191,3.5191,3.5191,3.5618,3.6059,3.6072,3.65,3.6941,3.6941,3.6941,3.6941,3.6941,3.6941,3.6941,3.6941,3.6941,3.6941,3.6941,3.6941,3.6941,3.6941,3.6941,3.6941,3.6941,3.6941,3.6941,3.6941,3.6941,3.7048,3.7342,3.7889,3.8223,3.8263,3.8544,3.8718,3.8718,3.8718,3.8718,3.8718,3.8718,3.8718,3.8718,3.8718,3.8718,0.0,0.0,0.0,0.0,0.0,0.0,0.0,0.0,0.0,0.0,0.0,0.0574,0.2314,0.5621,0.8574,1.0197,1.3684,1.5988,0.0,1.6015,1.6062,1.6008,1.6049,1.6083,1.6083,1.6083,1.6083,1.6083,1.6178,1.6293,1.6442,1.6592,1.6741,1.6897,1.6951,1.6978,1.6978,1.6978,1.6978,1.6978,1.6978,1.6978,1.6985,1.708,1.7229,1.7426,1.7528,2.0481,2.5014,2.6097,2.9337,3.3883,3.4768,3.5191,3.5191,3.5191,3.5191,3.5191,3.5191,3.5191,3.5191,3.5191,3.5191,3.5191,3.5191,3.5191,3.5191,3.5191,3.5191,3.5244,3.5431,3.5778,3.6126,3.6313,3.6647,3.6941,3.6941,3.6941,3.6941,3.6941,3.6941,3.6941,3.6941,3.6941,3.6941,3.6941,3.6941,3.6941,3.6941,3.6941,3.6941,3.6941,3.6941,3.6941,3.6941,3.7128,3.7448,3.7929,3.8143,3.837,3.8544,3.8651,3.8718,3.8718,3.8718,3.8718,3.8718,3.8718,3.8718,3.8718,3.8718,3.9848,0.0,0.0,0.0191,0.1144,0.1334,0.1334,0.1334,0.1334,0.1334,0.1334,0.1338,0.2305,0.4838,0.7612,1.0041,1.1728,1.4409,1.6083,0.0,1.6083,1.6083,1.6083,1.6083,1.6083,1.6083,1.6083,1.6083,1.6083,1.6225,1.6374,1.6517,1.6666,1.6822,1.6978,1.6978,1.6978,1.6978,1.6978,1.6978,1.6978,1.6978,1.6978,1.6985,1.7127,1.7277,1.7433,1.7582,2.0964,2.6529,2.6529,2.9979,3.5191,3.5191,3.5191,3.5191,3.5191,3.5191,3.5191,3.5191,3.5191,3.5191,3.5191,3.5191,3.5191,3.5191,3.5191,3.5191,3.5191,3.5191,3.5271,3.5551,3.5845,3.6139,3.6433,3.6727,3.6941,3.6941,3.6941,3.6941,3.6941,3.6941,3.6941,3.6941,3.6941,3.6941,3.6941,3.6941,3.6941,3.6941,3.6941,3.6941,3.6941,3.6941,3.6981,3.7088,3.7448,3.7863,3.8223,3.837,3.8504,3.8718,3.8718,3.8758,3.8865,3.8758,3.8758,3.8865,3.8758,3.8718,3.8718,3.8718,4.0282]}]]